GFSSGP_prec_cloud_003.txt.gz
Cloud_Cover
0 0 0 0 0 0 0 4 57 77 100 100 100 100 100 100 100 100 100 100 100 100 100 100 100 100 100 100 100 100 91 79 51 5 77 5 58 10 5 15 5 4 0 0 0 0 0 0 2
0 0 0 2 0 0 0 5 5 47 100 100 100 100 100 100 100 100 100 100 100 95 100 100 100 100 100 97 100 68 56 88 30 100 55 5 19 2 5 3 4 1 0 0 0 0 0 5 5
0 0 2 5 5 1 1 14 5 73 41 100 100 100 100 100 100 100 100 97 100 100 100 100 100 100 100 100 100 100 99 82 40 64 21 19 5 7 100 90 0 0 0 0 0 0 4 25 5
0 0 4 5 23 2 5 4 8 96 100 100 100 100 100 100 100 100 100 100 98 100 100 100 100 100 100 100 97 73 64 7 3 3 5 2 3 78 95 4 0 0 0 0 2 5 59 68 3
4 1 2 27 5 0 5 11 100 96 100 92 100 100 100 100 100 100 100 100 100 100 100 100 100 100 99 100 99 76 24 4 5 46 100 6 99 55 66 4 3 4 3 4 5 12 11 55 1
4 4 4 0 5 10 1 96 25 54 100 100 100 84 100 100 100 100 100 100 97 100 100 100 100 95 100 100 88 46 20 66 100 100 48 96 100 75 5 3 5 5 5 5 5 5 14 4 0
5 5 3 2 80 100 42 28 26 97 99 100 100 100 100 100 100 100 100 100 100 100 100 100 100 100 98 100 100 75 100 100 27 94 64 100 6 19 5 5 17 17 5 5 56 15 5 1 0
21 7 5 5 90 94 41 85 96 99 100 100 100 100 100 100 100 100 100 100 100 100 100 100 100 100 100 100 76 61 100 100 100 28 6 5 24 100 99 93 42 46 92 6 6 0 0 0 0
100 100 89 16 47 100 100 100 100 91 100 99 100 100 100 100 100 100 100 100 100 100 100 100 100 100 99 100 100 100 100 97 31 73 91 99 100 100 100 100 100 67 18 5 0 2 0 0 0
99 96 100 97 66 100 73 96 100 100 100 91 100 100 100 100 100 100 100 100 100 100 100 100 100 100 100 100 100 47 98 100 100 99 100 100 100 100 100 28 24 27 0 0 5 0 0 0 0
100 100 100 100 100 99 100 99 100 74 81 92 100 100 100 100 100 100 100 100 100 100 100 100 100 100 100 100 41 99 100 100 100 100 100 100 100 100 100 16 0 0 0 0 0 0 0 0 0
100 100 100 100 100 100 100 100 100 94 94 100 96 99 100 100 100 100 100 100 100 100 100 100 100 79 100 98 100 100 100 100 100 100 100 100 100 36 5 5 2 0 5 5 5 0 0 0 0
100 100 100 100 100 100 100 100 100 100 91 100 100 100 100 100 100 100 100 95 100 100 100 100 100 98 100 100 100 100 100 100 100 100 100 100 100 88 41 5 16 91 5 35 5 5 2 0 0
100 100 100 100 100 100 100 100 100 100 100 100 100 100 100 100 100 100 100 100 100 100 93 82 100 100 100 100 100 100 100 100 100 100 100 100 100 100 47 100 100 73 5 6 7 5 5 4 0
100 98 100 100 100 100 100 100 100 100 100 100 100 100 100 100 100 99 8 5 40 43 95 100 100 100 100 100 100 100 100 100 100 100 100 100 100 100 99 100 100 30 17 94 8 45 66 34 0
100 100 100 100 100 70 100 100 100 100 93 54 97 100 100 100 100 100 100 85 54 88 100 100 93 100 100 100 100 100 100 100 100 100 100 100 100 100 100 98 100 100 100 69 100 57 58 4 5
100 100 99 100 100 100 100 97 98 91 45 63 89 100 95 97 46 48 51 55 74 78 80 100 98 92 100 100 100 100 100 100 100 100 100 100 100 100 100 100 100 100 100 100 100 48 38 5 5
99 100 100 100 100 100 56 47 81 90 89 96 97 97 70 58 60 74 75 44 27 30 53 70 84 87 58 100 100 70 100 100 100 100 100 100 100 100 100 100 99 72 89 90 9 25 8 1 2
98 100 83 55 27 5 6 11 13 35 43 75 68 49 45 80 98 70 48 67 56 53 25 72 41 82 22 19 4 58 100 99 19 17 5 3 1 4 5 44 5 5 5 1 5 5 5 7 8
44 50 55 5 4 5 3 5 5 5 5 5 5 10 72 63 60 46 69 75 34 49 93 59 41 9 9 64 0 0 0 0 0 0 0 0 0 2 0 0 0 0 4 6 27 7 7 5 2
100 52 82 29 6 72 43 21 5 4 0 4 5 5 5 5 6 37 28 20 26 14 4 3 3 63 5 1 1 0 0 0 0 0 0 0 0 0 0 0 5 5 9 19 17 5 0 0 0
5 5 4 43 100 36 10 59 60 5 3 4 5 6 17 20 4 2 5 15 86 93 5 16 32 34 1 4 0 0 0 0 0 0 0 0 0 0 0 5 5 5 5 1 0 0 0 0 0
5 5 5 5 41 55 6 3 4 0 5 13 7 2 0 5 5 6 5 5 5 92 30 44 5 38 0 0 0 0 0 0 0 0 0 0 0 3 5 5 5 5 0 0 0 0 0 9 8
2 5 16 7 20 5 5 1 0 0 0 0 0 0 0 4 70 63 5 5 7 82 52 0 5 5 5 5 5 4 1 2 3 5 0 2 3 0 0 0 0 0 1 3 58 8 63 31 5
5 30 56 56 3 0 0 0 0 0 0 0 0 0 3 81 86 86 23 28 90 7 1 0 5 5 5 5 5 5 5 5 5 4 0 0 0 0 0 2 3 5 6 79 99 100 5 53 88
0 0 0 0 0 0 0 0 0 0 0 0 0 1 1 3 12 27 99 100 8 1 5 5 5 5 5 5 5 5 5 5 5 2 1 2 3 5 5 5 13 10 5 21 96 19 76 5 27
0 0 0 0 0 0 0 0 0 0 0 0 0 0 0 0 5 15 75 0 0 0 5 5 5 7 13 64 9 30 49 39 52 7 5 5 5 5 56 75 7 11 99 51 97 17 0 0 1
0 0 0 0 0 0 0 0 0 0 0 0 0 0 0 0 5 2 0 2 0 3 5 5 19 67 46 31 80 96 95 44 5 5 5 26 63 67 6 5 52 100 28 5 0 0 4 0 3
0 0 0 0 0 0 0 0 0 0 0 0 0 2 4 3 1 1 2 5 5 12 45 5 82 100 5 84 100 58 5 5 10 36 70 56 74 6 5 47 97 5 9 50 5 5 4 5 0
0 0 0 0 0 0 0 0 0 0 0 3 5 5 5 5 0 4 5 48 81 98 69 97 94 5 77 99 100 40 61 91 100 99 30 6 4 5 5 70 39 40 78 6 94 6 5 0 0

GFSSGP_prec_cloud_006.txt.gz
Cloud_Cover
0 0 0 0 0 0 1 1 4 0 26 86 98 100 100 99 100 100 100 99 100 100 100 100 100 100 94 99 99 100 100 86 97 99 98 92 54 82 63 100 70 16 5 0 0 3 0 0 0
100 72 5 0 0 0 3 0 2 38 4 12 86 97 98 100 100 55 100 100 100 100 100 93 99 100 100 100 68 91 72 88 70 95 94 27 82 28 50 30 2 3 0 5 0 1 0 0 0
14 100 100 36 1 7 67 6 100 0 3 18 99 99 100 100 100 100 100 100 100 100 100 99 100 100 100 100 99 100 96 100 100 100 22 71 84 34 5 8 6 3 3 3 0 0 0 0 4
5 36 52 0 5 25 2 10 24 5 40 100 100 100 100 100 90 100 100 100 100 100 100 100 100 100 100 100 100 100 100 100 96 90 20 5 1 96 6 70 20 3 5 0 0 0 4 4 5
5 5 0 5 69 4 0 2 18 66 40 92 91 98 100 100 100 100 100 100 100 100 100 100 100 100 100 100 98 100 100 29 4 51 82 97 4 8 58 34 5 4 4 5 17 5 5 5 4
5 11 9 7 65 5 5 2 49 97 64 100 85 100 100 99 100 100 100 100 100 100 100 100 100 100 100 100 100 87 24 94 93 100 85 71 96 95 19 6 5 23 6 8 24 5 5 6 5
6 8 10 10 10 5 37 4 80 89 100 100 100 100 100 98 100 100 100 100 100 100 100 100 100 100 100 100 100 100 95 100 100 60 95 100 76 100 5 5 5 78 84 50 5 18 10 5 5
7 5 5 5 40 64 98 24 8 100 100 100 100 100 100 97 100 100 100 100 100 100 100 100 100 99 100 93 100 100 100 100 100 100 100 100 86 74 80 80 83 5 5 5 5 46 2 3 3
100 24 71 78 86 73 61 85 100 100 100 100 100 100 100 100 100 100 100 100 100 100 100 100 100 100 100 100 100 100 100 100 100 100 100 63 85 48 100 100 98 14 5 5 5 3 1 4 0
100 95 96 99 100 100 100 100 100 100 84 96 100 97 100 100 98 100 100 100 100 100 100 100 100 100 100 100 100 100 100 100 100 100 69 100 100 100 100 46 8 5 5 12 5 1 5 0 0
100 75 90 100 100 100 100 97 60 16 100 100 100 100 100 100 100 98 100 100 100 100 100 100 100 79 86 100 100 100 100 100 100 100 100 100 100 51 97 100 78 29 22 5 0 1 0 0 0
100 100 100 100 100 100 100 98 84 82 97 98 19 100 100 100 76 100 88 100 100 100 100 100 100 100 100 100 100 100 100 100 100 100 100 90 97 100 100 98 85 5 5 5 5 2 0 0 0
100 100 100 100 100 100 100 100 100 100 100 92 76 92 87 100 53 80 100 100 98 90 100 100 100 100 100 100 100 100 100 100 100 99 76 83 94 100 100 100 83 90 100 12 6 66 28 1 25
100 100 100 100 100 100 100 100 100 100 100 100 100 100 100 55 91 100 78 96 100 100 100 100 100 100 100 99 99 95 92 100 100 100 100 100 100 100 100 100 91 63 100 65 84 89 82 98 98
100 100 100 100 100 88 100 100 100 100 100 100 100 100 100 100 100 100 100 100 100 82 94 100 62 72 70 44 96 100 100 100 100 100 100 82 74 99 100 100 100 95 98 98 100 100 100 100 100
100 100 100 100 100 100 100 100 100 100 100 100 100 100 100 100 100 100 100 100 100 100 68 68 44 98 99 100 98 100 100 100 100 100 100 100 100 100 100 100 100 100 100 100 100 100 100 79 37
100 100 100 100 100 95 100 100 100 89 97 100 100 100 39 39 67 56 54 73 69 57 88 75 94 90 91 97 97 100 100 100 100 100 100 86 94 99 100 100 100 100 100 98 20 4 4 5 2
100 100 100 100 100 98 95 100 100 85 45 99 21 39 68 68 61 20 75 99 98 95 99 52 44 98 44 25 51 97 100 99 74 60 5 12 88 100 99 10 5 16 6 0 0 2 4 5 5
100 100 100 100 98 98 96 71 75 63 16 25 49 49 86 96 99 98 75 65 59 54 56 62 55 17 5 11 16 12 8 3 5 5 0 0 0 0 0 0 0 0 0 0 4 5 5 5 4
100 100 100 100 100 26 40 40 60 38 30 32 57 77 42 6 9 40 31 39 35 5 5 7 46 21 5 5 5 5 4 0 0 0 0 0 0 0 0 0 0 0 0 5 5 5 5 5 5
100 94 88 85 90 44 12 5 5 0 3 5 62 43 20 6 5 18 30 15 26 76 67 60 5 5 6 73 0 0 0 0 0 2 2 0 0 0 0 0 0 0 5 5 0 3 5 5 5
100 100 88 92 84 50 7 84 0 0 0 0 2 5 5 9 5 51 50 36 22 5 5 5 45 17 6 0 0 0 5 3 5 5 5 5 4 0 0 0 0 0 0 0 1 5 5 2 0
99 63 51 40 10 15 5 1 4 0 5 26 23 5 3 0 5 5 6 100 5 5 7 77 56 10 0 5 5 5 5 5 5 5 5 5 5 5 0 0 0 0 0 1 0 0 2 5 5
5 25 15 28 18 4 0 4 71 62 9 0 0 0 0 0 0 5 5 20 90 5 5 7 0 0 5 5 5 5 5 5 22 5 5 5 5 1 0 0 0 0 0 1 16 5 18 20 100
49 47 5 24 5 8 16 2 0 0 0 0 0 0 0 1 5 5 40 53 5 5 5 1 5 5 5 5 12 43 6 22 8 5 5 2 0 0 0 0 3 13 38 69 58 75 45 61 86
5 17 55 6 4 0 0 0 0 0 0 0 0 0 0 0 5 3 5 5 5 5 7 4 5 5 5 5 15 100 39 5 8 58 40 0 5 5 5 42 48 8 84 76 87 100 99 97 94
60 8 0 0 0 0 0 0 0 0 0 0 0 0 0 0 4 3 5 5 5 3 4 4 5 9 33 44 93 100 10 7 76 7 5 5 9 27 8 10 28 100 100 94 100 89 97 98 41
0 0 0 0 0 0 0 0 0 0 0 0 0 0 5 5 5 5 5 5 2 5 5 7 70 100 100 100 78 5 7 76 5 8 42 23 30 5 12 34 74 48 66 99 98 98 100 92 98
0 0 0 0 0 0 0 2 0 0 0 1 5 6 5 5 5 5 3 4 5 5 63 100 100 100 82 79 87 41 18 38 10 5 5 5 5 5 5 5 5 41 93 100 60 96 100 100 100
0 0 0 3 4 0 0 5 2 0 0 5 5 5 5 5 5 5 5 27 96 99 100 100 100 86 86 100 74 30 16 5 5 5 5 5 23 32 5 5 5 83 94 85 53 100 100 100 100

GFSSGP_prec_cloud_009.txt.gz
Cloud_Cover
0 0 1 0 0 0 0 10 10 59 42 27 11 44 5 98 92 100 93 97 100 98 100 100 100 100 90 90 42 18 22 5 5 9 11 92 6 7 15 92 82 100 54 100 96 3 0 0 0
5 5 5 4 4 3 42 93 2 4 56 52 57 23 33 59 33 54 82 100 100 100 100 100 100 100 72 69 21 58 75 62 20 77 87 100 98 98 95 100 100 67 78 6 2 0 0 0 0
99 100 77 88 5 33 98 100 2 89 24 8 1 0 1 18 25 32 91 95 88 100 100 100 100 100 100 96 86 86 29 76 91 100 83 82 5 7 25 15 7 3 4 5 4 2 1 2 0
83 100 100 100 78 68 9 52 0 70 62 0 6 87 42 85 19 39 36 100 100 87 100 100 100 100 100 100 100 87 97 62 100 92 100 100 29 8 24 6 10 36 35 5 8 3 2 5 24
100 100 100 100 100 96 9 10 100 22 96 90 57 42 99 100 75 54 100 100 100 100 100 100 100 100 100 100 100 100 100 90 98 100 97 71 62 59 72 85 100 21 24 53 48 4 100 6 3
63 13 4 5 69 74 34 32 16 100 100 100 88 11 18 79 98 83 98 100 100 100 100 100 100 100 100 100 100 100 100 100 100 100 100 85 100 100 100 100 91 100 98 5 15 50 31 70 10
44 78 91 100 100 93 62 26 38 5 100 99 99 100 36 28 36 73 81 100 100 100 100 100 100 100 100 100 100 100 100 100 100 100 100 100 100 98 100 77 96 100 97 88 92 75 5 15 5
100 98 100 100 100 97 90 90 5 4 93 13 37 100 100 57 10 67 100 100 100 100 100 100 100 100 100 100 100 100 100 100 100 100 100 100 100 100 100 100 82 98 100 100 100 5 9 5 5
91 43 98 100 85 36 96 73 63 25 8 100 99 81 100 100 98 84 56 100 100 100 100 100 100 100 100 100 100 100 100 100 100 100 100 100 99 100 100 100 100 100 100 99 64 91 5 5 4
100 100 100 51 44 98 98 73 98 47 15 56 69 46 37 100 100 100 38 49 100 100 100 100 100 100 100 100 100 100 100 100 100 100 100 100 100 100 100 100 100 100 100 42 13 5 4 2 0
100 100 97 99 100 100 99 95 90 100 82 100 91 26 99 97 100 100 100 100 100 100 100 100 100 100 100 100 100 100 100 100 100 100 100 100 100 100 100 100 98 66 35 22 6 18 5 3 4
100 100 100 100 100 100 100 99 63 74 100 100 70 5 5 96 78 27 60 99 100 100 100 100 100 100 100 100 100 100 100 100 100 100 100 100 100 100 100 100 100 83 100 10 21 29 5 6 5
99 100 100 84 100 100 76 100 100 45 97 100 76 40 100 11 100 100 11 5 49 92 100 98 100 100 100 100 98 100 100 100 100 100 100 100 100 100 100 100 93 100 96 98 100 80 96 67 5
100 100 100 100 100 100 100 100 97 84 80 86 13 8 100 100 90 92 100 79 5 38 96 98 100 68 99 99 100 100 100 100 100 100 100 100 99 92 100 81 68 94 96 78 93 84 87 89 100
100 100 100 100 100 100 100 100 100 100 100 100 100 100 86 100 100 100 100 100 100 100 100 90 96 100 100 100 100 100 100 100 100 100 100 100 100 97 100 100 100 100 99 96 100 100 100 100 100
100 100 100 100 100 100 84 100 82 88 100 100 100 16 58 97 100 100 100 100 100 100 100 100 100 100 96 39 81 100 88 98 100 100 100 100 100 98 96 99 82 26 48 54 81 88 84 87 68
100 100 100 100 100 91 93 100 100 35 100 97 58 100 100 100 98 90 94 100 100 100 100 100 100 89 80 100 100 88 37 10 16 16 73 41 28 25 3 0 0 0 0 0 0 0 0 2 0
100 100 100 100 91 67 93 100 100 79 66 100 95 100 100 100 81 93 75 95 89 56 40 49 64 72 98 25 7 23 62 74 62 68 71 10 3 0 0 0 0 0 0 0 1 0 0 1 4
100 100 100 98 100 100 100 100 19 11 97 97 65 75 61 74 91 37 20 29 38 26 16 16 8 49 80 47 17 36 100 64 10 5 0 0 0 0 0 0 0 0 0 0 0 5 5 5 0
100 100 98 100 100 100 82 85 38 13 19 50 88 72 60 40 8 31 29 13 22 60 88 80 61 83 90 89 36 5 2 0 0 0 0 0 5 2 0 0 0 0 0 0 1 5 5 5 0
100 100 100 100 100 79 100 76 81 80 45 7 2 5 10 10 11 5 5 11 61 59 81 93 42 8 54 64 19 0 0 0 1 2 2 3 0 2 3 0 0 0 0 4 0 5 5 5 5
100 100 100 100 74 96 9 97 94 44 1 5 5 4 1 0 4 18 51 96 100 100 31 5 5 5 5 4 0 0 9 22 3 5 5 5 5 5 5 4 0 0 2 2 4 5 4 5 5
100 100 100 100 6 100 100 4 100 99 1 5 4 3 8 51 28 10 72 88 28 5 5 6 5 5 5 0 0 0 4 5 6 5 5 5 5 5 5 0 0 0 0 4 5 5 5 5 6
100 100 100 47 98 66 6 100 100 90 92 20 5 3 1 0 18 29 13 3 5 5 5 5 5 5 0 0 0 3 5 12 98 64 16 5 5 4 0 0 0 0 0 5 5 81 47 94 92
100 100 68 83 99 12 67 6 73 84 70 4 0 0 0 0 0 0 0 3 5 5 5 5 5 0 1 3 5 5 5 97 62 100 13 5 5 2 0 0 2 1 5 6 5 22 100 95 100
13 99 16 100 94 89 48 4 46 0 0 0 0 0 0 0 0 0 0 0 0 5 5 5 5 5 0 0 5 5 52 93 99 9 5 5 5 5 5 4 5 5 70 49 18 14 32 94 87
63 5 6 29 45 1 0 19 75 0 0 0 1 0 0 0 0 0 0 0 1 5 5 5 5 3 5 5 5 56 67 100 86 6 5 5 5 5 5 5 5 28 68 18 11 22 26 100 46
5 5 3 0 0 3 63 80 31 0 0 0 2 0 0 0 4 0 5 5 5 5 5 5 5 28 50 25 13 7 98 98 77 21 5 5 5 5 5 21 74 22 100 36 30 99 62 100 99
3 0 0 1 13 5 2 28 0 0 0 0 0 2 0 5 5 5 5 5 5 5 5 5 5 11 5 94 7 51 98 99 5 5 5 5 5 5 15 69 82 28 78 99 79 92 24 99 91
0 5 5 0 0 0 0 0 0 4 2 5 5 5 8 6 5 5 5 5 5 19 63 40 5 5 56 90 44 88 100 7 13 6 11 48 8 40 98 100 99 78 99 81 49 86 70 41 100

GFSSGP_prec_cloud_012.txt.gz
Cloud_Cover
3 0 0 0 0 0 0 0 0 98 16 1 0 3 13 97 93 55 74 95 100 100 100 100 97 94 99 98 100 17 10 13 88 12 40 3 5 34 63 91 9 37 95 66 28 58 50 5 10
8 4 5 1 0 0 2 45 100 3 68 2 0 0 2 18 32 62 24 62 100 100 100 100 79 36 88 100 90 100 97 100 100 48 16 66 52 65 100 56 25 14 6 5 2 4 5 5 2
7 90 17 5 5 4 32 94 100 61 3 1 0 1 74 5 76 100 63 95 96 49 98 100 52 40 83 100 100 96 100 100 100 100 100 100 100 100 100 10 10 95 6 16 5 40 5 0 8
91 73 100 13 5 5 82 42 6 17 8 7 35 5 1 2 1 58 98 83 62 86 63 91 81 100 100 100 100 100 100 100 100 100 100 100 100 100 100 80 99 76 34 100 100 100 67 20 67
100 100 100 100 100 100 100 7 21 1 100 91 100 16 5 0 1 61 100 63 13 47 100 100 100 100 100 100 100 100 100 100 100 100 100 100 100 74 100 100 95 90 100 100 100 100 43 92 92
49 97 99 97 79 100 100 2 5 59 100 100 100 100 60 1 10 75 74 34 94 100 100 100 100 100 100 100 100 100 100 100 100 100 100 100 100 93 100 100 100 100 100 100 100 100 100 100 100
100 100 100 100 100 99 83 34 0 19 100 100 100 100 100 88 4 29 45 99 100 100 100 100 100 100 100 100 100 100 100 100 100 100 100 100 100 100 100 96 100 100 100 100 99 86 100 100 100
100 100 27 39 9 93 100 98 90 49 100 93 100 29 62 46 100 86 60 100 100 100 100 100 100 100 100 100 100 100 100 100 100 100 100 100 100 100 100 100 100 100 100 100 100 100 98 100 33
29 40 100 100 96 100 100 100 73 94 100 43 23 45 100 100 100 28 80 93 100 100 100 100 100 100 100 100 100 100 100 100 100 100 100 100 100 100 100 100 100 100 100 100 100 100 93 22 26
100 100 95 78 100 100 100 100 100 100 94 72 5 100 100 100 100 100 78 100 100 100 100 100 100 100 100 100 100 100 100 100 100 100 100 100 95 96 100 100 100 100 100 100 91 99 100 39 5
100 79 100 24 89 100 100 100 100 75 94 95 100 77 100 100 100 100 100 100 100 100 100 100 100 100 100 100 100 100 100 100 100 100 100 100 100 100 100 100 100 100 100 86 64 10 100 71 32
100 98 100 93 100 100 100 92 100 95 34 100 100 100 100 25 75 100 100 100 100 100 100 100 100 100 100 100 100 100 100 100 100 100 100 100 100 100 100 100 100 100 97 100 100 100 97 52 12
100 100 98 100 100 100 66 87 62 32 100 100 100 100 100 100 100 84 40 100 100 100 100 100 100 100 100 100 100 100 100 100 100 100 100 100 100 100 100 100 96 76 51 67 100 100 46 5 5
100 100 100 100 100 100 100 100 4 18 100 100 100 100 84 100 21 74 75 12 92 100 100 100 100 100 100 100 100 100 100 100 100 100 100 100 100 100 100 71 93 100 100 100 98 100 86 86 50
100 100 100 100 100 100 100 97 36 11 59 94 100 100 100 100 49 52 88 44 20 94 75 92 100 100 100 100 100 100 100 100 100 100 100 100 87 90 71 88 15 30 37 39 92 22 2 0 1
100 100 100 100 100 100 100 99 43 99 99 28 40 93 99 84 6 9 90 100 84 5 5 57 100 100 100 100 100 100 100 90 98 98 92 60 92 58 28 14 5 5 5 2 0 0 0 0 0
100 100 100 100 100 100 55 100 100 92 100 100 100 87 18 85 91 25 33 93 81 100 100 100 100 100 100 100 100 98 82 90 64 100 100 100 88 43 10 5 4 0 0 0 0 0 0 0 0
100 100 100 85 45 100 57 100 100 100 99 100 99 7 12 28 54 100 100 90 8 73 99 100 100 100 100 98 100 99 96 100 100 95 99 87 19 6 2 0 0 0 0 0 0 0 0 0 4
100 100 78 100 74 68 92 19 5 99 100 100 100 100 73 91 97 100 100 86 33 24 5 6 8 81 68 80 100 100 77 66 38 44 30 4 1 0 0 0 0 0 0 0 0 0 0 0 0
100 100 100 81 92 97 100 100 100 100 76 13 16 33 5 5 5 5 5 5 5 6 51 24 16 18 46 83 6 5 5 6 4 0 0 0 0 0 0 0 0 0 0 0 0 0 0 0 5
100 100 88 84 67 100 100 100 100 18 5 36 30 24 6 6 4 5 5 21 65 100 100 49 100 5 23 5 5 5 0 0 0 0 0 0 3 4 2 0 0 0 0 0 0 0 0 5 5
100 25 90 96 100 100 100 98 99 97 88 79 1 1 5 56 5 4 2 16 35 100 100 52 94 25 5 5 5 1 0 0 0 0 4 4 5 5 5 4 0 0 0 0 0 0 0 2 5
96 98 48 100 95 100 100 67 84 73 98 36 2 3 0 0 2 5 5 100 100 100 100 100 31 5 5 5 5 0 0 0 0 4 5 5 8 41 34 5 0 0 0 0 0 2 5 5 5
60 87 21 84 100 100 100 100 83 100 100 98 100 99 33 34 4 11 12 41 26 89 28 11 0 5 5 5 2 0 0 0 0 5 21 90 14 5 5 5 5 5 5 5 3 5 5 5 22
100 100 92 95 100 99 85 100 100 100 100 100 100 100 11 0 0 37 83 65 100 70 0 0 0 4 5 5 3 5 5 5 5 5 5 56 100 42 5 5 5 5 5 5 5 5 5 5 5
86 98 100 100 85 57 63 47 100 71 35 19 100 58 0 25 29 25 78 82 14 0 0 0 0 5 5 18 78 48 6 5 5 9 36 94 100 73 5 5 5 5 5 8 50 5 5 42 10
19 100 49 62 98 76 91 67 5 4 3 37 0 0 0 0 3 0 25 0 0 0 0 0 0 15 100 100 11 5 5 8 8 93 96 100 27 6 5 5 5 6 5 5 5 24 12 9 66
88 51 14 22 9 12 52 24 72 41 21 0 0 0 0 0 0 0 0 0 0 5 5 4 5 52 100 78 5 5 24 77 74 92 90 100 65 5 5 5 15 5 5 56 57 9 99 89 11
11 63 9 5 32 53 0 26 73 3 0 0 0 4 0 0 0 0 0 0 0 0 1 5 7 100 100 8 5 5 62 85 91 97 100 94 5 5 5 5 5 14 82 87 6 14 36 69 24
26 73 9 2 0 1 4 0 0 0 0 0 0 0 0 0 0 0 0 3 5 5 5 29 100 94 6 5 5 41 88 100 100 45 59 5 5 5 8 6 5 81 69 92 5 3 5 18 44

GFSSGP_prec_cloud_015.txt.gz
Cloud_Cover
94 96 5 0 0 0 2 2 4 5 0 1 2 5 3 7 2 28 92 86 9 71 100 100 100 100 91 99 100 100 98 93 100 91 32 56 100 100 100 84 23 14 100 96 7 5 0 0 0
90 100 42 1 0 0 5 5 2 0 0 3 3 26 44 22 5 78 82 89 100 100 100 100 100 100 100 100 100 100 100 68 96 100 100 100 100 100 100 100 71 100 100 100 88 3 8 5 3
100 100 97 78 1 0 4 5 2 4 42 1 0 58 100 45 1 49 24 24 26 31 91 100 70 72 99 100 100 100 100 71 100 98 100 100 100 100 100 100 100 100 100 99 72 64 90 4 7
100 49 100 69 63 69 100 62 5 2 3 3 3 3 0 18 9 0 88 100 99 85 100 57 36 40 100 100 100 100 100 100 99 100 100 100 100 100 100 100 100 80 99 91 98 99 5 84 100
94 100 54 100 100 99 100 84 43 13 43 13 25 90 100 86 0 0 69 100 99 100 100 91 99 100 100 100 100 100 100 100 100 100 100 100 100 100 100 100 100 100 100 98 98 100 100 52 99
4 89 96 100 100 100 97 42 45 29 4 0 26 100 84 33 17 95 89 100 100 100 100 100 100 100 100 100 100 100 100 100 100 100 100 100 100 100 100 100 100 100 100 100 100 100 100 100 100
98 100 100 100 100 100 99 57 58 83 0 4 36 100 38 85 100 100 100 100 100 100 100 100 100 100 100 100 100 100 100 100 100 100 100 100 100 100 100 100 100 100 100 89 100 100 100 100 100
55 100 100 100 100 99 7 95 98 100 5 80 72 65 63 99 84 100 100 92 100 100 100 100 100 100 100 100 100 100 100 100 100 100 100 100 100 100 100 100 100 100 100 100 100 100 8 100 100
100 100 100 100 100 99 97 100 100 100 97 100 100 84 100 80 82 100 89 66 83 100 100 100 100 100 100 100 100 100 100 100 100 100 100 100 100 100 100 100 100 99 100 100 100 20 100 100 100
100 100 100 89 83 96 100 100 100 100 100 84 6 53 98 100 100 100 100 100 100 100 100 100 100 100 100 100 100 100 100 100 100 100 100 100 100 100 100 100 100 100 100 91 100 100 100 100 100
100 100 100 92 90 100 100 99 99 100 100 49 85 100 100 100 100 100 99 100 100 100 100 100 100 100 100 100 100 100 100 100 100 100 100 100 100 100 100 100 100 100 100 100 100 75 28 100 100
100 100 100 100 100 100 100 100 100 46 33 66 100 100 100 100 100 100 100 100 100 100 100 100 100 100 100 100 100 100 100 100 100 100 100 100 100 100 100 100 100 100 100 100 100 100 100 100 100
100 100 100 69 100 100 100 100 100 100 100 10 99 60 100 100 100 100 100 100 100 100 100 100 100 100 100 100 100 100 100 100 100 100 100 100 100 100 100 100 100 100 100 100 100 100 100 100 100
100 100 100 100 100 100 100 100 100 100 95 100 89 100 100 100 100 100 100 100 100 100 100 100 100 100 100 100 100 100 100 100 100 100 100 100 100 100 100 100 100 100 100 100 95 100 100 32 2
98 98 100 100 100 100 100 100 100 100 100 77 100 86 100 67 100 48 100 100 100 100 100 100 100 100 100 100 100 100 100 100 100 100 100 100 100 100 100 100 100 100 100 100 58 11 6 3 2
100 100 100 100 100 100 100 100 100 12 2 2 79 100 100 100 41 50 99 84 11 13 76 92 100 100 100 100 100 100 100 100 100 100 100 100 100 100 100 100 91 53 40 29 4 0 0 0 0
100 100 100 100 100 100 100 97 81 48 85 10 73 100 100 100 100 100 100 100 53 45 16 37 80 100 100 100 100 100 100 100 100 100 100 100 100 100 100 100 91 14 5 5 5 5 2 0 0
100 100 100 100 100 35 97 67 100 100 100 100 100 82 57 29 61 28 50 86 38 87 55 10 29 100 100 100 100 100 100 96 99 94 91 100 95 100 89 70 29 5 5 4 0 0 0 0 0
100 100 100 100 87 24 100 100 23 100 100 100 100 100 100 100 100 80 8 63 79 100 100 100 69 85 45 36 100 100 100 100 100 100 100 100 65 5 3 5 5 1 0 0 0 0 0 0 0
100 94 93 100 100 46 100 100 98 100 100 100 100 100 100 100 6 28 47 35 24 80 100 92 5 12 68 62 34 32 17 18 54 25 14 7 5 4 0 0 1 0 0 0 0 0 0 0 0
92 98 100 100 100 85 28 56 99 100 100 100 90 50 96 5 2 6 5 4 5 4 10 26 13 26 39 92 18 6 15 5 4 1 0 0 0 2 1 4 0 0 0 0 0 0 0 0 0
69 82 96 82 34 88 34 100 94 99 42 52 94 81 5 5 0 0 2 5 5 2 2 5 4 70 14 83 18 6 2 0 0 0 0 0 1 5 5 5 5 2 0 0 0 0 0 0 0
81 74 46 54 97 93 100 99 21 42 100 100 68 2 27 57 0 0 0 0 2 73 100 100 100 100 36 0 5 5 5 2 0 0 0 0 5 5 5 5 89 63 2 0 0 0 0 1 4
100 89 98 99 38 94 100 59 85 73 90 91 100 98 96 70 5 92 4 4 1 99 100 100 100 100 7 3 4 5 5 5 2 0 2 5 5 5 5 7 61 2 2 1 0 0 1 5 9
100 95 18 100 100 99 39 100 100 55 40 96 100 100 37 34 7 29 0 0 0 24 98 100 100 86 1 0 4 5 5 5 5 4 5 5 6 5 5 5 29 5 5 4 1 0 0 1 0
100 75 85 98 100 100 100 100 81 22 50 100 100 63 11 65 57 45 0 4 100 29 1 58 59 0 2 5 5 32 79 100 77 56 92 71 74 20 51 46 58 1 0 0 2 0 3 0 3
99 98 60 97 100 100 92 98 99 15 34 24 38 8 90 13 78 7 100 99 100 4 55 15 0 0 1 5 5 97 100 59 7 97 56 5 29 94 55 5 5 5 5 3 5 5 5 4 5
100 93 84 32 99 100 100 66 3 33 9 10 0 0 36 82 8 2 2 0 8 47 44 75 10 0 0 5 19 95 40 43 48 81 80 91 87 84 23 100 100 5 12 62 50 5 6 93 83
6 40 9 5 69 100 45 62 31 5 5 1 0 0 0 0 0 0 0 0 0 0 0 0 0 0 0 5 15 17 22 97 75 62 100 81 99 77 100 83 13 35 94 97 99 86 88 94 32
5 24 5 53 5 60 5 8 2 4 5 4 0 0 0 0 0 0 0 0 0 0 0 4 0 13 100 92 5 13 98 100 98 77 100 100 100 100 100 60 100 92 99 100 100 82 59 42 99

GFSSGP_prec_cloud_021.txt.gz
Cloud_Cover
0 0 0 0 9 5 0 0 0 2 26 5 11 9 4 48 38 99 86 96 93 99 44 6 3 20 61 88 87 100 99 94 100 100 100 100 100 79 80 98 8 5 61 21 5 10 6 58 28
0 2 17 0 76 53 38 5 2 1 27 7 15 48 32 63 95 100 100 71 90 85 75 2 5 5 6 85 67 100 96 100 100 100 100 100 100 78 6 13 46 92 87 5 5 5 85 83 50
0 0 13 22 52 95 84 10 5 42 3 2 83 63 5 90 94 99 98 100 100 100 47 16 18 5 5 92 100 100 100 100 100 100 100 100 100 100 81 87 100 59 71 94 77 10 36 58 50
0 3 13 100 69 100 97 5 6 6 5 0 5 49 30 100 100 100 100 84 100 100 59 78 77 100 100 100 100 100 100 100 100 100 100 100 100 100 100 99 91 97 99 100 99 90 36 100 94
0 11 100 100 99 100 99 8 5 5 4 4 90 77 83 100 91 83 100 100 100 100 100 94 100 100 100 100 100 100 100 100 100 100 100 100 100 100 100 100 96 92 100 99 43 94 10 5 18
0 1 99 100 100 100 59 5 5 4 0 81 100 98 96 100 100 97 100 100 100 100 100 100 100 100 100 100 100 100 100 100 100 100 100 100 100 99 100 71 100 94 99 53 99 81 88 12 9
0 0 14 100 90 100 72 43 0 0 41 88 100 98 100 100 100 100 100 100 100 100 100 100 100 100 100 100 100 97 99 100 100 100 100 100 100 100 100 100 100 87 100 100 98 46 37 20 30
0 0 0 99 99 100 100 22 8 15 100 100 100 100 100 100 100 100 100 100 100 100 100 100 100 100 100 100 100 100 100 100 100 100 100 100 100 100 100 100 100 99 47 100 100 77 28 55 99
0 1 0 58 100 100 94 62 1 100 100 100 100 100 83 100 100 100 100 100 100 100 100 100 100 100 100 100 100 100 100 100 100 100 100 100 100 100 100 100 86 100 100 100 100 100 86 100 87
43 9 4 61 97 95 100 90 98 100 100 100 100 100 100 100 99 100 100 100 100 100 100 100 100 100 100 100 100 100 100 100 100 100 100 100 100 100 100 100 100 100 100 100 100 98 100 100 100
84 100 5 61 90 100 100 100 100 100 100 100 100 100 100 100 100 100 100 100 100 100 100 100 100 100 100 100 100 100 100 100 100 100 100 100 100 100 100 100 100 100 100 79 100 100 100 100 98
35 12 98 99 100 100 100 100 100 100 98 74 100 100 86 100 100 100 100 100 100 100 100 100 100 100 100 100 100 100 100 100 100 100 100 100 100 100 100 100 100 100 91 100 100 100 100 100 21
100 100 45 100 100 100 100 100 100 100 100 98 87 100 100 100 100 100 100 100 100 100 100 100 100 100 100 100 100 100 100 100 100 100 100 100 100 100 100 100 100 100 100 100 100 100 100 100 100
100 99 82 100 100 100 100 100 100 100 100 93 100 100 100 100 100 100 100 100 96 84 100 100 100 100 100 100 100 100 100 100 100 100 100 100 100 100 100 100 100 100 100 100 100 100 100 100 100
94 100 100 100 100 100 100 100 100 100 100 100 100 100 100 100 100 100 100 100 100 66 98 81 100 100 100 100 100 100 100 100 100 100 100 100 100 100 100 100 100 100 100 100 100 100 100 100 100
100 100 100 100 100 100 100 100 100 94 100 100 100 100 100 100 100 100 100 100 100 100 90 100 85 99 67 98 46 97 100 75 100 100 100 100 100 100 100 100 100 100 100 100 100 100 100 100 100
90 100 100 100 100 100 100 100 100 100 100 100 100 100 100 100 100 100 100 100 100 100 100 100 100 92 100 100 100 100 100 100 100 100 100 100 100 100 100 100 100 100 100 100 100 97 100 96 52
62 19 100 100 100 100 100 100 89 100 100 100 100 100 100 100 100 100 100 100 100 100 100 100 100 100 100 100 100 100 100 100 100 100 100 100 100 100 100 100 100 100 95 36 15 49 54 24 3
100 96 93 100 100 100 100 100 84 100 100 100 100 100 100 100 100 100 100 100 100 100 100 100 100 100 100 100 100 100 100 100 100 100 100 100 100 39 97 98 22 5 6 36 25 2 0 0 0
100 100 94 100 100 61 100 100 100 100 99 8 44 100 97 87 50 81 100 100 100 100 100 100 100 100 100 100 98 97 93 88 14 20 24 5 12 29 6 5 5 5 2 0 0 0 0 0 0
99 100 100 100 100 100 100 100 100 100 100 99 90 100 100 89 5 7 78 100 100 100 100 38 13 7 13 5 4 5 5 5 5 24 67 36 5 5 4 1 0 0 0 4 1 2 3 12 5
100 99 82 100 99 100 94 100 100 98 39 67 100 100 100 100 20 5 5 30 70 14 54 92 40 14 5 5 4 5 5 5 49 86 72 81 5 5 5 5 5 5 5 12 68 92 69 17 5
100 100 58 62 27 76 98 76 99 65 100 100 96 56 34 69 60 27 5 5 85 69 12 35 33 3 0 8 6 6 22 5 32 97 96 43 5 5 5 5 5 5 5 52 66 71 90 27 5
66 100 100 89 89 62 95 100 100 84 100 78 84 51 6 59 71 79 8 17 32 6 0 1 2 2 100 100 100 69 5 11 5 75 47 5 9 83 14 5 5 5 97 99 91 33 17 60 88
100 100 100 90 98 58 100 66 8 87 94 83 24 5 39 5 7 5 5 9 35 97 11 11 5 19 12 24 9 100 99 60 6 5 53 8 80 88 29 5 78 72 100 98 91 13 83 99 91
83 100 100 100 100 99 95 95 11 83 35 43 82 98 87 68 100 85 5 68 100 100 100 100 5 99 23 35 96 100 100 100 99 100 100 100 89 51 92 94 100 100 100 97 100 82 91 91 97
98 46 7 5 97 81 18 62 5 27 14 5 5 28 26 6 41 7 5 96 96 100 100 75 100 100 81 59 22 44 92 96 98 47 99 100 99 90 100 100 100 80 100 100 100 100 100 80 73
100 5 5 5 10 5 45 66 100 41 88 5 43 6 5 6 17 88 95 25 8 9 5 1 12 0 24 14 5 13 8 25 88 100 100 100 88 100 100 100 100 100 97 93 96 100 92 50 46
99 30 25 25 8 5 7 99 68 8 30 98 44 2 5 5 5 4 4 0 0 0 0 0 0 0 0 6 18 6 13 61 85 99 64 100 100 100 100 100 100 100 100 100 99 63 33 89 95
97 73 89 23 50 5 4 5 0 5 5 97 7 0 4 0 0 0 0 0 0 3 5 5 1 3 5 35 5 12 78 17 89 73 100 100 100 100 100 100 100 100 100 100 100 100 99 18 33

GFSSGP_prec_cloud_027.txt.gz
Cloud_Cover
0 0 0 0 0 0 3 2 17 1 0 6 0 1 54 55 67 100 100 100 99 77 51 13 14 19 5 5 5 5 5 49 5 92 87 5 5 68 65 90 62 15 77 11 3 5 5 4 3
0 0 0 0 0 1 32 38 67 14 2 0 10 31 11 83 100 97 100 100 100 93 89 35 8 5 32 5 5 72 95 82 24 82 82 85 14 88 95 100 90 100 74 20 83 74 9 63 56
0 0 0 0 0 31 85 100 100 99 1 4 28 42 90 93 98 100 100 100 100 98 74 46 14 35 60 27 20 92 58 60 30 42 88 100 68 82 100 98 97 98 64 57 6 100 100 100 96
0 0 0 0 0 4 100 100 100 100 65 96 99 41 50 98 85 78 73 100 100 100 91 56 25 91 100 100 100 100 89 7 82 90 100 100 18 100 100 86 91 77 62 99 100 99 22 100 92
0 0 0 0 0 0 90 62 100 100 89 5 16 58 78 100 100 100 100 99 100 81 62 87 100 100 100 100 100 100 28 56 64 97 98 44 99 100 100 93 98 6 60 91 90 53 64 86 48
0 0 0 0 0 0 94 60 84 89 100 22 6 7 100 100 100 100 100 100 100 97 100 100 100 100 100 100 100 100 100 99 100 100 99 76 100 100 100 99 88 52 96 85 73 55 35 5 3
0 0 0 0 0 12 27 76 100 34 56 26 89 86 100 100 100 100 100 100 100 100 100 100 100 100 100 100 100 100 98 100 100 98 100 100 100 100 100 6 69 37 34 49 9 5 5 2 0
0 0 2 87 5 61 38 91 100 100 100 99 60 99 100 100 100 100 100 100 100 100 100 100 100 100 100 100 100 100 100 100 100 100 100 100 100 98 100 32 5 23 35 5 56 5 48 2 1
0 0 10 70 49 11 72 98 100 100 100 100 100 50 97 100 100 100 100 100 100 100 100 100 100 100 100 100 100 100 100 100 100 100 100 100 100 100 98 72 96 44 18 5 5 5 4 61 23
4 4 21 18 50 60 98 92 100 100 81 74 100 100 100 100 100 100 100 100 100 100 100 100 100 100 100 100 100 100 100 100 100 100 100 100 98 99 100 98 78 48 30 21 96 11 75 100 100
0 11 10 5 38 95 100 100 100 74 95 100 100 100 100 100 100 100 100 100 100 100 100 100 100 100 100 100 100 100 100 100 100 100 100 100 98 100 100 94 100 100 100 100 100 100 100 100 100
4 100 89 6 100 99 100 100 100 100 100 100 100 100 100 100 100 100 100 100 100 100 100 100 100 100 100 100 100 100 100 100 100 100 100 100 97 100 71 100 100 100 93 100 100 100 100 100 100
2 26 98 100 100 100 100 100 100 100 100 100 100 100 100 100 100 100 100 100 100 100 100 100 100 100 100 100 100 100 100 100 100 100 99 60 93 92 100 100 100 99 100 100 100 100 72 84 50
5 83 14 99 100 100 100 100 100 100 100 100 100 100 67 99 100 100 100 100 100 100 100 100 100 100 100 100 100 100 100 100 100 100 100 100 100 100 100 100 100 100 100 99 99 90 97 98 6
4 74 94 100 100 100 100 100 100 100 100 100 83 91 71 100 100 100 100 100 100 100 100 100 100 100 100 100 100 100 100 100 100 100 100 100 100 100 100 100 100 100 100 100 100 100 100 6 8
45 94 100 100 100 98 97 100 100 100 100 67 100 100 99 100 100 86 93 100 100 100 100 100 100 100 100 100 100 100 100 100 100 100 100 100 100 100 100 100 100 100 100 100 100 5 30 94 100
5 51 85 100 99 94 72 98 98 100 100 100 100 100 100 99 100 100 98 100 100 100 100 100 100 100 100 100 100 100 100 100 100 100 100 100 100 100 100 100 100 100 100 74 5 48 100 86 100
5 27 40 98 57 8 99 100 100 100 100 100 100 100 100 100 100 100 100 100 100 100 100 100 100 100 100 100 100 100 100 100 100 100 100 100 100 100 100 100 100 100 30 3 58 86 79 26 18
4 5 47 5 14 22 100 97 100 100 100 100 100 100 100 100 100 100 100 100 100 100 100 100 43 74 100 100 100 100 100 100 100 100 100 45 98 78 40 10 4 4 20 25 17 50 5 5 3
5 5 5 18 70 44 91 100 100 95 93 100 100 100 95 100 100 100 100 100 100 75 96 100 99 100 100 100 100 100 98 100 98 87 100 100 94 100 90 66 54 5 5 5 5 5 4 5 5
5 88 74 74 100 100 100 100 100 88 95 100 100 100 84 68 100 100 100 100 100 100 100 71 38 34 32 12 57 100 89 100 100 100 49 38 35 56 80 27 5 5 5 5 5 51 83 86 52
15 10 82 100 96 100 99 100 100 100 100 100 100 100 94 90 99 83 81 100 100 100 100 100 100 100 100 100 100 100 100 100 100 86 21 25 5 17 5 5 38 5 5 5 27 46 100 97 86
9 10 91 100 96 100 100 100 100 100 100 100 100 95 100 100 100 84 99 100 100 100 100 100 100 100 84 54 25 17 32 64 100 72 100 100 82 79 99 63 50 6 74 81 94 100 100 100 98
4 5 10 82 100 99 98 100 100 70 79 100 100 100 100 100 100 92 56 28 14 32 54 49 40 39 17 13 91 100 90 100 100 91 100 95 100 85 51 80 81 82 62 70 71 33 72 94 61
18 50 8 27 100 100 100 100 100 96 79 82 90 96 100 95 100 23 5 50 74 68 51 11 5 67 5 96 100 100 100 100 100 100 100 100 100 85 100 100 100 80 98 100 93 70 60 75 5
5 74 33 94 84 100 100 100 99 45 94 97 100 100 59 86 33 5 6 6 5 5 5 8 28 98 96 74 100 94 100 100 100 100 100 98 100 100 100 100 99 98 100 100 100 88 95 33 5
5 48 91 87 50 100 100 100 100 33 70 34 100 96 100 100 100 19 6 5 5 5 6 98 100 100 93 100 52 62 12 100 100 100 100 100 100 100 100 88 99 100 100 100 99 100 62 6 8
5 23 4 20 67 85 100 100 100 100 100 100 100 95 57 100 100 100 94 23 4 0 59 100 100 75 31 36 6 30 100 100 100 100 100 100 96 100 100 97 100 100 100 78 39 79 69 87 99
60 60 45 8 5 36 81 100 100 100 100 100 100 100 100 100 100 100 42 5 1 5 5 46 68 17 4 14 63 100 100 100 100 100 91 100 100 100 100 99 100 99 60 94 65 70 100 100 94
5 5 65 58 100 61 25 100 100 26 100 95 54 100 71 76 74 57 5 5 5 5 51 73 7 5 35 100 100 100 100 100 100 100 99 100 100 100 100 100 34 44 96 87 100 89 100 100 100

GFSSGP_prec_cloud_030.txt.gz
Cloud_Cover
0 0 0 0 0 0 0 0 0 0 0 0 5 3 14 48 99 97 100 100 100 100 80 5 29 76 28 5 5 5 3 4 5 5 3 100 97 6 5 5 5 5 5 2 0 12 5 5 5
0 0 0 0 0 0 1 0 3 2 59 28 1 6 2 44 87 92 99 100 99 90 98 79 80 5 5 5 5 5 5 5 5 3 5 99 100 92 5 5 58 5 5 3 3 5 4 52 45
0 0 0 0 0 1 5 0 5 11 100 27 2 1 82 91 85 94 88 94 100 100 100 100 91 5 5 36 98 56 24 78 7 8 8 100 43 93 5 18 35 5 5 5 34 17 5 46 82
0 0 0 0 0 0 0 0 92 97 100 32 0 22 100 100 100 100 100 98 100 100 100 100 100 81 18 95 93 100 100 85 6 99 87 97 94 76 68 69 63 37 37 9 21 5 19 5 99
0 0 0 0 0 0 0 61 96 52 100 46 2 2 100 100 100 100 100 100 100 100 88 100 98 67 91 64 100 100 39 43 91 100 100 100 98 100 100 96 44 100 44 6 56 94 100 75 5
0 0 0 0 0 0 0 21 5 100 92 44 13 33 100 100 100 100 100 100 100 100 100 100 100 100 100 100 97 35 68 89 100 100 100 100 99 98 95 7 55 89 24 24 50 42 84 89 6
0 0 0 0 27 45 0 85 26 100 73 96 19 64 98 100 100 100 100 100 100 100 100 100 100 100 100 100 100 100 100 100 100 100 100 100 100 100 72 82 44 24 6 97 47 96 74 5 2
0 0 60 28 44 47 62 86 72 100 100 47 4 22 94 100 100 100 100 100 100 100 100 100 100 100 100 100 100 100 100 100 100 100 100 98 100 94 100 88 44 7 32 99 93 50 5 5 0
0 1 88 12 2 0 57 95 100 95 100 100 8 75 78 100 100 71 100 100 100 100 100 100 100 100 100 100 100 100 100 100 100 100 100 100 100 100 100 100 95 64 91 81 5 5 9 10 2
0 0 12 11 82 95 74 74 92 78 100 98 83 100 100 100 100 100 100 100 100 100 100 100 100 100 100 100 100 100 100 100 100 100 100 100 100 100 100 100 100 85 5 31 10 31 96 58 18
0 7 0 2 7 7 100 100 100 92 100 100 99 100 100 100 100 100 100 100 100 100 100 100 100 100 100 100 100 100 100 100 100 100 100 100 100 100 100 100 100 95 73 99 100 84 96 78 94
3 14 93 23 4 38 79 100 100 100 100 100 100 100 100 100 100 100 100 100 100 100 100 100 100 100 100 100 100 100 100 100 100 100 100 100 100 100 100 100 100 100 100 100 100 100 100 100 68
2 4 70 59 77 84 30 98 100 100 100 100 100 100 100 98 96 100 92 99 100 100 100 100 100 100 100 100 100 100 100 100 100 100 100 100 100 100 100 100 87 100 96 100 100 100 100 96 100
0 5 5 83 100 100 100 100 100 100 100 100 100 100 100 100 100 97 100 100 100 100 100 100 100 100 100 100 100 100 100 100 100 100 100 100 100 100 100 100 100 100 98 61 73 100 100 98 68
0 38 0 98 100 100 100 100 100 100 100 100 100 100 100 100 100 100 100 100 100 100 100 100 100 100 100 100 100 100 100 100 100 100 100 100 100 100 100 100 100 97 100 100 100 100 100 100 100
0 39 98 100 99 99 71 100 94 79 100 72 89 54 45 100 100 100 100 100 100 100 95 100 100 100 100 100 100 100 100 100 100 100 100 100 100 100 100 100 98 100 100 100 100 100 100 100 84
1 100 93 66 100 98 45 16 99 71 99 59 88 98 58 16 100 100 100 100 100 100 100 100 100 100 100 100 100 100 100 100 100 100 100 100 100 100 100 94 100 100 100 100 100 100 100 92 6
100 100 90 100 50 64 65 76 41 50 88 100 84 99 100 99 100 100 100 100 100 100 100 100 100 100 100 100 100 100 100 100 100 100 100 100 100 100 100 100 100 100 99 99 30 17 8 2 3
0 2 100 53 5 5 7 61 100 54 55 82 100 100 100 100 100 100 100 100 100 100 100 100 100 91 100 100 100 100 100 100 100 100 100 100 100 100 100 100 100 100 99 5 5 5 4 0 5
0 0 23 9 6 9 91 99 85 82 53 100 6 59 100 55 100 100 100 88 100 100 100 100 100 100 95 100 100 100 100 100 100 100 100 100 100 100 100 98 82 5 2 5 5 7 5 5 5
0 25 9 24 58 96 82 80 81 49 85 80 80 96 100 13 100 51 100 32 99 100 100 70 18 16 28 87 73 74 94 100 100 100 100 100 100 100 52 6 5 5 5 5 8 15 5 34 30
5 2 3 30 100 100 100 100 100 100 100 50 85 100 100 100 47 100 100 81 38 100 64 97 100 88 16 5 7 68 42 62 9 95 100 67 34 19 6 6 12 54 51 95 100 77 68 97 55
72 5 6 100 93 100 100 100 58 98 23 15 41 100 100 58 66 73 100 98 100 100 97 100 100 100 98 100 100 100 100 100 61 64 98 72 78 89 76 48 100 100 100 92 99 67 100 44 70
0 5 5 54 50 98 100 100 100 91 22 8 66 100 100 93 50 61 64 71 30 25 32 6 23 64 56 39 16 93 83 89 52 48 100 100 63 96 100 100 100 82 96 91 94 100 100 100 75
5 2 99 100 95 100 100 100 100 100 38 54 11 53 62 100 83 100 100 100 24 5 5 5 98 100 99 72 13 26 90 97 100 100 100 100 100 100 100 100 99 100 100 100 100 100 100 100 99
25 6 87 100 97 100 100 100 100 99 100 100 39 21 73 79 85 54 40 48 13 24 24 5 96 100 84 14 67 95 100 45 100 100 100 100 100 100 100 100 100 100 100 100 100 100 100 99 46
16 2 89 83 99 96 73 100 100 97 69 95 5 5 72 7 89 100 41 5 5 5 88 42 75 100 92 100 86 48 99 100 100 100 100 100 100 100 100 100 100 100 100 100 100 100 100 90 79
72 75 10 22 97 100 100 100 100 94 77 98 45 27 63 70 47 99 44 10 21 28 6 5 5 84 100 100 80 74 75 97 100 100 100 100 100 100 94 100 100 100 100 100 100 100 75 100 65
84 30 6 74 20 100 97 100 100 90 17 5 78 95 100 100 100 99 99 100 5 5 4 2 0 70 100 100 48 86 100 99 100 100 100 100 100 100 100 100 100 100 100 100 100 100 100 100 100
98 100 92 99 84 4 18 100 100 70 23 6 67 99 100 100 100 100 100 100 65 58 4 1 0 5 99 100 19 62 100 100 100 100 100 100 100 100 100 100 100 100 100 100 100 100 94 100 100

GFSSGP_prec_cloud_033.txt.gz
Cloud_Cover
0 0 0 0 0 0 0 12 100 50 13 11 2 100 34 100 72 100 100 100 50 52 52 91 98 80 33 75 6 5 5 5 10 11 4 5 60 12 37 5 5 5 4 0 0 0 0 0 0
0 0 0 0 0 3 62 32 8 33 83 51 0 0 80 87 17 100 100 78 88 100 100 100 100 76 65 39 5 5 3 5 5 5 4 5 5 6 35 25 5 5 5 2 5 5 5 5 3
0 0 0 5 4 5 100 100 7 11 4 13 86 0 16 4 24 70 60 54 91 95 96 100 100 100 98 89 10 5 12 5 5 5 34 5 5 5 54 5 5 5 15 5 5 5 5 5 5
0 0 0 0 5 56 29 54 0 9 69 21 98 100 1 100 82 87 99 100 100 100 100 100 100 100 100 99 20 5 59 95 65 5 17 28 5 18 66 5 5 5 5 30 32 7 5 5 5
0 0 0 5 4 3 0 0 3 33 100 76 3 83 46 89 100 100 100 100 100 100 100 96 99 100 84 50 35 71 83 99 97 98 84 84 87 46 59 23 63 74 80 35 20 5 4 22 13
0 0 17 100 82 4 16 16 23 38 57 99 26 100 100 100 100 100 100 100 100 100 100 100 100 97 100 100 97 100 81 100 100 82 100 100 100 100 95 92 88 41 39 26 33 5 4 5 4
0 5 92 38 88 63 100 7 33 25 86 2 100 30 85 100 100 100 100 100 100 100 100 100 100 100 100 100 100 100 100 99 57 98 100 100 100 100 100 100 95 58 86 8 5 5 2 5 4
0 0 98 73 97 100 22 5 100 37 98 52 9 83 94 100 100 100 100 100 100 100 100 100 100 100 100 100 100 100 100 100 100 100 100 100 100 100 100 100 82 89 76 66 5 5 5 3 0
0 10 100 100 83 63 29 20 95 34 44 100 17 15 100 100 100 100 100 100 100 100 100 100 100 100 100 100 100 100 100 100 100 100 100 100 100 100 100 100 100 100 100 31 60 24 4 5 4
0 58 100 5 89 100 80 48 68 12 89 39 92 100 100 100 100 95 100 100 100 100 100 100 100 100 100 100 100 100 100 100 100 100 100 100 100 100 100 100 100 100 95 60 45 5 19 16 77
3 100 76 88 9 14 90 100 100 47 100 100 92 100 100 100 100 100 100 100 100 100 100 100 100 100 100 100 100 100 100 100 100 100 100 100 100 100 100 100 100 100 100 100 67 97 56 78 94
4 3 1 7 3 57 100 67 100 94 100 100 92 100 98 92 100 100 100 100 100 100 100 100 100 100 100 100 100 100 100 100 100 100 100 100 100 100 100 100 100 100 100 100 71 100 97 100 100
0 8 5 5 5 28 100 98 100 100 100 92 100 100 78 99 100 96 100 100 100 100 100 100 100 100 100 100 100 100 100 100 100 100 100 100 100 100 100 100 100 96 100 100 100 100 100 82 79
12 0 2 5 61 4 69 100 100 100 100 100 100 100 100 100 89 83 95 100 100 100 100 100 100 100 100 100 100 100 100 100 100 100 100 100 100 100 100 100 100 100 100 100 100 100 100 98 7
0 0 2 10 53 88 100 100 18 100 100 100 69 80 33 100 100 100 100 100 100 100 100 100 100 100 100 100 100 100 100 100 100 100 100 100 100 100 100 100 100 100 100 100 100 100 98 100 99
0 4 98 90 7 62 100 100 100 55 100 100 96 100 34 100 86 100 100 100 100 100 100 100 100 100 100 100 100 100 100 100 100 100 100 100 100 100 100 100 100 100 100 100 99 95 100 88 67
7 99 100 82 27 98 100 100 67 6 100 85 9 70 79 48 100 100 100 100 100 100 100 100 100 100 100 100 100 100 100 100 100 100 100 100 100 100 100 100 100 100 100 100 52 77 100 98 100
100 54 17 56 91 6 98 100 5 36 48 16 46 5 50 72 100 100 100 100 100 100 100 100 100 100 100 100 100 100 100 100 100 100 100 100 100 100 100 100 100 100 100 100 83 73 98 100 93
98 65 98 100 100 16 89 40 100 27 79 5 100 100 95 57 100 100 100 100 100 100 100 100 100 100 77 100 100 100 100 100 100 100 100 100 100 100 100 100 100 100 100 100 100 36 42 100 55
5 70 40 99 8 26 57 100 95 100 99 14 62 100 100 100 100 100 100 100 100 100 98 96 100 100 100 100 100 100 100 100 100 100 100 100 100 100 100 100 100 82 100 100 100 88 6 6 22
5 100 100 63 91 6 74 74 76 77 43 5 25 69 100 100 88 100 100 100 100 100 100 98 100 100 100 100 100 100 92 100 100 100 100 100 100 100 100 97 100 100 100 74 86 56 100 100 62
96 14 100 6 1 96 68 100 91 98 5 5 5 5 61 100 73 91 92 66 100 100 100 100 100 100 42 8 12 13 15 77 100 100 100 100 100 96 100 100 98 7 38 100 100 100 100 69 33
98 96 33 99 96 99 61 73 89 100 99 93 5 33 86 100 100 97 10 100 93 100 94 65 100 100 99 98 99 100 77 86 20 18 56 69 94 100 100 78 58 86 100 100 100 100 100 100 98
42 44 7 82 82 98 92 100 95 100 100 100 97 31 67 100 100 64 98 30 100 100 100 92 29 5 5 5 3 16 5 25 34 65 63 100 100 100 100 100 100 99 100 98 97 100 99 99 100
23 62 98 100 99 39 100 99 100 100 96 100 96 90 57 99 100 97 8 12 78 82 5 5 5 5 15 5 6 5 5 7 63 90 78 88 92 97 100 100 100 100 100 100 100 100 100 100 100
14 89 43 100 100 100 68 71 100 98 54 6 27 100 77 66 5 85 100 96 77 24 5 5 5 8 25 85 16 15 12 100 99 86 100 100 100 100 100 100 100 100 100 100 100 100 100 100 100
89 98 6 64 32 19 98 100 100 60 5 46 51 5 5 5 6 100 100 100 14 5 5 5 40 94 46 40 97 100 81 74 100 100 100 100 100 100 100 100 76 100 100 100 100 100 100 100 100
11 93 88 83 100 50 66 96 100 82 92 10 6 5 5 5 4 70 72 38 89 14 5 62 76 68 5 7 66 100 99 74 73 95 100 100 100 100 100 90 100 100 100 100 100 100 100 100 100
5 76 60 94 94 93 85 91 99 92 100 99 40 18 6 5 5 5 5 36 62 62 100 61 35 92 32 41 80 98 97 100 100 100 100 99 100 100 100 100 100 100 100 100 100 100 100 100 100
96 78 95 97 86 60 48 38 100 91 59 24 35 82 5 5 5 5 5 5 54 100 100 99 76 12 29 52 46 100 100 100 100 100 100 100 100 100 100 100 100 100 100 100 100 100 100 100 100

GFSSGP_prec_cloud_036.txt.gz
Cloud_Cover
0 0 0 0 0 0 0 1 0 70 100 40 39 47 81 4 11 33 100 100 100 100 100 100 100 37 13 5 5 59 54 28 5 2 5 5 5 5 6 5 4 5 3 2 0 2 0 3 0
0 0 0 0 0 0 73 66 100 100 66 11 0 67 32 90 100 34 100 100 100 100 100 100 100 32 55 5 5 5 87 55 25 28 5 4 3 5 31 5 5 5 5 5 1 0 5 5 0
0 0 0 0 1 0 100 80 83 5 0 0 15 59 66 100 100 96 100 100 100 100 100 100 100 93 97 56 44 23 5 5 6 7 8 5 5 2 5 5 5 5 5 22 5 5 5 2 0
0 0 0 0 0 13 66 1 5 0 0 0 1 97 99 98 100 92 100 100 100 100 100 100 100 100 100 100 100 84 12 43 70 54 7 8 44 5 5 5 5 5 5 7 5 5 5 5 5
0 0 0 26 41 61 18 0 0 0 0 96 100 100 100 96 100 92 54 89 100 100 100 100 100 100 100 100 100 100 89 100 93 73 5 5 5 5 5 5 5 57 98 51 69 5 3 5 4
0 0 28 100 99 71 100 58 0 0 2 69 64 90 100 100 89 100 71 92 100 100 100 100 100 100 100 100 100 100 100 90 100 70 98 74 54 64 100 88 77 78 20 43 38 5 5 5 0
0 34 4 20 77 68 100 100 16 100 98 98 100 100 100 100 100 100 100 100 100 100 100 100 100 100 100 100 100 100 100 98 98 100 100 100 100 100 100 77 100 87 72 99 20 21 5 5 0
0 0 29 73 94 76 32 51 100 100 100 100 100 100 100 100 100 100 100 100 100 100 100 100 100 100 100 100 100 100 100 100 100 100 100 100 100 100 100 100 100 88 98 92 48 59 5 5 5
0 1 72 80 94 3 68 42 100 100 100 100 100 100 100 100 100 100 100 100 100 100 100 100 100 100 100 100 100 100 90 100 100 100 100 100 100 100 100 100 100 100 100 100 91 97 50 5 5
0 39 76 86 23 7 3 1 100 100 100 100 100 100 100 100 100 100 100 100 100 100 100 100 100 100 100 100 100 100 100 100 100 100 100 100 100 100 100 100 100 100 100 100 100 67 90 5 5
0 35 93 73 1 0 17 100 100 100 100 100 100 100 100 100 100 100 100 100 100 100 100 100 100 100 100 100 100 100 100 100 100 100 100 100 100 100 100 100 100 100 100 100 100 91 58 67 75
0 26 5 5 0 98 89 100 100 100 100 100 100 98 97 100 100 100 100 100 100 100 100 100 100 100 100 100 100 100 100 100 100 100 100 100 100 100 100 100 100 100 100 100 92 69 100 100 100
3 2 8 5 6 18 2 73 100 100 100 100 100 100 99 100 100 100 100 100 100 100 100 100 100 100 100 100 100 100 100 100 100 100 100 100 100 100 100 100 100 100 100 100 100 100 100 100 100
84 9 0 2 48 41 3 29 78 63 26 93 90 95 96 100 100 100 100 100 100 100 100 100 100 100 100 100 100 100 100 100 100 100 100 100 100 100 100 100 100 100 100 100 100 100 100 77 37
5 0 6 97 49 35 100 87 66 98 68 26 68 25 3 100 100 100 100 100 100 100 100 100 100 100 100 100 100 100 100 100 100 100 100 100 100 100 100 100 100 100 100 100 100 100 100 100 100
0 0 15 48 100 100 100 100 100 100 99 95 52 7 6 86 86 100 100 100 100 100 99 100 100 100 100 100 100 100 100 100 100 100 100 100 100 100 100 100 100 100 100 100 100 100 97 100 70
0 2 44 92 54 11 93 100 100 100 100 92 17 5 6 100 45 58 18 59 100 100 97 78 97 100 100 100 100 100 100 100 100 100 100 100 100 100 100 100 100 100 100 100 100 100 100 89 100
100 26 95 89 88 97 62 100 100 100 100 79 45 72 42 94 75 18 71 13 19 21 86 48 74 100 100 100 100 100 100 100 100 100 100 100 100 100 99 100 100 100 100 100 100 65 91 100 100
86 23 85 91 87 25 95 100 97 100 100 40 43 62 69 37 32 100 100 72 5 100 100 100 100 100 100 100 100 100 100 100 100 100 100 100 100 100 100 100 100 100 100 97 100 100 100 100 97
5 5 73 53 2 3 0 99 97 100 100 2 6 100 100 100 99 100 100 99 100 100 99 95 100 100 100 100 100 97 95 96 100 100 100 100 100 100 100 100 100 100 100 100 94 74 90 86 69
5 5 4 97 97 31 0 1 70 99 51 100 72 72 36 100 100 100 100 94 100 100 100 99 92 100 100 100 100 100 92 92 70 90 100 100 100 100 100 100 100 100 55 96 73 79 61 85 100
6 5 46 87 36 14 3 7 84 100 95 23 22 5 5 93 100 100 100 100 91 13 8 78 100 100 93 12 76 91 13 5 89 21 40 59 100 100 100 90 84 98 82 99 99 97 76 92 65
51 20 69 88 97 29 34 38 95 13 22 50 5 5 5 5 91 100 95 100 100 100 100 100 100 76 100 100 85 100 71 81 8 70 70 5 9 6 78 96 99 100 100 100 100 100 100 100 100
73 14 21 89 5 4 2 89 91 3 32 100 100 90 58 7 86 100 100 75 27 56 66 54 100 100 39 15 71 96 79 83 41 63 79 44 72 69 100 81 92 99 100 100 100 100 100 100 100
100 51 52 78 78 2 54 98 10 74 87 80 91 97 100 86 5 97 100 100 99 46 13 100 94 100 100 99 9 7 62 47 93 78 21 5 95 100 100 100 100 100 100 100 100 100 100 100 100
100 100 12 98 92 88 99 89 53 1 99 91 23 6 57 100 64 7 100 100 100 44 31 5 17 76 91 39 5 5 94 29 80 100 88 68 100 100 11 94 100 100 100 100 94 100 100 100 100
100 92 15 38 100 59 100 100 100 50 2 45 7 12 18 7 5 5 97 5 36 6 50 7 5 14 24 5 65 5 36 60 100 100 100 100 89 100 100 100 100 100 100 100 96 95 100 100 100
100 100 100 65 94 83 5 85 99 48 95 24 73 7 6 8 4 4 82 23 86 73 100 100 3 7 5 5 5 5 66 100 100 100 98 100 100 100 100 100 100 100 100 100 100 100 100 100 100
100 100 100 100 96 5 67 21 32 53 100 78 4 4 57 5 5 5 5 5 29 77 100 100 85 100 3 5 86 100 88 100 100 100 99 100 100 100 100 100 100 100 100 100 100 100 100 100 100
100 100 71 77 96 89 100 10 69 44 100 100 86 6 14 37 4 0 5 5 5 5 6 56 47 6 11 79 100 100 96 98 100 100 100 100 100 100 100 100 100 100 100 100 100 100 100 100 100

GFSSGP_prec_cloud_039.txt.gz
Cloud_Cover
0 0 0 0 0 0 0 0 0 94 94 78 100 92 28 88 86 87 69 0 100 100 100 100 100 100 100 100 100 6 10 2 0 0 0 2 2 5 4 5 15 32 16 5 5 0 0 0 0
0 0 0 0 0 0 0 0 3 100 26 35 5 75 32 96 77 75 98 44 100 100 100 100 100 100 97 100 100 100 67 59 84 90 38 43 8 5 4 5 5 5 4 5 5 1 0 0 0
0 0 0 0 0 0 0 1 40 99 91 100 10 35 37 75 100 100 52 98 100 100 100 100 100 100 100 100 100 100 100 72 100 53 5 25 10 2 14 14 5 5 5 5 5 3 0 0 2
0 0 0 0 0 0 42 100 0 0 73 4 0 60 100 73 6 96 65 100 100 100 100 100 100 100 100 100 100 100 87 8 80 43 67 34 68 67 53 5 5 2 5 5 5 5 5 5 5
0 0 0 0 5 6 45 9 0 0 0 5 56 100 100 100 100 98 97 100 100 100 100 100 100 100 100 100 100 97 100 40 98 81 100 100 100 49 72 66 70 1 5 6 48 38 28 5 5
0 0 0 0 76 100 64 5 9 98 57 16 100 82 100 100 100 100 100 100 100 100 100 100 100 100 100 100 100 100 100 95 100 100 35 100 75 88 7 41 8 11 86 85 42 56 76 11 16
0 0 0 3 72 75 2 9 35 100 100 100 100 91 98 100 100 100 100 100 100 100 100 100 100 100 100 100 100 100 100 100 100 100 98 81 88 91 100 100 100 100 100 100 97 100 92 5 5
0 0 3 5 69 97 67 0 34 100 100 100 100 100 100 100 100 100 100 100 100 100 100 100 100 100 100 100 100 100 100 100 100 100 100 100 100 100 100 100 100 100 100 100 100 100 96 6 5
0 0 3 10 74 75 33 41 100 100 100 100 100 100 100 100 100 100 100 100 100 100 100 100 100 100 100 100 100 100 100 100 100 100 99 100 100 100 100 100 100 100 100 100 100 100 100 48 5
0 0 5 82 25 4 14 100 100 100 98 100 100 100 100 100 100 100 100 100 100 100 100 100 100 100 100 100 100 100 100 100 100 65 100 100 100 100 100 100 100 100 100 100 100 100 83 56 10
0 0 3 73 6 0 4 100 100 100 99 98 100 100 100 97 98 100 100 100 100 100 100 100 100 100 100 100 100 100 100 100 100 97 100 100 100 100 100 100 90 100 100 100 100 100 100 85 100
0 0 55 92 1 0 1 64 100 100 100 100 6 85 100 100 100 100 100 100 100 100 100 100 100 100 100 100 100 100 100 92 100 100 100 100 100 100 100 100 100 100 100 100 100 100 100 100 99
3 0 1 5 0 3 2 95 100 99 81 53 72 100 100 100 100 100 100 100 100 100 100 100 100 100 100 100 100 100 100 100 100 100 100 100 100 100 100 100 100 100 100 100 100 100 100 100 100
0 5 0 0 2 4 37 96 100 100 100 66 100 88 100 100 100 100 100 100 100 100 100 100 100 97 100 100 100 100 100 100 100 100 92 100 97 100 100 100 100 100 100 100 100 100 100 100 100
1 0 0 0 65 58 39 56 100 56 100 93 10 74 55 39 99 100 100 100 100 100 100 100 100 100 100 100 100 100 100 100 100 100 100 100 100 100 100 100 100 100 100 100 100 100 100 100 100
6 0 0 0 41 60 2 78 10 8 100 100 100 16 86 47 100 100 100 100 100 100 100 100 100 100 100 100 100 100 100 100 100 100 100 100 100 100 100 100 100 100 100 100 100 100 100 100 100
5 5 2 32 97 5 7 1 97 70 100 100 82 32 28 82 100 100 100 100 100 100 100 100 100 100 100 100 100 100 100 100 100 100 100 100 100 100 99 91 100 100 100 100 100 100 100 100 100
8 46 14 12 34 97 6 3 91 5 79 86 20 91 43 67 100 100 100 100 100 100 100 100 98 100 100 100 100 100 99 86 100 100 100 100 100 100 100 100 100 100 100 100 100 100 100 100 100
75 100 27 27 52 99 4 0 2 100 96 58 93 63 25 38 96 100 100 100 38 74 100 77 99 100 100 100 100 100 87 56 77 100 100 100 100 100 100 97 35 97 100 100 100 100 100 100 100
29 100 70 85 93 21 18 4 0 9 99 35 30 0 97 1 100 94 94 100 100 96 44 94 80 67 90 42 58 92 70 71 73 99 100 100 100 100 100 100 100 100 100 100 100 100 100 100 100
5 88 100 26 45 83 66 45 23 3 4 40 100 2 89 3 18 92 26 70 88 46 88 100 95 39 100 98 87 75 87 56 18 10 81 100 100 100 100 100 100 100 100 100 100 76 96 90 98
93 77 100 9 96 29 94 82 7 4 96 21 1 2 6 1 7 100 100 100 100 99 49 11 50 64 100 100 100 100 100 100 100 84 23 60 93 94 94 76 100 100 90 100 100 100 100 100 95
30 5 12 100 69 15 6 73 96 5 2 6 5 5 2 0 0 100 100 100 100 100 100 100 100 100 100 100 100 100 100 9 44 100 100 100 100 95 100 100 100 74 74 42 61 99 100 100 100
98 17 38 100 93 11 51 47 89 8 5 5 29 35 39 34 79 100 100 100 100 100 100 78 27 24 59 43 84 80 74 41 100 97 90 89 80 57 97 100 100 100 12 24 60 96 100 100 99
100 100 100 100 100 30 5 4 8 61 93 100 47 23 3 16 100 100 64 100 100 99 96 95 76 72 79 100 95 100 100 45 13 83 77 50 22 100 100 98 100 100 100 92 87 80 100 100 100
100 100 100 100 100 9 5 5 66 72 84 38 83 73 87 82 5 77 9 22 100 34 90 72 6 5 5 5 6 32 31 64 87 68 33 72 99 100 100 98 99 100 100 100 100 100 100 100 100
100 100 79 84 100 100 48 9 41 59 64 50 3 46 49 4 75 4 5 5 5 74 98 31 6 42 99 100 100 16 44 100 100 17 84 100 100 100 100 100 100 100 100 68 100 100 100 100 100
88 100 92 73 100 100 100 16 42 81 48 57 79 4 0 0 3 0 0 4 4 17 5 5 85 100 100 100 100 99 100 95 100 95 100 100 76 79 100 100 100 100 100 100 100 100 100 100 100
100 100 100 100 98 100 100 100 5 57 100 96 44 4 5 4 1 0 5 2 0 78 58 9 73 100 100 100 100 99 97 100 100 100 100 100 100 100 100 100 100 100 100 100 100 100 100 100 100
100 99 100 100 100 100 100 45 56 92 100 100 100 99 95 78 87 98 19 0 0 0 85 5 5 100 100 100 100 100 100 100 100 100 100 100 100 100 100 100 100 100 100 100 100 100 100 100 100

GFSSGP_prec_cloud_042.txt.gz
Cloud_Cover
5 54 5 4 0 0 0 0 0 5 1 0 28 0 63 99 100 97 82 16 12 76 92 100 100 100 100 100 100 100 100 100 100 50 0 0 1 4 0 4 24 52 3 2 0 0 0 2 0
5 4 5 2 0 0 0 0 0 0 2 2 0 19 9 63 100 99 100 10 49 21 100 100 100 100 100 100 100 100 100 100 100 100 40 6 58 44 52 7 5 7 5 5 1 0 2 0 0
4 5 1 0 0 0 0 0 0 0 0 0 12 5 96 80 100 100 78 65 4 39 100 100 100 100 100 100 100 100 100 100 100 100 100 100 100 100 98 99 97 44 51 5 5 2 0 3 5
0 0 0 0 0 0 0 0 0 4 0 2 3 95 2 98 98 100 100 27 5 100 100 100 100 100 100 100 100 100 100 100 100 100 100 100 100 91 63 100 100 100 98 96 5 5 5 5 18
0 0 0 0 0 5 25 11 5 98 87 8 25 46 89 57 74 78 2 38 5 100 100 100 100 100 100 100 100 100 100 100 100 100 100 100 100 100 100 100 100 100 100 10 5 5 10 100 45
0 0 0 0 5 0 15 5 32 100 100 80 100 100 100 100 100 100 98 81 68 100 100 100 100 100 100 100 100 100 100 100 100 100 100 71 59 100 100 100 100 100 71 58 5 9 70 100 90
0 0 0 0 1 5 5 4 1 100 98 94 100 100 100 100 100 100 100 100 100 100 100 93 100 100 100 100 100 100 98 95 55 26 99 70 98 100 100 93 100 100 100 98 90 100 100 100 100
0 0 0 2 5 75 79 4 5 100 100 100 100 100 100 100 100 100 100 100 100 100 100 100 100 100 100 100 100 100 100 100 59 100 86 97 91 56 100 96 100 100 100 100 100 100 100 100 100
0 0 0 5 3 2 1 4 99 100 100 100 98 100 100 99 100 100 100 100 100 100 100 100 100 100 100 100 100 100 100 100 100 100 58 100 89 77 100 99 100 100 100 100 100 100 100 100 100
11 0 0 4 5 5 1 24 100 100 99 100 100 100 93 100 100 100 100 100 100 100 100 100 100 100 100 100 100 100 100 100 100 100 93 87 81 86 99 100 100 90 100 100 100 100 100 100 100
33 0 0 0 5 4 0 53 100 100 100 97 100 92 80 100 100 100 100 100 100 100 100 100 100 100 100 100 100 100 100 100 100 100 100 99 93 99 100 73 100 100 98 100 92 92 100 100 100
100 2 0 3 5 0 0 84 100 100 68 98 3 76 84 96 100 100 100 100 100 100 100 100 100 100 100 100 100 100 100 100 100 95 100 89 92 98 74 80 100 100 100 100 100 100 100 100 100
100 10 0 3 0 0 2 100 100 99 64 62 93 41 80 100 47 100 100 100 100 100 100 100 100 100 100 100 100 100 100 94 57 44 52 100 93 89 91 100 99 94 88 100 100 100 100 100 100
100 100 2 0 0 0 4 55 93 100 23 20 48 72 98 100 100 99 100 100 100 100 100 100 100 100 100 100 100 100 100 100 100 60 100 100 99 75 74 99 100 96 92 91 89 100 100 100 87
100 92 2 0 0 0 4 5 7 85 65 18 2 31 40 80 96 98 100 100 100 100 100 100 100 100 100 100 100 100 100 100 100 100 100 100 98 92 100 57 100 100 87 100 100 100 100 100 100
100 61 4 5 5 0 2 5 1 36 97 85 5 5 33 53 37 80 97 100 100 100 100 100 100 100 100 100 98 100 100 100 100 100 79 100 98 86 91 100 58 69 88 95 99 100 100 100 100
91 18 19 5 5 0 5 4 0 2 20 99 4 35 6 24 51 73 100 100 100 100 100 100 100 100 100 100 100 100 100 100 100 100 100 100 90 79 97 80 93 100 100 95 99 98 99 100 100
95 27 9 5 11 30 29 9 1 0 3 1 4 5 4 3 35 73 100 100 100 100 100 100 100 100 100 100 100 100 100 100 100 74 99 99 100 100 100 98 100 100 100 100 100 100 100 100 100
83 88 66 5 63 49 23 4 0 0 0 18 54 5 4 5 5 69 49 100 100 100 100 100 100 100 100 100 100 100 100 94 100 100 100 100 100 80 49 100 81 100 100 100 100 100 100 100 100
87 16 80 5 96 87 67 10 0 0 0 10 16 77 15 67 20 100 72 100 100 100 100 100 100 100 100 100 100 100 100 100 100 100 100 100 100 100 98 91 100 100 100 100 100 100 100 100 100
51 62 39 5 64 53 24 25 0 0 0 3 49 75 43 6 100 18 100 98 100 100 100 100 100 100 100 100 100 100 100 100 84 92 100 100 26 97 84 100 98 100 100 100 100 100 100 100 100
27 12 14 80 5 8 4 21 11 0 2 5 10 0 2 5 5 5 30 52 92 100 100 100 100 100 100 100 100 100 100 100 99 91 100 94 100 100 80 83 58 89 51 28 86 100 77 87 100
53 5 5 100 94 10 5 16 5 0 0 5 18 3 2 0 1 3 3 69 100 100 100 100 100 100 100 98 5 13 93 9 99 10 10 100 99 100 100 100 100 100 100 100 90 100 96 60 11
38 92 100 100 100 100 7 5 5 3 2 0 3 20 71 2 5 1 5 16 100 100 100 100 46 15 6 16 78 10 5 5 19 87 100 100 100 78 81 100 100 98 100 99 90 81 52 34 51
100 35 56 100 100 88 11 4 95 4 17 0 5 4 85 1 5 95 38 5 9 100 94 26 68 15 5 15 5 11 88 89 97 100 100 100 100 100 100 100 100 100 100 100 97 100 68 99 100
46 57 32 100 50 97 50 5 97 5 6 5 5 0 4 72 2 44 17 6 9 67 40 33 100 100 11 2 6 9 10 62 54 83 80 61 100 100 100 100 100 100 100 100 100 100 96 100 100
39 4 99 100 100 5 17 5 8 5 6 37 3 42 0 58 99 98 47 25 16 4 5 5 4 5 99 78 94 86 100 100 81 98 100 100 100 100 90 100 100 100 100 100 100 100 100 100 100
5 47 90 27 7 5 38 8 89 10 16 51 0 5 0 0 0 1 2 76 15 5 3 2 5 90 76 66 88 97 99 100 100 100 100 100 100 95 100 100 100 100 100 100 100 100 100 100 100
6 35 98 18 15 46 99 66 44 86 5 14 22 10 18 6 5 0 7 45 0 53 72 47 39 43 43 100 100 100 100 100 100 100 100 100 100 100 100 100 100 100 100 100 100 100 100 100 100
5 61 100 100 70 76 98 100 22 79 5 4 5 4 58 100 94 13 3 1 0 1 59 5 100 100 80 38 100 100 100 100 100 100 100 100 100 100 100 100 100 100 100 100 100 100 100 100 100

GFSSGP_prec_cloud_045.txt.gz
Cloud_Cover
0 0 0 1 2 0 0 0 0 0 0 0 0 0 11 8 31 89 97 92 100 100 99 76 35 5 62 100 100 100 100 100 100 100 100 100 100 100 100 26 5 7 71 100 15 85 56 0 0
1 3 2 5 0 0 0 0 0 0 0 0 0 0 0 2 42 100 99 100 100 100 74 100 5 3 93 100 100 100 100 100 100 100 100 100 100 100 100 45 4 3 92 60 63 84 5 1 0
0 1 5 5 0 0 0 0 0 0 0 0 0 0 1 79 67 89 98 87 95 100 100 100 55 25 80 100 100 100 100 100 100 100 100 100 100 100 100 31 31 14 46 40 60 100 100 6 3
0 0 0 0 0 0 0 0 0 0 0 0 5 0 12 0 5 65 100 98 100 100 100 45 78 100 100 100 100 100 100 100 100 100 100 100 100 100 98 16 25 6 5 99 100 90 48 5 99
4 4 17 4 0 0 0 0 5 5 4 21 60 100 95 100 14 5 21 59 74 100 60 100 100 100 100 100 100 100 100 100 100 100 100 100 100 100 100 81 44 70 20 42 100 100 100 100 8
5 1 4 0 0 0 0 0 0 1 1 92 100 100 100 100 100 91 93 67 85 47 87 100 100 100 100 100 100 100 100 100 100 100 100 100 100 99 100 96 48 33 9 47 21 92 77 5 32
0 0 0 0 0 0 0 0 0 0 0 100 100 100 100 100 100 100 100 91 100 82 100 100 100 100 100 100 100 100 100 100 100 100 100 100 100 99 99 83 5 5 5 33 98 100 46 14 96
0 0 0 0 0 0 0 0 0 11 99 100 100 100 100 100 100 100 100 100 100 100 100 100 100 100 100 100 100 100 100 100 100 100 100 100 45 64 99 64 5 5 51 16 100 100 99 100 100
2 4 0 0 0 0 0 3 9 79 100 100 100 100 100 100 100 100 100 100 100 100 100 100 100 100 100 100 100 100 100 100 100 100 93 99 56 65 14 14 36 26 65 67 100 100 71 60 99
100 72 20 1 0 0 0 5 82 98 100 100 100 100 100 100 100 100 100 100 100 100 100 100 100 100 100 100 100 100 100 100 100 100 100 98 31 11 4 7 82 36 90 23 99 100 100 15 44
100 52 28 30 0 0 0 78 100 100 100 98 100 99 100 100 100 100 100 100 100 100 100 100 100 100 100 100 100 100 100 100 100 100 100 67 43 92 5 26 72 51 70 68 100 99 99 44 62
96 88 66 2 0 0 0 37 99 98 100 97 73 25 72 52 100 100 100 100 100 100 100 100 100 100 100 100 100 100 100 100 100 100 100 99 99 37 63 84 99 89 98 69 96 99 100 96 93
100 96 63 2 0 0 0 55 23 100 100 92 100 30 53 64 100 100 100 100 100 100 100 100 100 100 100 100 100 100 100 100 100 100 100 100 80 96 31 46 100 76 93 100 96 98 100 100 100
100 100 94 85 4 0 0 0 1 7 99 100 100 98 51 100 100 100 100 100 100 100 100 100 100 100 100 100 100 100 100 100 100 100 81 100 92 97 44 94 97 98 64 49 81 98 100 100 99
100 100 100 27 0 0 0 0 10 0 0 38 100 100 99 100 100 100 100 100 100 100 100 100 100 100 100 100 100 100 100 100 100 100 100 94 98 88 100 97 100 70 100 98 100 90 100 100 100
100 100 100 18 5 0 1 0 4 0 12 21 39 80 100 100 100 100 100 100 100 100 100 100 100 100 100 100 100 100 100 100 100 100 100 100 76 100 98 100 94 97 100 100 100 100 100 100 100
100 20 99 31 5 4 11 6 0 0 18 1 16 26 40 100 100 94 100 100 100 100 100 100 100 100 100 100 100 100 100 100 100 100 100 100 96 73 100 96 100 100 89 100 100 100 100 100 100
27 90 61 65 5 5 5 3 5 10 0 0 0 0 10 43 99 73 100 100 100 100 100 100 100 100 100 100 100 100 100 100 100 100 100 100 99 100 87 90 100 100 100 100 100 100 100 100 100
5 5 61 90 6 5 1 5 5 0 0 0 0 0 2 5 2 30 99 100 100 100 100 100 100 100 100 100 100 100 100 100 100 100 100 100 97 74 100 100 100 96 97 100 100 96 51 100 100
79 97 14 99 44 23 57 60 5 2 0 0 0 0 86 85 35 55 80 100 91 98 100 100 100 100 100 100 100 100 100 100 100 100 100 100 99 93 100 100 81 81 74 100 100 100 100 100 100
4 87 5 49 96 28 100 79 52 5 0 0 0 0 0 1 7 70 100 100 49 64 67 100 100 100 100 100 100 100 100 100 100 100 100 100 100 100 100 100 98 100 100 100 100 100 98 100 98
0 0 5 5 31 80 100 100 94 5 2 0 3 0 0 0 0 0 45 100 47 40 36 100 100 100 100 100 100 100 100 100 100 100 100 100 100 100 100 100 100 100 40 46 99 92 66 99 100
5 4 5 4 5 96 100 100 21 5 4 0 0 5 1 0 0 3 0 2 1 53 73 92 100 100 100 100 100 100 100 100 100 86 100 100 95 91 100 100 100 92 11 67 77 62 96 99 91
8 4 2 4 6 95 100 100 9 35 3 1 4 4 0 1 1 6 53 4 0 1 58 94 82 100 100 100 100 100 100 100 100 100 93 100 100 98 33 84 52 7 33 100 95 97 100 100 100
80 0 5 10 56 21 7 100 7 38 7 3 0 1 0 0 0 0 60 5 0 0 62 94 100 100 100 100 100 100 100 100 100 100 100 100 100 59 58 60 94 100 85 71 94 100 100 100 93
6 61 6 61 7 75 37 100 5 9 20 5 1 4 4 0 0 3 0 0 0 0 0 23 100 100 100 100 84 94 100 100 100 100 100 100 99 100 90 100 95 100 100 100 100 100 100 100 100
12 5 50 11 76 100 100 100 6 8 72 8 5 4 1 1 0 4 0 3 5 0 0 0 37 100 99 100 100 100 57 62 97 99 87 100 96 100 100 100 46 100 100 100 100 100 100 100 100
10 88 13 7 8 32 100 100 100 5 7 79 43 5 2 5 0 0 0 4 4 0 0 77 2 5 7 6 13 50 97 75 100 100 100 100 100 100 90 100 100 100 100 100 100 100 100 100 100
100 100 100 17 5 76 83 94 21 23 53 8 56 8 0 2 1 0 2 2 4 5 4 4 91 69 96 100 100 99 100 100 100 94 100 100 100 100 100 100 100 100 100 100 100 100 100 100 100
100 84 73 34 53 70 92 94 100 97 36 21 7 6 5 4 0 5 5 0 1 38 44 7 6 9 43 100 100 100 100 100 100 100 100 100 100 100 100 100 100 100 100 100 100 100 100 100 100

GFSSGP_prec_cloud_051.txt.gz
Cloud_Cover
0 0 0 0 0 0 0 0 0 0 0 0 0 0 0 0 0 0 13 93 44 0 13 2 0 100 100 100 100 100 88 29 13 98 100 100 100 100 100 100 100 100 100 82 11 4 4 50 62
0 0 0 0 0 4 2 0 0 0 0 0 0 0 0 0 1 12 73 100 94 13 37 10 5 10 100 100 100 100 15 51 100 100 100 100 100 100 100 100 100 100 99 27 16 11 4 6 0
0 0 0 2 4 5 5 1 0 0 0 0 0 0 0 0 0 2 2 52 100 85 86 22 3 9 7 78 86 100 97 100 89 100 100 97 96 100 100 100 100 100 100 90 100 39 38 5 13
0 14 45 100 69 22 5 0 0 0 0 0 0 0 0 5 1 42 17 13 100 88 66 23 100 49 70 98 91 37 27 100 100 100 100 100 100 100 100 100 100 71 100 100 81 5 3 8 6
0 42 99 12 27 13 0 0 0 0 0 0 0 0 0 24 21 58 38 39 100 99 57 45 5 100 77 100 81 6 40 100 100 100 100 97 100 100 100 100 100 100 63 6 30 62 51 5 5
0 22 58 5 5 0 5 0 0 0 0 0 0 1 0 4 12 31 88 50 59 100 92 26 26 79 100 100 25 97 61 56 99 100 95 100 100 100 100 100 100 79 83 96 5 5 5 43 20
4 33 5 1 0 5 1 0 0 0 0 4 5 0 2 8 9 19 85 92 55 88 100 100 100 100 100 100 100 100 100 70 100 100 100 100 100 100 100 100 100 100 94 93 54 14 27 85 68
5 2 0 4 44 3 0 0 0 0 0 0 5 5 5 54 99 86 96 90 100 100 100 100 100 100 100 100 100 100 39 89 100 100 100 100 100 100 100 100 100 100 54 59 79 100 99 100 99
0 0 2 25 27 3 4 0 0 0 0 5 23 8 4 15 71 96 58 100 94 100 100 99 100 100 100 100 100 100 98 100 100 100 100 100 100 100 100 100 100 100 9 95 99 32 99 98 34
0 4 27 97 5 2 0 0 0 0 0 0 5 5 3 24 85 98 95 100 94 100 100 100 100 100 100 100 100 100 100 100 100 100 100 100 100 100 100 100 100 100 99 99 95 45 100 98 48
2 13 82 93 5 4 0 0 0 0 0 0 4 2 12 90 100 100 100 100 100 97 100 100 100 100 100 100 100 100 100 100 100 100 100 100 100 100 79 99 84 81 25 96 80 32 96 97 98
4 90 100 40 36 0 3 0 0 0 0 0 2 1 14 12 53 98 100 100 100 100 100 100 100 100 100 100 100 100 100 100 100 100 100 100 100 100 80 99 96 76 70 86 80 99 82 100 71
5 68 100 3 97 5 24 1 0 0 0 0 4 65 100 65 100 87 100 100 100 100 100 100 100 100 100 100 100 100 100 100 100 98 100 100 100 100 100 75 70 92 95 95 97 92 34 100 91
0 99 100 66 6 45 64 5 0 0 0 0 16 97 96 100 100 100 100 100 100 100 100 100 100 100 100 100 100 100 100 100 100 100 100 100 100 100 100 100 100 100 83 86 61 69 100 100 98
2 0 93 11 39 38 18 5 5 0 0 0 39 95 100 88 100 100 100 100 100 100 100 100 100 100 100 100 100 100 100 100 100 100 100 100 100 100 100 100 100 84 97 96 89 67 85 88 72
0 3 93 83 8 15 5 5 5 0 0 0 9 78 99 100 100 99 99 100 100 100 100 100 100 100 100 100 100 100 100 100 100 100 99 100 100 100 100 100 100 100 93 63 86 87 67 38 12
3 5 92 63 52 5 6 5 5 4 5 0 0 0 68 100 95 99 95 100 100 100 100 100 100 100 100 100 100 100 100 100 100 100 100 100 100 100 100 98 69 98 86 93 80 100 92 86 88
50 44 27 65 28 5 5 2 5 5 5 5 0 0 19 99 67 41 81 100 100 100 100 100 100 100 100 100 100 100 100 100 100 100 100 100 100 100 88 66 90 99 83 96 94 100 81 93 98
100 19 26 5 5 11 21 4 5 5 5 5 0 0 0 12 22 22 94 79 100 93 100 100 100 100 100 100 100 100 100 100 100 100 100 100 100 100 100 100 100 95 100 94 94 94 99 90 100
100 89 5 5 18 30 5 12 5 5 5 5 3 0 0 0 47 55 100 61 85 78 100 100 100 100 100 100 100 100 100 100 100 100 100 100 100 100 100 90 100 87 96 80 100 99 64 74 77
100 100 8 5 79 45 12 7 5 18 5 20 1 0 0 0 14 99 84 87 32 74 99 100 100 100 100 100 100 100 100 100 100 100 100 100 100 100 100 100 100 92 100 94 98 98 71 74 98
100 97 5 52 5 49 33 83 5 5 5 4 5 0 0 0 0 8 77 72 57 15 76 100 100 100 100 100 100 100 100 100 100 100 100 100 100 100 100 100 100 100 100 100 100 100 100 87 49
100 6 20 59 5 15 13 100 100 5 5 2 1 0 5 5 0 0 0 0 18 53 44 92 100 100 100 100 100 100 100 100 100 100 100 100 100 100 100 100 100 100 100 100 100 100 100 100 98
100 71 6 5 5 100 16 96 100 80 0 21 1 0 0 2 0 0 0 0 1 54 100 96 96 100 100 100 100 100 100 100 100 100 100 100 100 100 100 100 100 100 100 100 100 100 100 76 64
100 100 100 12 5 100 71 84 100 100 34 4 5 5 4 5 5 0 0 11 15 98 100 100 98 43 67 91 100 100 100 100 100 100 100 100 100 100 100 100 100 100 100 100 100 100 100 57 88
100 99 56 39 5 90 74 98 100 100 100 8 5 5 1 5 5 3 0 0 6 74 100 100 98 60 26 30 26 97 100 100 100 100 100 100 100 100 100 100 100 100 100 100 100 100 58 49 38
94 47 99 36 5 52 100 100 100 100 100 100 11 4 5 0 16 5 0 0 0 1 5 31 18 20 36 20 4 8 59 100 100 100 100 100 100 100 100 100 100 100 100 100 96 55 46 39 67
100 100 79 6 5 28 90 100 100 100 100 100 98 5 4 0 4 5 2 0 3 2 3 3 0 0 0 1 0 0 16 73 54 95 100 100 100 99 96 97 100 100 98 100 100 98 100 68 99
100 100 20 5 5 73 76 100 100 100 100 78 86 5 43 6 3 4 4 4 5 5 5 5 0 0 0 0 0 0 0 2 51 100 83 100 98 99 100 94 97 88 100 100 99 100 95 94 100
9 29 10 5 4 8 100 100 100 100 100 100 23 35 50 100 5 4 5 33 5 5 5 5 5 0 2 2 0 1 2 4 67 83 23 46 98 92 100 100 100 100 100 100 100 100 100 100 100

GFSSGP_prec_cloud_054.txt.gz
Cloud_Cover
0 0 0 0 0 0 0 0 0 0 0 0 0 0 0 0 0 3 10 39 53 53 66 0 0 0 0 5 100 100 100 100 97 91 59 75 98 100 88 100 100 100 100 100 100 62 24 10 14
0 0 0 0 0 0 0 0 0 2 5 0 0 0 0 0 0 0 2 14 29 45 68 29 0 0 34 6 93 100 100 100 95 61 65 91 98 100 100 100 100 100 100 100 98 78 75 1 2
0 0 0 0 0 0 2 5 5 0 0 0 0 0 0 0 0 0 10 0 18 33 68 40 4 0 13 90 20 98 100 100 8 30 97 100 100 100 100 100 100 100 100 99 36 66 24 5 4
0 0 0 3 4 0 2 5 0 0 0 0 0 0 0 0 0 10 33 6 42 37 90 92 2 5 5 86 87 38 100 100 97 98 100 94 99 100 100 100 100 100 100 96 54 14 5 5 6
0 0 0 0 0 4 4 0 2 0 0 0 0 0 0 0 0 21 81 8 5 59 86 94 8 64 76 100 81 67 84 59 100 100 100 100 100 100 100 100 100 100 100 100 100 100 98 36 32
0 0 0 0 1 5 3 3 0 0 0 0 0 0 0 0 0 64 75 66 61 37 73 96 91 100 96 95 100 100 66 48 100 100 100 100 100 100 84 99 100 100 100 100 100 100 87 9 33
0 0 0 0 0 0 2 0 0 0 0 0 0 0 0 0 0 36 70 65 68 37 100 100 100 100 96 100 97 100 39 69 54 100 100 100 100 100 98 100 100 100 100 100 100 88 100 54 65
0 0 0 0 0 0 0 0 0 0 0 0 0 0 3 0 0 5 75 68 40 63 100 100 100 100 100 100 100 100 100 91 17 83 100 100 100 100 100 100 100 100 100 100 100 100 25 86 98
2 0 0 0 0 5 5 0 0 0 0 0 0 0 1 5 2 17 74 63 91 75 100 100 100 100 100 100 100 100 100 100 93 99 100 100 100 100 100 100 100 100 100 99 100 46 5 18 6
5 0 0 0 26 35 5 4 0 0 0 0 0 0 0 3 1 44 89 87 65 97 100 100 100 100 100 90 100 100 99 100 88 100 100 100 100 100 100 100 100 100 100 100 100 100 12 95 29
5 0 0 5 7 9 26 2 0 0 0 0 0 0 0 0 1 22 36 22 98 77 100 100 100 100 100 100 100 100 100 100 100 100 100 100 100 100 100 100 100 100 100 100 73 30 95 8 43
5 4 1 10 11 10 32 1 4 0 0 0 0 0 0 0 13 37 33 55 98 100 100 100 100 100 100 100 100 100 100 100 100 100 100 100 100 100 100 100 100 100 100 23 5 31 45 64 97
5 4 0 50 34 6 85 3 96 4 0 0 0 0 0 0 1 31 71 93 93 100 100 100 100 100 100 100 100 100 100 100 100 100 100 100 100 100 100 100 100 100 60 75 53 75 51 72 66
81 5 2 0 95 5 29 100 87 3 0 0 0 0 0 4 26 54 40 98 82 100 100 100 100 100 100 100 100 100 100 100 100 100 100 100 100 100 100 100 100 63 49 58 76 42 35 23 77
98 5 5 5 65 95 12 3 0 4 0 0 0 0 0 0 0 16 66 82 98 100 100 100 100 100 100 100 100 100 100 100 100 100 100 100 100 100 100 100 100 46 7 73 65 92 98 92 100
49 46 8 4 5 64 14 2 1 5 0 0 0 0 0 0 0 0 16 33 72 100 100 100 100 100 100 100 100 100 100 100 100 100 100 100 100 100 100 100 100 95 100 31 84 100 100 98 94
100 75 5 4 5 77 40 9 0 0 5 0 0 0 0 0 0 0 0 35 82 100 100 100 100 100 100 100 100 100 100 100 100 100 100 100 100 100 100 100 100 94 94 89 76 54 54 75 29
60 51 88 3 11 47 7 26 6 1 5 0 0 0 0 0 0 0 23 22 58 100 100 100 100 100 100 100 100 100 100 100 100 100 100 100 100 100 100 100 100 100 100 95 70 86 32 5 50
60 100 100 5 2 14 59 5 5 0 2 1 0 0 0 0 0 0 1 76 74 89 100 100 100 100 100 100 100 100 100 100 100 100 100 100 100 100 100 100 100 100 98 100 91 100 70 29 42
100 100 94 78 5 4 84 10 5 0 0 3 4 0 0 0 0 0 0 18 100 88 100 100 100 100 100 100 100 100 100 100 100 100 100 100 100 100 100 100 100 90 89 100 92 92 41 72 97
100 100 100 63 6 56 38 77 0 0 0 5 5 0 0 0 0 0 0 0 22 91 99 100 100 100 100 100 100 100 100 100 100 100 100 100 100 100 100 97 98 96 61 88 100 92 100 80 96
94 100 98 98 93 100 67 74 5 5 5 4 3 0 0 0 0 0 0 0 0 3 100 96 100 100 100 100 100 100 100 100 100 100 100 100 100 100 100 100 100 100 100 100 100 96 100 100 100
100 100 5 5 100 100 71 22 5 5 2 0 0 0 4 0 0 1 0 0 0 0 31 100 97 100 100 100 100 100 100 100 100 100 100 100 100 100 100 100 100 100 100 100 100 100 100 100 100
100 95 8 80 100 100 96 50 100 6 5 3 0 0 5 1 0 6 1 0 0 0 4 84 100 100 100 100 100 100 100 100 100 100 100 100 100 100 100 100 100 100 100 100 100 100 100 100 100
96 100 100 100 94 100 63 58 100 100 99 1 0 4 4 5 0 0 5 0 0 0 0 2 75 100 100 100 100 100 100 100 100 100 100 100 100 100 100 100 100 100 100 100 100 100 100 100 100
100 100 100 46 5 98 21 100 100 100 100 10 0 30 32 5 4 0 4 4 0 0 0 0 0 4 93 100 100 100 100 100 100 100 100 100 100 100 100 100 100 100 100 100 100 100 100 100 100
57 25 100 100 19 18 81 99 100 100 100 50 5 8 88 22 1 0 0 2 1 1 5 0 0 0 0 49 98 61 99 100 100 100 100 100 100 100 100 100 100 100 100 100 100 100 100 100 100
90 66 18 5 20 97 100 98 100 100 100 63 6 48 95 16 0 4 0 0 5 2 5 5 4 0 0 0 16 31 61 80 78 78 100 100 99 100 100 100 100 100 100 100 100 100 100 100 99
100 84 63 74 84 93 98 100 99 100 100 100 11 97 100 22 4 5 1 0 2 5 2 1 5 0 0 0 1 24 7 27 38 23 3 2 58 100 100 100 100 100 100 100 68 100 98 92 100
100 100 100 100 91 93 81 100 100 100 100 100 100 100 100 7 5 7 5 0 0 4 79 1 5 2 2 0 2 0 19 23 18 0 0 4 5 5 6 88 100 100 100 100 100 100 100 100 100

GFSSGP_prec_cloud_057.txt.gz
Cloud_Cover
0 0 0 0 0 0 0 0 0 0 0 0 0 0 2 0 0 5 3 3 2 7 39 0 10 48 17 28 42 18 4 95 99 38 22 37 17 57 24 100 100 100 100 81 95 14 86 100 22
0 0 0 0 0 0 60 0 0 0 0 4 0 0 0 2 0 0 0 0 0 0 37 0 4 91 2 0 2 0 18 54 100 80 66 72 68 84 100 53 100 100 100 96 100 86 100 95 99
0 3 2 2 0 0 30 0 0 0 0 0 0 2 0 0 0 0 0 0 7 16 33 45 0 0 0 0 0 0 1 62 100 100 96 100 100 100 100 91 100 94 100 100 100 100 100 100 5
0 5 9 5 0 0 0 0 5 0 1 0 0 2 4 0 0 0 0 0 31 5 36 100 0 0 0 1 0 29 58 78 99 100 97 100 64 88 27 44 100 100 100 100 100 100 100 66 2
0 39 94 3 0 0 0 2 0 0 0 1 2 4 4 6 0 0 0 0 27 22 72 99 52 1 1 0 28 86 100 80 85 99 100 67 94 84 94 94 100 100 97 100 100 100 100 100 98
0 8 86 2 0 0 1 2 0 0 0 2 2 3 2 0 0 0 0 0 1 48 32 100 100 100 83 1 100 100 100 100 100 100 94 100 100 86 91 100 100 100 100 100 100 100 100 100 95
0 36 48 3 0 0 0 0 0 0 1 4 4 0 2 0 0 0 3 0 9 80 68 100 100 100 93 63 100 100 100 100 100 100 100 100 100 100 100 100 100 100 100 100 100 100 100 100 100
0 49 46 3 0 0 0 0 0 0 0 0 0 0 8 0 0 0 2 0 81 50 93 100 100 100 90 100 100 100 100 100 100 100 100 100 100 100 89 81 98 100 100 100 100 100 100 100 100
18 65 8 5 0 0 0 0 3 4 0 0 0 0 0 0 0 0 1 98 39 55 100 100 100 99 97 94 100 100 100 100 100 100 100 100 100 98 100 81 87 100 100 100 100 100 100 100 100
100 29 5 5 0 0 0 0 5 4 5 3 0 0 0 0 0 0 44 99 100 100 100 100 100 94 66 100 100 100 100 100 100 92 100 100 100 100 100 100 100 100 100 100 100 100 93 22 29
100 39 5 5 0 0 0 1 5 40 2 5 3 0 0 0 0 1 92 80 37 54 100 100 100 100 90 42 100 100 100 100 100 100 96 100 100 100 100 100 100 100 100 100 100 100 100 100 100
100 5 5 5 5 0 0 4 22 5 56 0 0 0 0 0 0 3 41 100 57 78 100 100 100 100 100 7 100 100 100 100 100 100 100 100 100 100 100 100 100 100 100 100 100 100 99 100 100
98 5 5 5 5 1 0 3 22 52 100 0 0 0 0 0 0 0 0 33 96 96 100 100 100 100 100 86 70 100 100 100 100 100 100 100 100 100 100 100 100 100 100 100 100 100 100 100 66
47 40 15 5 5 23 1 3 24 100 97 0 0 0 0 0 0 0 0 29 100 93 100 100 100 100 99 93 98 100 100 100 100 100 100 100 100 100 100 100 100 100 100 100 100 100 100 60 79
98 23 5 5 5 3 1 1 100 3 1 0 0 0 0 0 0 0 0 20 52 100 100 100 100 100 100 100 100 100 100 100 100 100 100 100 100 100 100 100 100 100 100 100 100 100 56 94 20
100 8 5 21 5 20 74 7 5 2 0 0 0 0 0 0 0 0 0 0 89 85 100 100 100 100 100 100 100 100 100 100 100 100 100 100 100 100 100 100 100 100 100 100 100 98 11 9 92
100 53 59 37 14 16 2 1 2 2 4 0 1 0 0 0 0 0 0 0 82 96 100 100 100 100 100 100 100 100 100 100 100 100 100 100 100 100 100 100 100 100 100 100 100 76 13 38 92
100 31 5 71 86 18 5 1 7 2 0 0 0 4 0 0 0 0 0 0 14 99 100 100 100 100 100 100 100 100 100 100 100 100 100 100 100 100 100 100 100 100 100 98 93 77 70 92 100
100 100 96 99 99 5 5 1 7 2 5 0 0 5 0 0 0 0 0 0 2 100 100 100 100 100 100 100 100 100 100 100 100 100 100 100 100 100 100 100 100 100 100 100 99 100 98 59 100
100 84 5 91 86 5 5 2 0 4 5 2 5 5 0 0 0 0 0 0 0 81 100 100 100 100 100 100 100 100 100 100 100 100 100 100 100 100 100 100 100 100 100 100 89 76 100 100 86
99 78 9 99 95 96 8 5 0 0 0 0 0 5 5 0 0 0 0 0 0 35 71 100 100 100 100 100 100 100 100 100 100 100 100 100 100 100 100 100 100 100 100 100 99 100 100 100 100
94 100 88 100 100 50 70 91 5 1 3 5 0 1 3 0 0 0 0 0 0 0 88 99 100 100 100 100 100 100 100 100 100 100 100 100 100 100 100 100 100 100 100 100 100 100 99 100 72
81 100 100 100 100 98 100 100 21 5 5 5 1 2 5 0 0 0 0 0 0 0 32 81 100 100 100 100 100 100 100 100 100 100 100 100 100 100 100 100 100 100 100 100 100 100 97 100 100
100 83 100 94 100 100 100 100 100 7 37 43 1 4 3 0 0 0 0 0 0 0 4 81 85 100 100 100 100 100 100 100 100 100 100 100 100 100 100 99 100 100 100 100 100 100 100 100 100
100 100 100 100 100 100 100 100 100 31 16 98 25 2 5 5 0 1 0 0 0 0 0 7 98 90 100 100 100 100 100 100 100 100 100 100 100 100 100 100 100 100 100 100 100 100 100 100 100
100 100 100 100 100 100 100 100 100 100 39 52 100 53 4 7 7 11 18 0 0 0 0 0 1 38 100 100 100 100 100 100 100 100 100 100 100 100 100 100 100 100 100 100 100 100 100 100 100
100 100 100 100 100 100 100 100 100 100 100 100 100 73 5 5 33 61 100 0 0 0 0 0 0 0 22 100 100 100 100 100 100 100 100 100 100 100 100 100 100 100 100 100 100 100 100 100 100
100 100 100 100 100 100 100 100 100 100 100 100 100 97 12 46 92 100 100 11 0 0 0 0 0 0 0 6 99 98 72 100 100 100 100 100 100 100 100 100 100 100 100 100 100 100 100 100 100
100 100 100 100 100 100 100 100 100 100 100 100 100 98 84 5 4 100 100 32 0 0 0 0 0 0 0 0 3 51 85 93 100 95 81 91 100 100 100 100 100 100 100 100 100 100 100 100 100
100 100 100 100 100 100 100 100 100 100 100 100 100 100 18 4 4 74 100 40 0 1 1 0 0 0 5 2 0 0 0 2 54 9 0 6 10 26 0 1 4 10 16 18 20 27 100 71 100

GFSSGP_prec_cloud_060.txt.gz
Cloud_Cover
0 0 0 0 0 0 0 1 4 0 0 0 0 0 0 0 0 0 0 1 3 0 0 0 0 0 0 0 1 2 1 0 2 75 6 5 2 5 5 100 90 49 71 73 100 100 100 100 33
0 0 0 0 0 0 4 81 5 1 0 0 0 0 0 0 0 1 0 0 0 0 0 0 0 23 1 0 0 1 0 2 11 40 7 5 20 4 5 12 100 100 59 100 100 100 100 47 11
0 0 0 0 0 5 1 17 5 0 0 0 0 0 0 0 0 0 0 0 0 0 10 0 0 2 36 0 0 18 0 5 87 81 88 97 97 13 92 100 100 100 100 97 100 100 100 86 90
0 0 0 0 0 5 5 2 5 0 0 0 0 0 19 1 0 0 0 0 0 0 43 0 0 0 17 13 1 5 2 0 1 87 79 100 100 100 100 100 100 100 52 99 100 98 100 100 99
0 0 0 0 0 5 2 0 0 0 0 0 0 0 9 5 0 0 0 0 0 0 4 0 3 0 0 2 1 6 58 100 100 95 100 100 100 100 100 100 100 100 85 100 100 100 100 100 100
0 0 0 0 0 41 84 0 0 0 0 0 1 19 27 0 0 0 0 0 0 0 0 7 79 83 92 69 70 100 100 100 100 100 100 100 99 100 91 100 100 85 48 100 100 100 94 93 100
0 0 0 0 0 7 100 1 0 0 0 0 2 1 0 5 0 0 0 0 0 0 28 55 34 100 97 92 96 100 100 100 100 100 100 100 100 100 78 100 87 100 100 73 100 100 100 100 100
0 0 0 1 0 25 26 4 0 0 0 0 0 0 0 0 0 0 0 0 12 26 5 19 78 100 100 84 100 100 100 100 100 100 100 100 100 100 100 100 100 100 100 94 97 93 100 100 100
0 0 3 14 4 48 21 4 0 0 0 0 0 0 0 0 0 0 0 51 10 55 48 90 100 100 99 100 100 100 100 100 100 100 100 100 100 100 100 100 100 100 100 100 100 100 100 100 100
0 2 95 100 5 100 100 1 0 0 0 0 4 35 4 0 0 0 0 0 2 3 83 100 76 99 100 100 100 100 100 100 100 100 100 100 100 100 99 100 94 100 100 100 100 100 100 100 100
3 12 100 31 75 21 68 4 0 0 4 0 3 5 0 0 0 0 0 0 86 8 88 100 74 93 100 100 100 100 100 100 100 100 100 100 100 100 100 100 100 93 100 100 100 100 100 100 100
93 100 89 100 100 81 9 1 0 11 6 0 7 4 0 0 0 0 0 0 88 79 100 100 99 99 96 100 100 100 100 100 100 100 100 100 100 100 100 100 100 100 100 100 100 100 100 100 100
12 100 100 100 100 86 5 4 0 36 5 1 99 84 0 0 0 0 0 0 0 51 86 100 98 99 79 100 100 100 100 100 100 100 100 100 100 100 100 100 100 100 100 100 100 100 100 100 100
100 100 100 100 100 80 6 1 1 5 1 2 100 73 0 0 0 0 0 5 49 28 76 92 100 100 100 84 100 100 100 100 100 100 89 100 100 100 100 100 100 100 100 100 100 100 100 100 100
100 100 100 100 100 74 5 5 40 4 3 100 68 0 0 0 0 0 0 0 17 35 59 100 100 100 100 87 98 100 100 100 100 100 100 100 100 100 100 100 100 100 100 100 100 100 100 100 100
100 75 100 100 100 10 6 4 58 4 30 45 0 0 0 0 0 0 0 0 0 87 47 100 74 100 88 100 99 100 100 98 99 100 100 100 100 100 100 100 100 100 100 100 100 100 100 100 100
100 100 100 100 95 54 68 5 5 85 27 2 1 37 1 0 0 0 0 0 0 85 99 72 98 100 94 100 100 100 100 100 100 100 100 100 100 100 100 100 100 100 100 100 100 100 100 100 100
100 100 100 100 76 100 95 5 5 6 0 0 0 0 55 2 0 0 0 0 0 6 100 100 88 100 100 100 100 100 100 100 100 100 100 100 100 100 100 100 100 100 100 100 100 100 100 100 100
100 100 100 100 100 100 67 26 5 5 5 4 0 0 4 50 1 0 0 0 0 4 82 100 100 100 100 100 100 100 100 100 100 100 100 100 100 100 100 100 100 100 100 100 100 100 100 100 100
100 100 100 100 100 100 76 60 26 5 1 2 3 2 0 52 5 0 0 0 0 5 98 100 100 100 100 100 100 100 100 100 100 100 100 100 100 100 100 100 100 100 100 100 100 100 100 100 100
100 100 100 100 100 100 31 93 20 14 6 5 3 0 14 95 32 0 0 0 0 0 88 100 100 100 100 77 100 100 100 100 100 100 100 100 100 100 94 100 100 100 100 100 100 100 100 100 100
100 100 100 100 100 100 94 99 32 66 10 5 5 3 0 4 54 1 0 0 0 0 18 100 100 100 100 99 100 92 100 99 100 100 100 100 100 100 99 100 100 100 100 100 100 100 98 100 100
100 100 100 100 100 99 59 44 96 76 68 20 7 5 0 4 0 0 0 0 0 0 1 100 100 100 100 100 100 100 100 98 86 100 100 100 100 100 100 100 100 100 100 100 100 94 100 100 100
100 100 100 100 98 88 100 100 19 99 100 36 74 41 5 1 0 0 0 0 0 0 0 50 100 100 100 100 100 99 100 100 100 100 100 100 100 100 100 100 100 100 100 100 100 100 100 100 100
100 100 100 100 100 100 100 100 100 100 98 62 84 22 5 5 4 0 0 0 3 0 0 8 100 100 100 100 100 100 100 100 100 100 100 100 100 100 100 100 100 100 100 100 100 100 100 100 100
100 100 100 100 100 100 100 100 100 100 82 63 100 86 12 93 5 5 3 5 32 1 0 0 91 100 100 100 100 100 100 100 100 100 100 100 100 100 99 100 100 99 100 100 100 100 100 100 100
100 100 100 100 100 92 100 100 100 100 100 6 99 100 88 100 100 8 0 5 5 7 0 0 0 36 91 100 97 99 100 100 100 100 100 100 100 100 100 100 100 100 100 100 100 100 100 100 100
100 100 100 100 100 100 100 100 100 100 100 59 81 98 100 100 100 99 22 4 5 55 4 0 0 0 7 77 100 100 93 99 100 100 100 100 100 100 100 100 100 100 100 100 100 100 100 100 100
100 100 100 100 100 100 100 100 100 100 100 100 100 81 50 100 100 47 100 58 6 99 100 15 0 1 0 5 34 99 100 100 100 100 100 100 100 100 100 100 100 100 100 100 100 100 100 100 100
100 100 100 100 100 100 100 100 100 100 100 100 100 100 81 75 97 34 5 5 14 31 100 100 4 2 2 0 6 24 64 100 91 13 4 3 3 54 100 98 100 100 100 100 100 100 100 100 100

GFSSGP_prec_cloud_063.txt.gz
Cloud_Cover
0 0 0 0 0 0 0 0 0 0 0 0 0 0 0 0 0 0 0 0 0 1 0 2 7 0 0 0 1 2 1 22 30 25 5 6 12 4 2 0 66 100 100 78 98 100 100 58 56
0 0 0 0 0 0 0 0 0 4 1 0 0 0 0 0 0 0 0 0 0 0 0 0 0 0 0 0 0 0 0 0 0 5 5 73 99 33 40 24 5 93 100 100 100 100 100 96 98
0 0 0 0 0 0 0 0 5 5 0 0 0 0 0 0 0 0 0 0 0 0 0 0 0 8 0 0 0 9 0 0 0 2 99 80 30 49 5 10 11 92 100 99 100 100 100 96 100
0 0 0 0 0 0 0 0 0 0 0 0 0 0 0 0 0 0 0 0 0 0 1 4 0 0 2 0 29 7 0 1 2 0 100 76 16 75 5 47 5 88 5 97 100 72 100 100 90
0 0 0 0 0 0 0 4 4 1 0 0 0 0 0 0 0 0 0 0 0 0 0 29 16 0 0 1 8 64 0 13 93 100 100 100 100 100 88 46 20 100 100 93 100 99 100 10 96
0 0 0 0 0 0 0 0 37 0 0 0 0 0 0 0 0 0 0 0 0 0 0 1 38 30 1 5 85 47 80 100 100 100 100 100 100 100 100 99 100 100 100 98 5 77 38 89 100
0 0 0 0 0 0 0 5 100 5 0 0 0 0 0 0 0 0 0 0 0 0 0 81 69 72 100 78 100 100 100 100 100 100 100 100 100 100 100 100 100 100 100 100 100 100 25 100 100
0 0 0 0 0 0 4 5 5 10 0 0 0 0 0 0 0 0 0 0 0 0 0 0 74 53 71 100 100 100 100 100 100 100 100 100 100 100 100 100 100 100 100 100 100 100 62 100 100
0 0 0 0 0 5 3 61 93 4 0 0 0 0 0 0 0 0 0 0 0 0 0 2 0 13 100 100 100 100 100 100 100 100 100 100 100 100 100 100 100 100 100 100 100 79 100 100 100
0 0 0 0 0 4 5 98 100 5 5 0 0 1 0 0 0 0 0 0 0 3 14 0 12 100 100 97 100 100 100 100 100 100 100 100 100 100 96 100 100 100 63 87 98 100 100 100 100
3 0 0 4 27 0 2 81 63 6 24 0 0 4 3 0 0 0 0 0 0 0 13 1 100 100 100 100 99 100 100 100 100 100 100 100 100 100 55 91 100 96 91 75 100 100 100 97 100
97 12 81 95 9 0 3 23 74 10 5 0 0 5 1 3 0 0 0 0 0 0 5 2 100 100 100 100 100 100 100 100 100 100 100 100 100 100 77 100 93 100 100 99 99 100 100 100 100
31 75 100 100 20 0 17 24 58 93 2 0 0 5 5 94 4 0 0 0 0 0 94 20 100 98 100 100 100 100 100 100 100 100 100 100 100 88 57 100 100 100 100 100 100 100 100 100 100
100 96 100 100 88 5 87 100 91 72 0 0 2 5 5 100 90 0 0 0 0 4 73 79 78 100 100 100 100 100 100 100 100 100 100 100 100 100 100 87 100 99 88 18 98 96 100 100 100
100 30 46 93 97 94 100 100 100 76 5 0 5 5 43 100 11 0 0 0 0 0 96 100 100 98 100 100 100 100 100 100 100 100 100 100 100 97 100 100 100 100 66 98 94 100 100 100 100
82 99 100 100 100 100 100 100 100 34 5 0 5 29 97 0 0 0 0 0 0 2 28 100 100 100 100 100 100 100 100 100 100 100 100 100 100 100 100 100 100 100 98 100 99 100 100 100 100
99 90 100 100 100 100 98 100 100 5 5 5 4 82 7 0 0 0 0 0 0 0 4 84 100 100 98 99 97 100 100 100 100 100 100 100 100 100 100 100 100 100 100 100 100 100 100 100 100
100 100 100 100 100 100 100 100 100 56 3 0 5 99 14 0 0 0 0 0 0 0 0 72 100 100 100 60 80 100 100 100 100 100 100 100 100 100 100 100 100 100 91 100 100 100 100 100 100
100 100 58 100 27 100 100 100 100 99 16 2 93 60 1 0 0 0 0 0 0 0 0 92 100 100 100 100 100 100 100 100 100 100 100 100 100 100 100 100 100 100 100 100 100 100 100 100 100
100 95 62 100 100 100 100 89 100 100 52 5 0 0 1 0 1 0 0 0 0 0 0 57 100 100 100 100 100 98 100 100 100 100 100 100 100 100 100 100 100 100 100 100 100 100 100 100 100
100 100 100 100 100 100 100 78 95 100 99 8 5 0 0 0 0 0 0 0 5 0 0 1 99 100 100 100 100 100 100 100 100 100 100 100 100 100 100 100 100 100 100 100 100 100 100 100 100
69 100 100 100 100 100 100 100 81 94 72 32 6 5 3 4 0 0 0 0 14 0 0 0 100 100 100 100 100 100 100 100 100 100 100 100 100 100 100 100 100 100 100 100 100 100 100 100 100
99 100 100 100 100 100 100 78 92 56 70 86 38 5 5 5 1 0 0 0 0 0 6 0 87 100 100 100 100 99 100 100 100 100 100 100 100 100 100 100 100 100 100 100 100 100 100 100 100
100 100 100 100 100 100 100 100 31 100 100 84 100 97 5 5 5 3 0 0 0 0 16 2 26 100 100 100 100 100 79 99 83 100 100 100 100 100 100 100 100 100 97 100 100 100 100 100 100
100 100 100 100 98 100 100 100 100 82 96 81 69 77 11 5 5 58 5 0 0 2 28 19 9 97 100 100 89 100 100 84 19 95 58 85 100 100 100 100 100 100 96 100 100 100 100 100 100
100 100 100 100 100 100 100 100 100 85 85 100 100 100 30 5 5 6 18 5 0 0 10 0 7 5 100 100 95 84 100 100 96 100 99 99 100 100 100 100 100 100 100 100 100 100 100 100 100
100 100 100 100 100 100 100 100 100 100 100 95 58 100 93 14 12 52 100 100 5 0 0 0 5 4 86 100 100 87 100 100 100 100 100 100 100 100 100 100 100 100 100 100 100 100 100 100 100
100 100 100 100 100 100 100 100 100 100 99 100 100 100 100 100 100 100 100 100 25 5 1 2 8 100 19 100 100 94 100 100 99 38 100 100 100 100 100 100 100 100 100 100 100 100 100 99 100
100 100 100 100 99 100 100 100 100 100 100 100 100 100 100 61 99 100 100 100 82 64 5 1 7 100 85 8 76 100 100 100 100 86 0 76 100 100 100 100 100 100 100 100 100 100 100 100 100
100 100 100 100 100 100 100 100 100 100 100 100 100 100 100 68 58 56 48 100 100 76 73 20 50 98 100 99 5 24 100 100 100 100 100 82 5 4 98 100 100 100 100 100 100 100 100 100 100

GFSSGP_prec_cloud_066.txt.gz
Cloud_Cover
0 0 0 0 0 0 0 0 0 0 0 0 0 0 0 0 0 0 0 0 0 4 50 3 0 0 1 9 0 0 13 4 0 0 2 87 11 1 5 5 5 82 99 97 42 8 100 100 11
3 0 0 0 0 0 0 0 0 0 0 0 0 0 0 0 0 0 0 0 0 0 24 47 0 1 12 7 0 0 6 58 52 0 5 5 5 4 5 5 5 5 41 100 92 100 100 68 37
0 0 0 0 0 0 0 0 0 0 0 0 0 0 0 0 0 0 0 0 0 0 1 45 1 0 2 0 0 0 14 13 18 2 4 4 5 5 5 5 84 97 85 37 100 100 97 6 81
0 0 0 0 0 0 0 0 0 0 0 0 0 0 0 0 0 0 0 0 0 0 0 11 12 0 0 0 0 0 15 20 56 38 72 42 6 5 5 5 5 6 83 87 100 75 21 31 28
0 0 0 0 5 1 0 0 0 0 0 0 0 0 0 0 0 0 0 0 0 0 0 21 20 12 0 0 0 58 100 88 100 98 37 100 79 100 100 40 5 5 5 97 11 10 100 100 34
5 22 4 0 13 3 0 0 0 0 0 0 0 0 0 0 0 0 0 0 0 0 0 0 53 33 0 0 12 76 100 100 100 92 95 100 100 100 100 87 93 100 71 51 34 8 17 44 97
5 2 0 0 0 0 0 0 0 0 0 0 0 0 0 0 0 0 0 0 0 0 0 0 98 55 5 0 8 100 100 100 100 100 100 100 100 100 100 100 100 100 100 98 100 97 76 29 100
0 0 0 0 0 0 0 0 0 0 4 2 0 0 0 0 0 0 0 0 0 0 0 0 88 100 100 97 100 100 100 100 100 100 100 100 100 100 100 100 100 95 90 100 100 100 51 100 100
2 0 0 0 0 0 80 0 0 20 2 1 2 29 1 0 0 0 0 0 4 2 0 0 0 44 100 100 87 100 100 100 100 100 100 100 100 100 100 100 100 100 100 100 76 92 55 100 100
0 0 0 0 0 0 55 0 0 16 5 2 2 90 4 0 0 0 0 0 0 11 1 0 11 58 80 99 95 100 100 98 100 100 100 100 100 100 100 100 90 100 91 96 73 99 58 100 100
0 0 0 0 0 3 78 1 0 0 5 0 50 77 4 0 0 0 0 0 0 0 14 17 55 87 96 100 100 100 100 100 100 100 100 100 100 100 100 100 100 68 100 100 100 100 98 100 100
0 0 0 0 0 96 100 18 0 0 0 3 48 99 1 0 0 0 0 0 5 25 18 38 68 100 100 100 100 100 100 100 100 100 100 100 100 100 100 100 100 100 100 99 73 30 52 81 100
0 0 0 0 41 100 100 6 0 0 5 1 65 40 1 0 0 0 4 3 0 19 23 40 98 100 100 100 100 100 100 100 100 100 100 100 100 100 100 100 100 98 100 78 85 96 82 100 100
0 0 0 0 100 96 4 30 1 2 74 2 100 5 0 0 5 0 11 58 3 21 17 42 48 100 100 100 100 100 100 100 100 100 100 100 100 100 100 81 100 100 100 97 100 99 92 100 100
5 0 0 47 100 90 5 38 50 100 94 34 99 4 0 4 5 15 5 3 18 3 6 10 39 100 100 100 100 100 100 100 100 100 100 100 100 100 100 96 100 100 100 100 100 100 74 100 100
5 0 4 95 100 100 60 51 100 100 100 99 78 2 0 0 7 6 4 0 10 4 6 21 33 85 92 100 100 100 100 100 100 100 100 100 100 100 100 100 100 100 100 100 100 100 98 98 100
5 2 85 100 100 100 40 100 100 100 100 54 8 5 0 4 87 5 0 0 20 13 23 64 55 100 100 100 100 100 100 100 100 100 100 100 100 100 100 100 100 100 100 100 100 100 96 87 98
20 7 63 100 100 100 85 100 100 71 100 34 14 5 2 6 71 3 0 0 36 46 13 21 100 100 98 100 88 100 100 100 100 100 100 100 100 100 100 100 100 100 100 98 100 100 100 88 100
17 5 77 100 61 2 4 100 100 74 97 17 5 5 52 7 6 9 0 32 53 74 58 35 93 100 100 100 100 100 100 100 100 100 100 100 100 100 100 100 100 100 100 100 100 100 100 100 100
99 10 72 100 100 94 60 100 100 81 97 5 5 10 74 80 5 5 9 63 62 88 37 26 80 100 100 100 100 100 100 100 100 100 100 100 100 100 100 100 100 100 100 100 100 100 95 100 100
100 65 100 100 80 99 60 98 82 100 95 5 5 10 83 84 0 1 18 47 49 98 55 42 71 100 100 100 100 100 100 100 100 100 100 100 100 100 100 100 100 100 100 100 100 98 100 100 100
100 99 100 100 35 4 53 64 100 100 40 26 71 43 19 5 0 0 0 75 47 68 44 35 37 99 100 100 100 71 100 100 100 100 100 100 100 100 100 100 100 100 100 100 100 100 100 100 100
100 100 100 100 3 17 51 100 100 100 100 100 73 87 65 8 1 0 0 0 22 42 66 45 45 81 100 100 98 71 80 100 100 100 100 100 100 100 100 100 100 100 100 100 100 100 100 100 100
100 100 100 60 50 20 92 100 100 100 97 56 9 73 89 69 5 3 1 0 33 57 81 69 46 50 100 100 100 72 99 100 100 100 100 100 100 100 100 100 100 100 100 100 100 100 100 100 100
100 100 100 81 36 92 100 100 100 100 100 89 62 32 38 54 5 3 5 1 65 100 100 82 36 85 88 100 100 100 97 99 100 96 80 100 100 100 100 100 100 100 100 100 100 100 100 100 100
100 100 100 100 89 100 100 100 100 100 100 87 13 99 39 59 17 5 5 3 29 86 99 60 63 90 52 94 100 100 100 66 100 80 60 100 64 100 100 100 100 100 100 100 100 100 100 100 100
100 100 100 100 100 100 97 100 100 80 100 80 24 12 90 33 90 32 5 5 2 53 47 26 53 55 58 49 92 97 81 42 0 92 100 100 29 99 100 100 100 100 100 100 100 100 100 100 100
100 100 100 100 100 100 100 100 100 95 100 100 5 5 66 100 100 30 4 5 100 100 100 17 5 17 28 31 65 90 33 32 36 15 0 5 100 68 100 100 100 100 99 100 100 99 100 100 85
100 100 100 100 100 100 100 100 100 100 33 76 7 74 100 100 100 100 100 100 46 100 100 55 26 24 6 35 44 29 97 49 99 96 27 0 0 4 74 100 100 100 100 100 100 91 83 93 72
100 100 100 100 100 100 100 100 100 100 100 100 99 87 81 100 100 100 100 100 100 100 100 60 74 78 99 94 22 16 10 42 100 100 100 97 6 0 5 4 30 94 100 100 100 100 99 86 100

GFSSGP_prec_cloud_069.txt.gz
Cloud_Cover
0 0 0 0 0 0 0 0 0 0 0 0 0 0 0 0 0 0 0 0 0 40 57 26 0 39 0 12 7 3 0 0 4 33 36 2 0 5 5 3 5 5 5 99 6 5 5 72 12
0 0 0 0 0 0 0 0 0 0 0 0 0 0 0 0 0 0 0 0 0 32 71 36 2 13 1 0 3 1 0 0 0 20 80 46 0 2 5 0 3 5 5 42 6 17 100 98 94
2 5 0 0 0 0 2 0 0 0 0 0 0 0 0 0 0 0 0 0 0 25 92 33 11 0 0 1 3 0 0 89 62 0 6 69 0 5 5 0 0 3 5 5 36 75 65 46 94
0 0 0 0 0 4 5 0 0 0 0 0 0 0 0 0 0 0 0 0 0 1 63 75 5 0 1 0 0 0 37 100 100 99 4 2 0 4 3 4 5 5 5 5 6 7 92 100 100
0 2 0 0 0 1 4 2 0 0 0 0 0 0 0 0 0 0 0 0 0 0 9 86 20 1 10 21 12 1 47 100 87 28 100 90 25 5 12 5 8 2 4 5 5 5 5 100 100
26 5 0 0 0 1 47 5 0 0 0 0 0 0 0 0 0 0 0 0 0 0 3 47 94 37 6 12 0 19 95 100 100 100 38 99 98 56 99 100 100 100 64 3 2 5 7 99 84
33 5 0 2 23 19 86 5 3 0 0 0 0 0 0 0 0 0 0 0 0 0 20 35 91 100 67 4 1 75 100 100 100 100 100 100 100 100 67 100 100 100 49 19 5 29 36 97 15
6 5 5 9 17 66 8 1 0 0 0 0 0 0 0 0 0 0 0 0 1 0 0 19 57 44 10 17 4 76 100 100 100 100 100 100 100 100 100 100 100 100 100 100 94 98 100 95 5
100 100 93 99 89 98 6 2 0 0 0 0 27 63 5 0 0 5 48 0 3 24 14 1 11 19 97 100 82 81 100 100 100 100 100 100 100 100 100 100 94 100 55 72 100 96 100 88 6
74 0 7 10 4 0 0 0 0 0 0 0 2 81 36 0 0 5 4 0 7 31 6 4 34 55 49 86 100 100 100 100 100 100 100 100 100 100 100 100 100 87 88 92 100 100 99 54 86
24 18 5 7 0 0 0 0 0 0 5 2 0 5 1 0 5 5 2 0 2 2 22 24 74 100 98 100 100 100 100 100 100 100 100 100 100 100 100 100 84 96 100 49 70 100 100 92 87
0 0 0 0 0 0 0 0 0 5 5 0 0 0 20 0 5 26 5 0 3 22 25 75 100 100 100 100 100 100 100 100 100 100 100 100 100 100 100 100 99 100 98 53 90 85 100 100 100
0 0 0 0 0 0 0 0 0 5 0 2 0 74 100 3 5 11 5 5 2 28 43 100 100 100 100 100 100 100 100 100 100 100 100 100 100 100 100 100 91 100 100 91 35 89 100 93 73
5 5 0 0 0 0 0 0 5 5 5 0 33 100 99 7 5 5 5 5 9 15 63 100 100 100 100 100 100 93 75 100 100 100 100 100 100 100 100 100 89 100 100 92 77 98 100 98 70
99 2 0 0 0 0 0 0 5 73 5 95 100 100 100 31 49 5 5 0 1 6 48 100 100 100 97 100 100 100 97 100 100 100 100 100 100 99 100 100 100 100 94 60 80 100 100 98 15
51 0 0 0 0 0 100 2 100 90 97 62 100 100 100 79 40 17 5 0 39 16 64 88 99 100 100 100 99 100 100 100 100 100 100 100 100 100 100 100 100 77 51 100 100 100 99 100 67
0 0 0 0 0 35 86 1 100 100 86 7 100 100 99 87 90 6 4 5 15 3 12 95 100 100 89 100 100 82 100 100 100 100 100 100 100 100 100 100 100 100 100 100 100 100 93 100 100
0 0 0 0 28 24 11 5 100 86 82 100 100 100 38 100 67 6 5 26 17 9 11 85 100 97 100 100 100 99 100 100 100 100 100 100 100 100 100 100 100 100 100 100 100 100 95 100 100
0 2 0 0 5 17 65 60 100 1 3 100 100 70 8 99 5 5 42 43 61 43 49 100 100 100 100 100 100 100 100 100 100 100 100 100 100 100 100 100 100 100 94 98 100 100 98 99 100
3 0 3 100 89 16 14 62 100 0 91 100 100 100 82 18 5 51 78 100 99 100 64 100 100 100 100 100 100 100 100 100 100 100 100 100 100 100 100 100 100 100 100 100 100 82 99 100 100
0 0 11 100 100 66 39 98 46 4 96 100 100 100 83 6 0 99 100 100 100 100 100 72 95 100 100 100 100 100 100 100 100 100 100 100 100 100 100 100 100 100 100 100 100 100 99 91 99
4 3 15 94 30 5 0 95 0 40 91 80 81 62 13 0 4 88 100 100 100 100 73 34 87 100 100 99 100 100 100 100 100 100 100 100 100 100 100 100 100 100 100 100 100 98 94 100 100
58 16 99 100 67 96 0 6 89 4 99 100 34 100 100 100 5 95 39 96 100 100 98 75 100 100 64 92 100 100 100 100 100 100 100 100 100 100 100 100 100 100 100 100 100 100 100 95 100
5 81 100 100 71 84 1 76 100 100 100 100 100 100 100 100 86 5 80 98 100 100 100 100 100 72 19 38 98 100 97 100 100 98 100 100 100 100 100 100 100 100 100 100 100 100 100 100 100
7 100 100 100 100 44 11 100 100 100 100 100 100 100 100 100 100 70 28 82 100 100 100 100 100 97 32 56 87 20 10 76 100 100 100 100 100 100 100 100 100 100 100 100 100 100 100 100 100
6 100 100 97 98 25 76 100 100 100 99 61 6 16 100 100 100 7 5 82 88 100 100 100 100 100 78 32 66 26 10 17 91 100 100 100 100 98 100 100 100 100 100 100 100 100 100 100 100
66 100 100 100 100 48 100 100 100 100 79 36 18 39 100 100 100 58 29 82 59 92 100 100 100 92 100 43 18 42 17 7 2 21 100 100 100 100 100 100 100 100 100 100 100 100 100 100 100
96 100 100 100 100 99 100 100 100 100 78 74 87 47 97 100 100 89 92 95 57 68 100 100 100 97 100 99 24 22 42 73 0 0 46 100 85 94 37 97 77 100 100 100 100 100 100 100 100
100 100 100 100 100 100 100 100 100 100 73 40 100 14 73 100 100 100 92 88 38 100 100 100 100 100 100 100 100 86 34 83 8 0 0 4 8 37 48 100 40 95 100 100 100 100 100 99 100
100 100 100 100 100 100 100 100 100 99 29 79 100 63 74 100 100 57 99 78 26 59 35 100 100 100 99 100 100 100 34 28 90 18 0 0 0 2 37 79 100 100 100 100 100 99 98 98 88

GFSSGP_prec_cloud_072.txt.gz
Cloud_Cover
0 0 0 0 0 0 0 0 0 0 0 0 0 0 0 0 0 0 0 0 0 6 90 41 92 100 17 0 1 16 20 23 21 5 0 3 2 83 91 96 17 99 25 44 6 5 6 44 82
5 5 0 0 0 0 0 0 0 0 0 0 0 0 0 0 0 0 0 0 0 1 84 60 33 100 84 0 0 39 86 77 5 4 0 0 0 62 83 44 5 4 100 83 19 5 32 80 86
24 3 0 0 0 0 0 0 0 0 0 0 0 0 0 0 0 0 0 0 4 31 66 54 18 98 80 0 0 1 79 100 84 13 2 1 0 92 5 1 0 0 4 5 14 96 68 98 94
2 1 3 0 1 0 0 0 0 0 0 0 0 0 0 0 0 0 0 0 4 60 62 35 26 11 65 4 0 0 0 49 100 39 24 2 14 0 5 1 4 0 0 0 56 50 100 59 100
1 1 5 1 3 0 0 0 0 0 0 0 0 0 0 0 0 0 0 0 2 61 90 94 43 24 63 20 1 0 0 11 87 100 100 100 36 33 17 4 5 5 1 1 1 35 24 38 95
7 14 7 5 5 4 24 4 0 0 0 0 0 0 0 0 0 0 0 0 0 9 65 97 96 48 24 100 0 0 77 82 100 99 100 100 100 100 100 100 5 32 96 68 22 16 4 19 78
15 19 86 30 72 70 66 4 0 0 0 0 0 0 0 0 0 0 0 0 0 0 19 59 100 99 20 22 0 66 100 100 100 100 100 100 100 100 100 100 100 100 100 100 100 40 32 33 20
22 41 13 49 100 100 6 52 5 0 0 0 0 0 0 0 0 1 0 0 0 1 2 48 99 100 87 52 56 100 100 100 100 100 100 100 100 100 100 100 100 100 100 100 100 18 97 89 5
94 43 95 100 100 58 55 26 6 3 0 0 0 0 0 3 4 0 0 16 24 25 11 48 100 100 71 8 53 12 100 100 100 100 100 100 100 100 100 100 100 100 100 100 100 100 87 29 43
98 100 100 100 75 75 8 39 80 14 1 0 0 3 4 0 0 0 0 36 26 52 40 26 66 72 40 45 79 20 24 100 100 100 100 100 100 100 100 100 100 100 100 100 49 69 94 41 23
100 100 100 63 17 35 20 14 8 0 0 0 0 18 4 0 0 0 0 0 1 1 23 34 84 100 100 100 100 98 98 100 100 100 100 100 100 100 100 100 100 100 100 100 14 50 36 100 100
100 100 100 100 20 3 5 0 0 0 0 2 2 5 0 0 0 5 5 0 2 20 14 36 100 100 100 100 100 100 99 100 100 100 100 100 100 100 100 100 100 100 100 100 57 90 84 98 84
5 76 82 61 2 4 5 1 2 0 0 0 5 5 1 0 25 33 81 3 5 20 26 100 100 100 100 100 100 100 100 100 100 100 100 100 100 100 89 100 100 100 100 100 38 96 76 99 88
21 51 5 5 50 74 43 42 0 0 0 0 4 2 0 78 100 77 97 6 6 6 57 100 100 100 100 100 94 100 100 100 100 100 100 100 100 100 100 100 100 100 100 100 94 100 92 98 69
80 11 11 84 100 99 17 0 0 0 0 0 0 0 27 100 100 99 36 6 50 5 64 100 100 100 100 100 96 100 100 100 100 100 100 100 100 100 100 100 100 100 100 100 100 75 98 72 6
14 4 32 100 100 93 0 0 0 0 0 0 0 0 100 99 100 98 7 15 100 23 91 100 100 100 100 100 100 98 100 100 100 100 100 100 100 100 100 100 100 100 100 100 100 100 65 67 66
100 29 96 100 100 4 1 0 0 0 4 67 5 74 100 12 99 97 3 68 100 6 98 100 100 100 100 100 98 100 100 100 100 100 100 100 100 100 100 100 100 100 100 100 100 100 95 100 91
98 100 100 100 93 0 0 0 0 1 5 5 5 100 82 95 100 100 5 97 63 23 63 100 100 100 85 59 100 100 100 100 100 100 100 100 100 100 100 100 100 100 100 100 100 100 100 96 73
48 100 100 100 5 0 0 0 0 48 1 4 100 89 82 100 100 100 24 100 36 36 77 100 100 99 100 91 100 100 100 100 100 100 100 100 100 100 100 100 100 100 100 100 100 100 100 100 70
100 100 100 32 0 0 0 0 0 100 3 5 4 50 100 100 96 99 50 100 37 61 79 100 100 100 100 100 99 100 100 100 100 100 100 100 100 100 100 100 100 100 100 100 100 100 100 88 100
100 100 76 2 0 0 0 0 64 100 5 0 66 100 100 100 100 65 59 45 41 45 86 100 100 100 100 100 100 100 96 100 100 100 100 100 100 100 100 100 100 100 100 100 100 100 100 100 100
100 36 16 5 3 0 2 23 97 91 0 17 100 100 100 100 98 68 41 56 96 68 88 100 100 100 100 100 100 100 100 91 100 100 100 100 100 100 100 100 100 100 100 100 100 100 100 100 100
100 100 91 90 37 6 0 56 100 42 0 84 100 100 100 100 97 51 100 7 100 94 100 100 99 100 100 100 100 100 100 73 100 100 100 100 100 100 100 100 100 100 100 100 100 100 100 100 100
75 84 89 100 60 69 5 96 100 37 5 100 100 100 100 100 98 63 97 100 100 99 100 65 100 100 100 100 100 100 100 100 90 98 100 100 100 100 100 100 100 100 100 100 100 100 100 100 100
47 73 98 95 100 68 99 41 99 89 65 100 100 100 100 92 31 60 100 100 100 100 100 100 100 100 100 100 100 100 100 100 100 100 92 100 100 100 100 100 100 100 100 100 100 100 100 100 100
5 61 97 100 46 6 100 8 96 88 100 100 72 100 100 16 24 85 100 100 74 100 100 100 100 100 100 78 70 100 100 98 93 100 99 100 100 100 100 100 100 100 100 100 100 100 100 100 100
33 80 65 100 100 99 100 82 100 90 100 100 70 100 99 95 100 5 19 30 77 100 100 100 100 100 100 76 12 33 55 99 100 100 100 100 100 100 100 100 100 100 100 100 100 100 100 100 100
12 100 100 100 100 100 100 100 68 100 100 99 91 100 100 100 100 96 84 98 100 100 100 100 100 100 79 98 11 9 10 54 98 100 100 100 100 100 100 100 100 100 100 100 100 100 100 100 100
49 83 100 100 100 100 100 100 100 100 100 100 100 100 100 100 99 75 100 100 100 100 100 100 100 100 100 100 99 18 16 22 15 34 48 100 100 100 100 100 94 100 86 100 100 100 100 100 100
91 81 100 100 100 100 100 100 100 100 100 100 100 100 100 100 100 100 100 100 100 100 100 100 100 100 100 100 100 100 98 21 17 2 0 12 95 100 100 100 71 26 68 100 100 100 100 100 100

GFSSGP_prec_cloud_075.txt.gz
Cloud_Cover
4 4 0 0 0 0 0 0 0 0 0 0 0 0 0 0 0 0 0 0 0 0 29 6 90 98 0 5 29 23 5 1 3 0 0 0 4 0 4 27 7 99 64 9 47 69 18 100 15
5 5 5 5 0 0 12 0 0 0 0 0 0 0 0 0 0 0 0 0 0 1 31 0 70 100 4 0 2 84 95 13 12 16 1 11 0 0 0 4 7 34 89 23 15 6 100 91 61
5 5 58 19 5 5 5 1 0 0 0 0 0 0 0 0 0 0 0 0 0 0 15 8 58 100 42 0 0 36 100 98 14 28 1 6 0 1 7 46 5 0 1 100 83 34 99 7 80
88 36 26 10 74 91 5 1 0 0 0 0 0 0 0 0 0 0 0 0 0 0 17 95 35 100 100 0 0 0 80 88 66 14 5 7 76 59 0 40 5 1 2 2 98 86 28 10 8
97 100 99 100 100 63 15 0 0 0 0 0 0 0 0 0 0 0 0 0 0 41 39 77 34 100 100 17 0 0 43 58 100 31 7 68 87 21 100 8 67 0 4 4 3 91 52 13 59
25 100 100 100 67 90 100 47 5 0 0 0 0 0 0 0 0 0 0 0 0 26 79 86 98 100 100 84 0 0 1 69 100 100 90 63 98 100 100 100 29 7 5 5 19 19 23 98 100
5 9 87 100 100 100 99 84 5 4 3 2 0 0 0 0 0 0 0 0 0 0 37 100 100 98 100 100 24 0 2 97 100 100 100 100 100 100 100 100 95 57 10 51 97 99 39 10 51
51 94 47 90 81 100 100 9 3 5 0 0 0 0 0 0 0 2 0 0 0 0 6 88 100 100 100 59 61 1 4 100 100 100 100 100 100 100 100 100 100 100 100 100 100 100 99 81 5
45 72 96 100 100 100 73 5 25 26 5 2 1 0 0 0 1 0 0 0 13 30 22 85 100 99 100 73 96 7 5 100 100 100 100 100 100 100 100 100 100 100 100 100 100 100 76 100 42
94 94 71 100 100 100 64 89 78 22 40 5 0 0 4 5 1 0 0 0 5 2 35 62 88 57 100 69 93 30 0 57 100 100 100 100 100 100 100 100 100 100 100 100 100 100 100 94 76
67 85 100 100 100 100 100 97 100 86 5 0 10 5 1 0 0 0 0 0 0 0 24 44 94 100 100 100 100 94 61 25 94 100 100 100 100 100 100 100 100 100 100 100 100 100 29 88 12
18 98 100 100 100 100 100 100 100 83 53 43 2 0 0 0 0 0 0 0 0 0 4 42 100 100 100 100 100 100 97 100 100 99 98 100 100 100 100 100 100 100 100 98 89 98 97 14 26
100 100 100 100 100 100 94 89 32 0 50 100 3 0 0 0 0 0 0 2 22 5 5 66 100 92 100 100 100 100 100 73 89 100 100 100 100 100 100 100 100 100 100 100 99 90 88 25 72
100 100 100 100 67 57 34 19 0 91 99 14 3 0 0 0 0 0 2 5 2 5 2 97 100 100 100 100 100 100 100 72 92 100 100 100 100 100 100 100 100 100 100 100 100 92 95 70 40
100 100 100 100 97 97 71 4 50 96 100 100 0 0 0 0 0 0 99 1 67 5 4 100 98 100 100 100 100 100 100 100 100 100 100 100 98 100 100 100 100 100 100 100 100 92 54 40 11
100 100 100 100 100 100 76 2 100 93 100 13 0 0 0 0 0 60 74 90 7 4 32 97 100 100 100 100 100 100 100 100 100 100 100 100 99 100 100 100 100 100 100 100 100 100 83 84 83
100 100 100 100 100 100 85 18 91 80 89 0 0 0 0 0 0 100 40 100 53 5 12 98 100 100 100 100 100 100 100 100 100 100 100 100 100 100 100 100 100 100 100 100 100 100 67 100 78
100 100 100 100 100 66 4 0 5 100 17 0 0 0 0 0 43 60 96 100 36 48 10 86 100 100 100 100 100 100 100 100 100 100 98 100 100 100 100 100 100 100 100 100 100 86 100 100 100
100 100 100 100 100 97 8 0 95 100 5 0 0 0 1 100 100 5 78 100 73 26 86 100 100 100 100 100 100 100 100 100 100 100 100 100 100 100 100 100 100 100 100 100 100 100 100 100 100
100 100 100 99 99 12 57 16 99 91 2 0 0 5 70 61 85 18 100 100 77 25 87 100 90 90 97 50 61 100 100 100 100 100 100 100 100 100 100 100 100 100 100 100 100 100 100 100 100
100 100 100 95 100 90 15 14 100 36 0 0 3 3 94 7 100 100 100 100 64 83 69 97 76 100 74 100 100 100 100 100 100 100 100 100 100 100 100 100 100 100 100 100 100 100 100 100 99
100 100 96 100 100 100 3 17 100 29 0 61 1 0 68 100 100 91 82 69 97 99 91 70 95 100 100 100 100 100 100 100 100 100 100 100 100 100 100 100 100 100 100 100 100 100 100 100 100
100 100 100 100 96 79 98 44 98 0 48 88 3 5 100 100 100 100 78 100 99 56 79 100 100 97 100 100 100 100 100 88 100 100 100 100 100 100 100 100 100 100 100 100 100 100 100 100 100
100 100 100 95 60 99 100 22 5 17 16 65 4 11 100 98 100 88 62 100 100 98 100 100 100 99 100 100 79 100 100 100 88 100 100 100 100 100 100 100 100 100 100 100 100 100 100 100 100
100 100 100 99 96 66 94 7 2 16 35 77 3 96 100 15 62 100 100 94 100 100 100 100 100 100 100 100 98 100 100 100 100 100 100 100 100 100 100 100 100 100 100 100 100 100 100 100 100
100 100 100 91 84 69 34 7 0 13 41 13 5 96 100 57 87 100 100 94 100 100 100 100 100 100 100 100 100 100 100 100 100 100 100 100 100 100 100 100 100 100 100 100 100 100 100 100 100
100 100 51 99 19 100 60 4 4 74 75 77 28 100 100 100 100 100 100 80 100 100 100 100 100 100 100 100 100 77 100 100 100 100 100 98 100 100 100 100 100 100 100 100 100 100 100 100 100
100 100 100 100 68 67 52 9 70 100 100 43 99 100 100 100 100 100 100 96 100 100 100 100 100 63 98 100 96 56 24 97 100 100 100 100 100 100 100 95 91 100 100 100 100 100 100 100 100
100 100 100 100 81 91 88 99 100 100 94 92 100 100 100 100 100 100 100 100 100 100 100 100 100 86 66 100 100 77 66 54 64 99 100 100 100 100 100 100 100 100 100 100 100 100 100 100 100
100 100 99 100 100 100 99 34 100 100 100 100 100 100 100 100 100 100 100 100 100 100 100 100 100 100 99 100 100 100 99 95 91 73 50 78 100 100 100 100 100 100 100 100 96 100 100 100 100

GFSSGP_prec_cloud_078.txt.gz
Cloud_Cover
47 9 5 5 4 5 4 0 0 0 0 0 0 0 0 0 0 0 0 0 0 0 0 0 14 0 0 8 10 0 0 0 0 0 0 0 0 3 0 0 5 5 5 5 5 5 11 17 12
54 8 48 5 5 11 30 15 0 0 0 0 0 0 0 0 0 0 0 0 0 0 0 0 0 0 0 0 1 0 0 0 0 0 0 1 4 4 0 3 4 1 73 5 5 20 12 16 5
54 53 16 5 66 99 12 36 0 0 0 0 0 0 0 0 0 0 0 0 0 0 0 0 0 16 0 3 0 0 0 9 4 12 0 1 9 0 0 0 0 5 7 74 7 5 31 6 5
46 5 5 25 79 62 99 11 5 0 0 0 0 0 0 0 0 0 0 0 0 0 0 40 15 99 2 0 0 0 96 86 100 12 0 1 1 1 0 2 96 11 2 0 4 14 55 69 11
86 14 8 59 100 82 97 20 5 6 15 1 0 0 0 0 0 0 0 0 0 0 0 0 20 50 24 0 0 0 66 100 100 64 3 0 0 2 30 76 82 93 90 0 0 25 53 80 5
51 20 15 7 74 100 93 91 100 50 19 15 2 29 10 2 0 0 0 0 0 0 0 0 18 1 0 0 0 0 2 28 100 80 96 38 42 97 100 100 100 99 97 16 8 34 99 22 5
20 36 24 5 7 74 63 81 99 91 76 68 59 23 5 0 0 0 0 0 0 0 0 5 85 35 1 4 0 0 6 0 5 78 100 100 100 100 100 100 100 100 80 71 86 26 38 10 13
5 1 4 48 32 46 90 100 54 14 4 5 6 4 0 0 1 0 0 1 0 0 0 98 100 100 53 74 48 0 0 0 0 88 100 100 100 100 100 100 100 100 100 96 24 26 100 40 32
5 1 1 0 32 85 100 100 6 6 44 75 10 5 5 0 0 0 0 0 3 1 0 76 100 100 43 96 72 63 0 0 1 98 100 100 100 100 100 100 100 100 100 100 100 98 100 100 100
1 62 1 0 3 48 94 96 53 43 69 71 98 6 57 5 5 5 5 22 2 0 0 32 100 100 70 89 88 29 27 9 8 100 100 100 100 100 100 100 100 100 100 100 100 85 100 85 59
3 45 84 14 5 5 30 100 97 65 100 100 100 14 6 5 4 60 14 4 0 0 0 0 54 7 35 49 99 37 53 56 73 100 100 100 100 100 100 100 100 100 100 100 100 89 99 96 48
4 74 100 100 99 94 38 100 100 100 98 71 100 37 31 26 23 0 0 0 0 0 0 0 16 14 67 100 100 68 30 53 50 100 100 100 100 100 100 100 100 100 100 100 100 98 100 92 100
96 96 100 100 99 100 96 97 100 28 78 100 100 83 43 0 0 0 0 0 0 0 0 0 84 91 100 100 100 100 50 100 100 100 97 100 98 100 100 100 100 100 100 100 100 100 100 97 80
89 100 100 100 100 100 69 100 100 100 93 7 5 2 0 0 0 1 0 0 2 1 0 0 13 99 55 82 92 100 100 97 100 100 68 91 92 100 100 100 100 100 100 100 100 83 92 99 88
98 100 100 100 100 100 70 67 100 100 5 5 14 4 0 0 0 1 0 0 5 0 0 3 28 100 81 31 97 100 100 100 100 100 96 99 68 100 100 100 100 100 100 100 100 90 100 99 100
100 62 100 100 100 100 73 100 100 100 100 100 62 30 5 0 0 0 0 0 2 0 0 17 25 82 59 54 100 100 100 100 100 100 100 100 100 100 100 100 100 100 100 100 100 100 100 97 100
100 100 99 100 100 100 100 100 100 100 100 100 100 100 16 0 2 0 0 5 5 2 5 64 3 67 68 90 100 99 100 100 100 100 100 100 100 100 83 100 100 100 100 100 100 100 99 100 99
100 100 100 100 100 100 100 100 100 100 100 81 35 20 3 5 5 0 3 5 5 5 78 100 52 64 73 100 86 100 100 100 100 100 100 100 98 100 100 100 100 100 100 100 100 100 100 100 90
100 100 100 100 100 100 100 100 100 100 100 96 5 5 66 65 0 0 0 0 3 32 100 99 76 100 95 97 100 100 100 100 100 100 100 100 100 100 100 100 100 100 100 100 100 100 100 100 100
100 100 100 100 100 100 100 100 100 100 100 13 26 80 21 0 0 42 13 63 5 84 97 66 47 100 100 80 100 100 100 100 100 93 100 82 94 82 100 100 100 100 100 100 100 100 100 100 100
100 100 100 100 100 100 100 100 100 100 79 6 13 96 0 0 0 95 23 27 6 100 87 49 33 100 58 78 99 97 85 100 99 95 100 100 100 96 100 100 100 100 100 100 100 100 100 100 100
100 100 100 100 100 100 94 80 100 100 77 33 2 1 0 0 4 53 5 5 100 100 99 86 100 82 42 42 44 39 51 100 75 100 100 100 100 100 100 100 100 100 100 100 100 100 100 100 100
100 100 100 100 100 99 100 46 100 100 99 2 4 2 0 0 5 5 41 8 100 100 100 100 100 94 33 36 8 20 86 100 76 98 100 100 100 100 100 100 100 100 100 100 100 100 100 100 100
100 100 100 100 100 100 100 96 69 100 100 8 5 0 0 0 51 30 20 78 95 100 100 100 95 95 39 45 35 47 50 100 95 100 100 100 100 100 100 100 100 100 100 100 100 100 100 100 100
100 100 100 100 100 100 100 99 100 100 96 5 3 0 0 3 95 65 74 99 100 100 100 100 70 100 99 32 27 35 68 68 97 73 100 100 100 100 100 100 100 100 100 100 100 100 100 100 100
100 100 100 100 100 100 100 100 100 78 4 0 3 0 2 4 89 100 21 100 100 100 100 100 70 100 100 44 15 80 42 66 100 100 100 100 100 100 100 100 100 100 100 100 100 100 100 100 100
100 100 100 100 100 100 100 100 58 48 6 0 0 0 5 5 74 100 63 100 100 100 100 100 100 100 100 99 33 63 74 80 100 100 100 100 100 100 100 100 100 100 100 100 100 100 100 100 100
100 100 100 100 100 100 100 99 100 83 71 18 25 46 88 98 88 77 84 100 100 100 100 100 100 100 100 100 78 100 100 78 98 100 100 100 100 100 100 100 100 100 100 100 100 100 100 100 100
100 100 100 100 100 100 95 97 100 100 87 100 98 95 100 100 100 80 100 100 100 100 100 100 100 100 100 100 100 100 100 88 100 100 99 86 100 100 100 100 100 100 100 100 100 100 100 100 100
100 100 100 100 100 100 95 85 100 100 100 100 100 100 100 100 100 100 100 100 100 100 100 100 100 100 77 100 100 100 100 97 100 100 100 100 100 100 100 100 93 90 100 100 100 100 100 100 100

GFSSGP_prec_cloud_081.txt.gz
Cloud_Cover
45 24 5 5 49 67 62 23 5 2 0 0 0 0 0 0 4 4 0 0 0 0 0 1 0 0 0 0 0 0 0 0 0 0 4 0 0 0 0 0 0 0 3 1 11 5 5 4 8
38 5 9 41 9 23 74 44 7 4 0 0 0 0 0 0 0 0 0 0 0 0 0 0 0 0 0 0 0 0 0 0 0 0 1 0 0 0 0 0 0 5 2 4 5 5 22 17 5
60 26 44 5 5 33 11 5 5 2 0 0 0 0 0 0 0 0 0 0 0 0 0 0 0 0 0 0 0 0 0 0 0 0 0 0 0 0 0 0 16 14 5 5 5 19 27 5 5
48 46 51 5 93 100 100 75 5 0 0 0 1 3 2 0 0 0 0 0 0 0 0 40 0 0 0 0 0 0 0 29 15 4 0 0 0 0 0 49 14 67 4 98 83 10 20 5 5
11 7 20 45 83 100 36 5 6 5 1 1 3 5 1 5 6 1 0 0 0 0 0 0 0 0 0 0 0 0 0 10 49 45 18 0 0 2 15 68 99 63 96 100 100 100 32 89 6
0 1 2 2 4 17 6 14 98 5 5 5 10 7 7 15 31 12 24 2 0 0 0 0 0 0 0 0 0 0 0 100 100 98 6 5 99 100 100 100 100 100 100 100 100 100 88 100 100
5 0 0 0 1 0 0 1 6 3 20 81 5 4 91 82 98 100 54 5 0 0 0 0 0 1 0 0 0 0 0 1 20 9 4 97 100 100 100 100 100 100 100 99 100 42 13 16 47
100 19 0 0 0 0 2 0 0 0 0 0 12 17 71 0 98 37 5 0 0 0 0 5 5 6 3 8 3 0 0 0 0 0 2 100 100 100 100 100 100 100 100 100 100 86 15 40 11
100 100 100 99 17 0 0 1 0 0 0 0 3 92 80 82 100 98 9 2 0 0 0 30 54 0 0 47 31 50 4 0 7 1 0 100 100 100 100 100 100 100 100 100 100 100 5 9 56
97 100 100 100 95 0 0 2 2 0 0 0 21 98 100 100 100 79 5 6 4 5 0 25 95 1 0 3 96 65 85 2 2 1 1 93 100 100 100 100 100 100 100 100 100 88 28 57 100
60 26 100 100 99 6 1 1 5 4 0 5 5 91 100 100 100 100 100 43 13 5 5 6 72 10 3 0 97 41 100 89 58 81 29 74 100 100 100 100 100 100 100 100 100 100 100 30 42
15 62 100 71 14 5 5 65 94 93 42 98 100 100 76 10 100 100 49 20 19 54 5 1 21 0 0 0 70 8 84 100 68 59 27 100 100 100 100 100 100 100 100 100 100 100 100 91 68
5 11 13 88 98 36 15 68 100 79 5 82 100 100 21 100 100 100 100 60 49 6 0 0 7 0 0 42 54 66 21 89 83 90 23 100 100 100 100 100 100 100 100 100 100 100 100 100 94
63 5 3 42 8 63 85 71 100 100 66 71 97 94 99 100 100 65 23 21 3 0 0 0 22 1 33 59 100 100 42 77 40 76 52 100 100 100 100 100 100 100 100 100 100 100 100 100 64
52 64 72 80 100 89 93 36 100 100 100 100 100 100 100 78 5 13 59 6 0 0 0 0 44 21 6 0 95 100 60 100 94 100 93 33 100 100 100 100 100 100 100 100 100 100 100 86 97
100 37 54 91 99 93 90 66 100 100 100 60 100 100 100 100 100 99 33 5 0 0 0 0 28 22 0 0 56 100 98 100 100 94 81 77 49 67 100 100 100 100 100 100 100 100 100 100 100
100 70 95 100 99 100 80 73 100 97 100 100 100 100 100 100 100 100 99 3 0 0 0 1 44 14 4 1 89 100 100 100 97 100 100 91 70 71 61 88 100 100 100 100 100 100 100 100 100
100 99 100 100 98 100 68 78 100 100 100 100 100 100 100 100 100 56 6 1 0 0 0 5 30 25 22 28 100 91 100 100 100 100 100 69 75 93 100 51 100 100 100 100 100 100 100 100 100
100 92 100 100 100 77 100 54 100 100 100 100 100 100 100 100 100 100 9 0 0 0 0 0 20 27 17 1 53 100 94 100 100 97 99 85 89 74 87 100 100 100 100 100 100 100 100 100 100
100 100 100 99 99 40 100 94 100 100 100 100 100 100 100 100 100 97 4 0 0 0 0 0 26 40 9 34 91 100 70 49 57 92 89 92 64 94 52 87 100 100 100 100 100 100 100 100 100
100 100 100 100 100 100 100 75 100 100 100 100 100 100 100 80 85 11 2 0 0 2 0 0 54 99 7 78 100 100 41 70 95 100 74 99 55 71 70 100 100 100 100 100 100 100 100 100 100
100 100 100 100 100 100 100 100 100 100 100 100 100 100 100 20 75 2 0 0 5 0 0 4 100 40 31 98 100 86 92 63 76 72 58 46 100 100 100 100 100 100 100 100 100 100 100 100 100
100 100 100 100 100 100 100 100 100 100 100 100 100 100 84 100 4 0 0 0 5 0 0 99 100 89 100 100 100 31 5 86 64 91 64 100 98 100 92 100 100 100 100 100 100 100 100 100 100
100 100 100 100 100 100 100 100 100 100 100 100 100 100 93 25 2 1 0 0 0 0 27 100 93 100 100 100 35 6 13 53 67 100 88 100 100 100 100 100 100 100 100 100 100 100 100 100 100
100 100 100 100 100 100 100 100 100 100 100 100 100 100 76 37 3 2 1 5 0 39 96 100 100 100 100 100 16 5 10 97 23 72 74 100 100 100 100 100 100 100 100 100 100 100 100 100 100
100 100 100 100 100 100 100 100 100 100 100 100 100 100 100 100 93 6 4 2 1 94 100 100 100 100 100 87 6 4 8 100 100 100 89 100 100 100 100 100 100 100 100 100 100 100 100 100 100
100 100 100 100 100 100 100 100 100 100 100 100 100 100 85 58 6 0 4 0 98 97 100 100 100 100 100 61 16 8 52 100 100 71 36 100 100 100 97 98 100 100 100 100 100 100 100 100 100
100 100 100 100 100 100 100 100 100 100 100 100 100 100 88 87 36 9 12 35 100 93 100 100 100 100 100 65 38 36 89 98 81 80 94 100 100 100 99 100 100 100 100 100 100 100 100 100 100
100 100 100 100 100 100 100 100 100 100 100 100 100 87 96 100 100 95 93 100 94 100 100 100 100 100 100 95 67 100 100 100 84 84 81 100 100 100 100 100 100 100 100 100 100 100 100 100 100
100 100 100 100 100 100 100 100 100 100 100 100 100 87 84 100 100 100 100 100 100 100 100 100 100 100 100 100 98 100 100 100 88 100 100 77 100 100 100 100 100 100 100 100 100 100 100 100 100

GFSSGP_prec_cloud_084.txt.gz
Cloud_Cover
11 0 3 55 4 0 0 2 1 5 2 0 0 5 1 0 0 0 0 0 0 0 0 0 0 0 0 0 0 0 0 0 0 0 0 0 0 0 0 0 0 0 0 7 11 0 3 0 1
12 93 55 19 7 6 99 100 85 5 1 1 1 5 1 4 0 0 0 0 0 0 0 0 0 0 0 0 0 0 0 0 0 0 0 0 0 0 0 0 0 0 0 4 12 2 6 12 4
0 1 0 0 2 4 38 87 99 96 7 36 13 5 0 0 0 0 0 0 0 0 0 0 0 0 0 0 0 0 0 0 0 0 2 0 0 0 0 0 0 0 1 0 7 9 33 50 15
0 0 0 0 0 0 0 4 6 8 0 2 100 77 5 5 0 0 0 0 0 0 0 18 0 0 0 0 0 0 0 2 0 0 0 0 0 0 0 0 0 3 5 97 100 100 100 100 18
25 8 6 0 4 3 0 0 0 0 0 0 0 4 53 42 11 5 6 5 6 6 5 3 0 0 0 0 0 0 0 6 0 0 0 0 0 0 10 92 100 100 97 100 100 100 94 96 100
66 92 5 5 0 1 1 0 0 0 0 0 0 0 1 24 5 5 59 16 43 89 96 81 48 55 3 0 0 0 0 1 0 18 67 0 0 9 100 100 100 100 100 100 100 100 100 100 100
100 100 89 41 98 95 91 30 0 0 0 0 0 0 0 0 0 0 61 100 24 55 46 67 51 27 1 0 0 0 0 0 84 75 11 0 2 98 100 100 100 100 100 100 100 100 100 100 100
100 100 100 100 100 100 100 85 5 1 12 0 0 0 0 0 0 0 48 100 12 55 76 31 5 0 0 0 3 0 0 0 0 0 0 0 1 100 91 100 100 100 100 100 100 100 100 65 58
100 100 97 100 100 100 100 100 79 54 100 7 0 0 0 0 0 11 100 59 45 98 91 94 33 5 0 0 0 0 0 0 5 5 0 37 0 97 100 100 100 100 100 100 100 100 100 100 41
100 100 100 100 97 76 6 4 3 45 100 16 0 0 0 0 0 72 100 89 97 100 94 99 67 5 4 3 0 0 0 0 0 0 0 0 0 82 100 100 100 100 100 100 100 100 100 100 95
100 98 100 100 100 100 52 1 5 67 57 11 0 0 0 0 4 20 100 100 100 98 100 100 100 86 5 2 3 0 0 0 0 0 0 0 3 67 100 100 100 100 100 100 100 100 100 99 14
100 100 100 99 31 20 5 20 64 4 51 58 10 1 4 1 98 41 100 100 100 100 97 100 100 90 65 74 0 0 0 0 0 0 0 0 33 97 100 100 100 100 100 100 100 100 100 100 66
59 24 37 63 69 24 3 1 5 9 18 5 5 4 4 59 100 86 100 100 84 100 100 100 99 18 3 0 0 0 0 0 26 0 0 8 19 30 100 100 100 100 100 100 100 100 100 100 96
5 4 2 5 30 1 3 4 5 33 100 39 37 5 2 5 96 66 97 100 100 100 100 83 8 0 2 0 0 0 0 1 0 0 9 10 2 25 100 100 100 100 100 100 100 100 100 100 100
5 4 5 1 5 5 99 5 5 69 100 64 5 2 5 98 100 55 100 100 100 100 12 100 3 0 0 0 17 0 0 0 2 0 0 6 67 90 100 100 100 100 100 100 100 100 100 100 100
4 1 1 3 100 25 100 0 5 84 100 99 17 13 92 100 100 100 100 100 100 100 100 42 5 0 0 3 2 20 95 28 0 5 99 20 11 88 100 100 100 100 100 100 100 100 100 100 100
2 0 5 3 82 92 75 0 5 95 90 11 96 98 100 100 100 100 100 100 100 100 100 100 41 2 0 2 1 5 92 3 0 92 100 57 34 12 94 100 100 100 100 100 100 100 100 100 100
3 16 66 29 63 100 99 81 60 100 97 100 100 58 98 100 100 100 100 100 100 100 100 100 9 13 8 42 4 7 93 89 35 27 73 55 33 11 23 100 100 100 100 100 100 100 100 100 100
0 0 0 76 100 100 88 100 11 100 60 100 100 100 100 100 100 100 100 100 100 100 99 100 79 18 0 36 5 44 74 100 52 95 100 96 15 9 33 62 57 100 100 100 100 100 100 100 100
9 0 0 81 100 95 80 59 100 100 100 100 100 100 100 100 100 100 100 100 99 100 84 100 58 4 8 23 5 2 0 3 18 60 93 100 39 85 54 65 96 100 100 100 100 100 100 100 100
11 5 19 100 93 79 85 50 78 100 100 100 98 100 100 100 100 100 100 100 73 100 97 63 6 0 6 5 4 37 17 15 100 100 50 20 96 100 37 99 100 100 97 100 100 100 100 100 100
5 91 15 100 85 36 100 6 72 99 98 99 100 100 100 100 100 100 100 100 100 26 1 0 0 0 26 5 79 7 5 37 84 99 12 20 50 45 35 98 100 82 100 100 100 100 100 100 100
9 81 7 99 70 5 100 82 100 100 100 100 100 100 100 100 100 100 100 93 8 3 0 0 0 0 12 100 88 5 54 100 75 6 28 100 99 50 59 92 99 100 100 100 100 100 100 100 100
92 89 11 66 100 25 100 100 100 100 100 100 100 100 100 100 100 100 100 26 81 0 0 0 0 0 98 100 56 92 100 100 5 44 100 100 100 100 100 92 100 100 100 100 100 100 100 100 100
92 100 90 100 100 100 100 100 100 100 100 100 100 100 100 100 100 100 98 91 87 4 0 0 1 27 100 70 72 100 100 86 21 88 98 100 100 100 100 100 100 100 100 100 100 100 100 100 100
32 100 100 100 100 100 100 100 100 100 99 99 100 100 100 100 100 100 98 62 99 4 0 0 3 80 100 69 100 100 100 2 1 28 45 47 98 100 100 100 100 100 100 100 100 100 100 100 100
5 100 100 100 100 100 100 100 100 100 99 100 100 100 100 100 100 100 19 5 100 28 1 0 3 87 65 100 100 100 26 7 16 100 100 15 83 100 100 100 100 100 100 100 100 100 100 100 100
5 85 100 100 100 100 100 100 100 100 100 100 100 100 100 100 100 64 100 86 13 69 12 0 12 100 100 100 100 98 46 96 100 100 22 75 89 100 100 100 100 100 100 100 100 100 100 100 100
96 65 100 100 100 100 100 100 100 100 100 100 100 100 100 100 100 100 100 100 100 91 21 100 99 100 100 100 100 93 98 100 100 100 96 100 100 100 100 100 100 100 100 100 100 100 100 100 100
92 66 100 100 100 100 100 100 100 100 100 100 100 100 100 100 100 100 100 100 100 100 96 100 100 100 100 100 100 84 100 100 100 100 100 100 100 100 100 100 100 100 100 100 100 100 100 100 100

GFSSGP_prec_cloud_087.txt.gz
Cloud_Cover
0 0 0 0 0 2 6 57 5 20 4 0 1 5 5 3 0 0 0 0 0 0 0 0 0 0 0 0 0 0 0 0 0 0 0 0 0 0 0 0 0 0 0 7 2 1 5 1 0
5 0 0 0 0 0 1 29 24 48 30 1 0 2 24 100 18 0 1 0 0 0 0 0 0 0 0 0 0 0 0 0 0 0 0 0 0 0 0 0 0 0 0 1 9 11 30 34 2
0 2 26 4 0 0 0 0 0 0 0 0 0 2 39 100 26 0 1 4 4 0 1 2 0 0 0 0 0 0 0 0 0 0 0 0 0 0 0 0 0 0 0 0 62 100 100 93 56
0 0 0 0 90 99 4 0 0 0 0 0 0 0 0 5 1 0 0 2 20 2 41 54 5 2 0 0 0 0 0 0 0 0 0 0 0 0 0 0 0 0 2 38 100 100 99 80 100
0 0 0 0 97 100 35 31 11 5 0 0 0 0 0 0 0 0 0 0 0 0 6 82 8 20 3 0 0 5 5 4 0 0 0 0 0 0 0 0 2 94 100 100 100 100 100 100 56
2 1 0 0 4 100 100 100 92 11 65 0 0 0 1 0 0 0 0 0 0 2 29 17 3 87 50 40 59 30 5 4 0 0 0 0 0 0 0 1 100 100 100 100 100 100 100 100 100
14 5 0 2 5 100 100 100 100 100 93 58 5 9 4 0 0 0 0 0 0 0 7 7 8 100 100 96 32 5 4 3 4 1 69 0 0 0 0 40 100 100 100 100 100 100 100 100 100
4 0 3 14 65 99 99 100 100 70 14 94 58 61 92 1 5 19 0 0 1 5 1 6 97 100 44 94 6 6 5 2 0 0 3 0 0 0 0 69 100 100 100 100 100 100 100 100 100
4 7 26 96 95 99 60 100 100 67 21 55 89 71 92 91 90 71 3 2 5 2 7 100 100 100 37 100 24 24 19 5 5 1 0 0 2 0 9 69 100 100 100 100 100 100 100 100 100
4 4 94 49 13 99 100 100 100 100 100 100 100 48 1 0 0 5 2 0 5 5 79 100 87 100 100 100 58 93 67 26 7 1 0 4 16 29 47 69 100 100 100 100 100 100 100 100 100
51 67 83 100 100 100 100 100 100 50 100 51 7 35 26 0 0 1 7 4 3 5 100 100 77 93 100 83 100 98 37 50 6 0 0 13 40 61 95 80 100 100 100 100 100 100 100 100 100
100 100 100 42 24 94 100 100 100 40 2 37 98 76 6 11 4 5 51 5 5 5 91 100 93 100 96 100 100 100 100 72 4 0 0 40 95 66 98 53 100 100 100 100 100 100 100 100 100
100 100 99 16 0 1 0 2 3 39 4 4 6 55 80 10 24 0 4 5 5 14 100 100 44 92 11 100 100 100 88 2 0 0 0 16 48 39 34 20 100 100 100 100 100 100 100 100 100
100 76 11 5 0 0 0 0 0 0 2 0 5 28 98 82 3 59 5 4 14 82 20 54 61 40 97 100 100 52 1 0 0 0 0 7 28 4 17 21 75 100 100 100 100 100 100 100 100
100 83 5 3 1 3 0 0 0 0 6 15 6 99 100 100 84 27 99 0 17 100 77 5 54 100 100 100 38 7 0 4 0 0 0 0 0 0 27 37 29 100 100 100 100 100 100 100 100
5 3 1 26 16 0 3 0 0 0 2 5 100 99 98 98 91 10 100 5 17 100 100 6 68 100 100 100 93 59 3 24 3 3 0 0 0 2 100 44 100 100 100 100 100 100 100 100 100
5 6 7 80 0 0 2 0 0 0 1 4 66 86 24 95 100 61 81 8 100 100 100 99 100 100 100 100 100 100 5 18 35 1 0 0 0 12 96 53 100 100 100 100 100 100 100 100 100
5 16 55 0 0 1 0 0 0 2 5 4 100 100 100 100 97 100 100 98 100 100 100 100 100 100 100 100 100 96 6 81 24 17 0 0 70 66 44 56 82 100 100 100 100 100 100 100 100
5 5 5 0 0 5 5 1 0 37 98 72 95 87 55 49 96 100 100 35 100 100 100 100 100 100 100 100 88 91 100 100 80 32 0 0 8 27 55 93 100 99 100 100 100 100 100 100 100
5 49 2 0 0 4 0 0 0 5 83 26 100 100 100 98 96 70 83 100 100 100 100 100 100 100 100 92 52 100 95 100 50 20 2 0 9 30 48 91 100 94 74 100 100 100 100 100 100
5 2 0 3 0 0 2 0 0 16 100 100 100 100 100 23 100 98 100 100 100 100 100 100 100 93 100 32 85 46 3 19 39 16 2 14 36 18 50 90 100 89 85 100 100 100 100 100 100
5 3 0 0 0 0 1 1 5 89 89 100 100 100 100 90 100 100 100 100 100 100 100 100 100 100 100 100 54 29 27 76 33 0 6 16 23 30 69 93 91 92 96 95 100 99 100 100 100
0 0 0 0 0 0 47 11 96 85 61 100 100 83 77 50 98 93 100 98 100 100 100 100 100 58 8 5 5 5 5 95 25 5 97 23 33 50 59 79 100 100 100 86 98 100 100 100 100
0 0 4 0 0 2 36 73 100 88 34 97 62 100 100 57 90 100 95 100 100 87 18 100 100 100 73 2 1 78 50 45 9 5 22 46 95 91 61 80 89 81 100 100 98 100 100 100 100
0 0 4 2 2 32 4 100 100 100 100 100 98 100 100 100 100 100 100 100 100 100 100 100 100 65 2 4 3 62 82 74 6 5 39 93 100 100 100 95 100 100 100 100 100 100 100 100 100
5 1 4 5 5 34 36 100 100 100 100 100 100 100 100 100 100 100 100 100 91 42 93 22 4 15 48 6 60 31 5 94 24 35 5 68 73 96 100 74 100 100 100 100 100 100 100 100 100
0 4 0 40 10 57 100 100 100 100 100 100 100 100 100 100 100 100 100 100 100 89 84 49 100 58 24 100 75 100 88 100 99 5 8 44 93 100 97 100 100 100 100 100 100 100 100 100 100
3 14 4 28 83 100 100 100 100 100 100 100 100 100 100 100 100 100 100 100 100 94 100 100 100 100 96 100 94 100 100 100 82 26 100 90 70 100 100 100 100 100 100 100 100 100 100 100 100
37 9 0 2 43 99 100 100 100 100 100 100 100 100 100 100 100 100 100 100 100 100 100 100 100 100 100 85 100 100 100 100 100 100 100 49 48 96 100 98 100 100 100 100 100 100 100 100 100
8 78 97 43 98 100 100 100 100 100 100 100 100 100 100 100 100 100 100 100 100 100 100 100 100 100 100 100 100 100 100 100 100 100 100 100 100 100 100 100 100 100 100 100 100 100 100 100 100

GFSSGP_prec_cloud_090.txt.gz
Cloud_Cover
0 0 0 0 0 0 0 0 4 7 5 0 2 2 0 2 2 0 0 0 0 0 8 13 0 0 0 0 0 0 0 0 0 0 0 0 0 0 0 0 0 0 0 3 6 0 8 0 0
0 0 0 0 0 4 57 2 0 0 0 0 0 4 0 2 2 0 0 0 0 0 1 2 0 0 2 0 0 0 0 0 0 0 0 0 0 0 0 0 0 0 0 25 39 19 45 52 99
0 5 2 0 0 5 27 90 46 1 0 0 0 0 0 0 0 0 0 0 0 0 0 0 0 5 5 4 0 0 0 0 0 0 0 0 0 0 0 0 0 6 0 2 57 72 100 100 100
45 5 0 0 0 3 0 0 5 70 74 62 2 0 0 0 0 0 0 0 0 0 0 2 0 0 0 1 5 0 0 0 0 0 0 0 0 0 0 0 0 0 0 0 28 100 100 100 100
0 3 0 0 0 2 0 64 16 73 72 11 4 0 0 0 0 0 0 0 0 0 0 8 0 0 2 5 2 4 5 1 0 2 5 5 1 0 0 0 0 0 0 11 100 100 100 100 100
0 0 0 0 0 5 47 94 61 14 11 4 0 2 4 0 0 4 24 24 5 1 1 16 3 0 0 5 4 5 6 5 20 5 5 4 0 0 0 0 0 0 5 100 100 100 100 100 100
1 0 0 5 0 2 88 3 0 13 69 52 54 58 9 10 5 6 5 74 82 6 12 42 41 22 4 5 5 5 14 13 24 9 36 18 5 5 0 0 0 0 9 100 100 100 100 100 100
0 0 0 4 5 5 0 0 5 1 3 25 19 15 61 96 1 5 5 2 5 100 100 75 68 43 60 49 5 16 23 20 12 49 9 5 2 5 0 0 0 0 66 100 100 100 100 100 100
2 0 8 18 4 5 15 5 5 5 0 48 100 97 91 80 98 100 58 12 30 25 100 100 81 45 50 76 17 5 26 74 100 97 84 6 6 11 0 0 0 0 100 100 100 93 100 100 100
98 100 12 8 8 35 11 83 92 29 2 4 50 100 100 100 100 100 100 100 100 100 100 100 88 100 41 38 50 82 29 55 100 100 100 100 36 31 5 0 0 4 100 100 100 86 100 100 100
100 100 100 99 98 97 100 100 100 92 90 8 6 1 4 93 41 7 6 2 6 45 64 98 48 40 24 14 48 66 89 89 85 69 99 90 82 87 43 38 37 20 58 100 100 100 100 100 100
100 100 100 100 100 100 100 100 100 100 58 57 5 0 0 0 6 29 0 0 1 4 74 100 76 5 16 25 97 57 99 56 100 66 100 87 100 100 94 99 100 58 65 100 100 100 100 100 100
100 100 100 100 100 100 96 35 31 42 47 26 0 0 0 0 2 4 1 4 0 3 22 94 70 5 11 20 96 71 36 52 100 100 68 100 100 100 100 100 100 100 72 100 100 100 100 100 100
82 100 100 100 98 31 4 11 8 94 16 5 1 2 4 4 45 5 3 0 0 3 10 96 78 12 4 8 65 85 56 34 100 81 66 65 97 97 100 96 100 99 100 100 100 100 100 100 100
30 86 65 69 18 16 1 25 6 7 31 1 4 0 0 3 10 28 6 5 11 16 11 73 100 65 8 5 5 8 51 100 100 90 43 52 44 45 42 61 100 100 100 100 100 100 100 100 100
77 6 8 10 5 2 0 4 26 6 81 5 0 0 0 0 5 28 7 5 0 5 8 96 98 100 44 47 8 13 100 100 100 54 31 46 36 26 36 36 20 71 99 100 100 100 100 100 100
6 7 38 11 5 5 0 0 5 5 1 0 0 0 0 1 6 7 88 98 35 100 100 100 63 100 81 10 22 44 97 100 100 80 18 32 44 35 53 67 53 50 100 100 100 100 100 100 100
87 63 32 5 5 5 4 0 0 0 0 0 0 0 0 2 36 37 98 100 100 37 100 97 93 97 100 99 96 57 100 100 98 30 11 6 18 15 39 68 80 81 99 100 100 100 100 100 100
5 12 60 56 100 5 7 0 0 0 0 0 0 5 1 4 96 71 34 98 32 98 100 5 5 78 100 100 100 100 100 97 100 100 69 5 5 4 73 54 86 100 100 100 100 100 100 100 100
31 81 94 15 5 5 0 0 0 0 0 0 0 0 35 92 10 100 100 99 98 98 99 21 90 100 100 100 100 100 89 21 78 65 76 6 8 16 24 23 87 100 100 100 100 100 100 100 100
100 100 97 100 18 3 0 0 0 0 0 0 0 24 51 99 70 100 100 100 99 31 8 45 100 100 86 41 100 100 15 47 67 98 50 22 7 22 34 35 87 100 100 100 100 100 100 100 100
100 100 100 28 5 0 0 1 0 0 1 1 4 0 87 100 100 83 91 9 10 1 10 100 100 100 71 100 100 54 17 96 97 89 67 15 13 45 76 92 95 73 100 100 100 100 100 100 100
100 100 100 98 3 0 0 0 0 0 36 8 80 100 100 100 92 100 49 5 100 10 96 100 100 100 100 90 99 100 100 100 70 60 53 16 28 42 72 100 100 100 97 100 100 100 60 100 100
100 94 8 3 0 0 0 0 12 21 98 100 78 68 100 100 100 100 100 7 26 100 100 52 100 100 100 100 100 63 100 100 69 94 44 70 67 69 98 100 100 100 100 100 100 100 91 82 100
89 26 5 4 0 0 0 2 19 90 100 100 100 100 100 100 100 100 100 100 100 100 100 100 100 100 100 100 77 74 48 25 68 82 34 100 100 100 100 98 100 100 96 100 100 100 100 100 100
8 90 65 5 0 0 0 0 3 81 100 100 100 100 100 100 100 100 100 100 100 100 100 100 100 100 100 100 100 100 99 32 94 63 38 100 76 71 100 100 100 100 100 100 100 100 100 100 100
6 7 48 61 3 18 3 15 91 100 100 100 100 100 100 100 100 100 100 100 100 100 100 94 100 100 100 100 100 100 54 23 100 22 21 75 100 100 86 70 100 100 100 100 100 100 100 100 100
21 92 100 95 31 25 2 7 100 100 100 100 100 100 100 100 100 100 100 100 100 100 100 100 100 100 100 100 100 100 56 95 89 5 41 100 100 100 100 100 98 100 98 100 100 100 100 100 100
99 70 100 9 27 73 44 13 100 100 100 100 100 100 100 100 100 100 100 100 100 100 100 100 100 100 100 100 100 97 51 46 29 66 99 100 100 83 96 100 100 100 100 100 100 100 100 100 100
96 83 90 100 41 53 5 62 100 100 100 100 100 100 100 100 100 100 100 100 100 100 100 100 100 100 100 100 100 100 100 100 100 79 100 100 100 100 100 100 100 100 100 100 100 100 100 100 100

GFSSGP_prec_cloud_093.txt.gz
Cloud_Cover
0 0 0 0 0 0 8 12 0 0 0 0 0 0 0 0 0 0 0 0 0 0 0 1 1 46 14 0 0 0 0 0 0 0 0 0 0 0 0 0 0 0 0 5 1 0 0 0 0
0 0 0 0 0 0 9 4 0 0 0 0 0 0 0 0 0 0 0 0 0 0 3 12 2 6 11 0 0 0 0 0 0 0 0 0 0 0 0 0 0 0 0 37 4 0 2 0 22
0 0 0 0 27 5 0 0 0 0 0 0 0 0 0 0 0 0 0 0 0 1 19 30 11 10 9 0 2 2 0 0 0 0 0 0 0 0 0 0 0 0 0 0 64 99 59 33 100
0 0 0 0 48 66 0 0 0 0 0 0 0 0 0 0 5 3 0 0 0 10 13 41 6 0 0 0 0 2 0 0 0 0 0 0 0 0 0 0 0 0 0 0 50 18 56 100 100
0 0 0 0 4 4 1 2 0 0 0 0 0 0 0 0 0 4 5 9 4 12 19 33 10 2 0 0 0 0 0 0 0 0 0 0 0 0 0 0 0 0 0 0 3 34 100 100 100
0 0 0 5 48 41 5 1 0 0 0 0 0 0 0 0 0 0 68 100 92 6 30 38 16 13 8 1 0 0 0 0 0 0 0 4 3 5 5 5 3 0 0 0 2 80 87 100 100
10 1 6 99 100 28 3 0 0 0 1 0 0 0 0 0 0 0 2 52 100 37 27 50 56 32 10 13 12 16 7 3 0 0 0 1 5 5 5 0 0 0 0 0 2 10 37 100 100
100 10 62 100 100 45 4 26 6 2 0 0 0 0 0 0 0 0 2 13 98 98 100 100 100 65 65 44 10 15 26 25 20 9 1 6 83 21 4 0 0 0 0 0 2 31 100 100 100
5 3 36 100 100 98 100 97 20 5 6 33 59 73 7 4 0 0 6 37 30 64 100 100 100 100 100 100 80 21 23 35 32 23 16 100 99 59 25 94 32 3 0 0 0 3 100 100 100
29 3 22 100 100 100 100 35 100 7 30 98 100 79 90 19 3 0 0 17 21 77 91 100 100 100 100 96 56 59 79 85 57 36 32 100 100 96 9 5 55 6 0 0 4 1 100 100 100
5 76 100 100 100 65 98 98 100 70 100 100 100 100 76 5 0 0 10 25 99 80 93 73 100 100 100 75 100 100 99 45 37 25 27 100 86 79 36 67 56 29 9 34 16 5 100 100 100
100 76 82 17 74 21 12 30 91 78 100 100 100 100 12 5 4 0 0 0 17 10 16 99 100 100 100 47 95 100 100 98 93 49 34 98 100 100 100 86 73 34 50 48 82 98 100 100 100
100 100 100 74 55 38 5 81 27 93 78 6 5 32 32 5 4 0 0 0 0 0 5 91 100 100 100 87 62 94 99 100 62 56 67 100 100 100 100 100 100 90 99 78 82 69 100 100 100
100 100 97 98 100 100 99 78 41 98 68 20 36 66 79 5 0 0 0 0 0 0 0 22 64 100 100 88 45 45 51 52 56 64 99 100 100 100 100 100 100 100 100 47 40 62 100 100 100
100 100 100 100 100 5 5 97 39 6 40 42 5 67 95 10 1 2 3 0 0 0 0 2 59 69 92 100 94 76 42 43 44 55 98 100 100 100 100 100 100 100 100 99 40 43 100 100 100
100 100 100 100 100 100 13 98 5 5 4 5 10 5 5 5 1 4 2 5 62 11 0 5 18 61 100 100 100 41 78 46 45 53 85 100 100 100 100 100 100 100 100 100 85 63 100 100 100
100 100 100 100 100 42 3 78 7 88 6 40 5 4 35 1 5 1 0 1 90 97 10 3 5 35 100 100 100 13 31 47 66 56 100 100 100 100 58 99 100 100 100 100 100 67 100 100 100
100 100 100 100 100 93 63 21 26 64 5 5 5 0 0 0 0 0 0 2 59 88 100 54 63 98 93 100 71 48 54 57 87 100 98 100 100 100 81 100 100 100 100 100 100 100 100 100 100
100 100 100 100 37 74 89 5 5 6 96 47 0 5 0 0 0 0 0 0 5 6 70 100 81 100 83 100 100 98 61 72 100 100 100 100 100 100 100 100 100 100 100 100 100 100 100 100 100
57 35 80 77 99 67 41 5 5 51 12 5 4 0 0 0 0 0 0 0 6 73 100 47 100 100 100 100 100 31 18 98 100 100 100 99 54 92 99 100 100 100 100 100 100 100 100 100 100
55 40 100 80 100 100 88 1 97 100 34 4 0 2 1 0 0 0 0 28 21 38 97 70 100 100 100 100 100 57 76 100 100 100 100 100 82 65 90 74 100 100 100 100 100 100 100 100 100
98 100 99 100 96 91 36 65 96 88 5 0 0 4 4 0 2 9 95 100 43 100 100 46 100 100 100 100 98 20 89 87 100 100 100 100 86 63 48 88 90 100 100 100 100 100 100 100 100
100 100 100 100 99 67 100 10 5 65 0 0 0 1 14 2 7 30 100 100 100 80 56 100 100 78 100 75 19 29 94 100 100 100 100 100 84 86 100 100 100 100 100 100 100 100 100 100 100
100 100 100 100 100 100 89 7 16 1 0 0 1 0 25 65 100 99 76 96 100 100 100 100 100 100 100 100 93 99 100 100 100 100 100 98 100 100 100 100 89 86 100 100 100 100 100 100 100
100 100 100 100 100 100 100 19 5 0 0 3 3 100 96 100 100 100 100 100 100 100 100 100 100 100 100 100 99 100 100 100 100 100 100 100 100 100 100 100 100 100 100 99 100 100 100 100 100
100 100 100 100 100 100 86 4 0 0 3 5 44 97 100 100 100 100 100 100 100 100 100 100 100 100 100 100 100 100 100 100 100 100 100 100 100 94 94 100 100 100 100 100 100 100 100 100 96
100 100 100 100 94 61 2 0 0 0 2 31 100 100 96 100 100 100 100 100 100 100 100 100 100 100 100 100 100 100 100 100 99 100 100 100 100 100 100 100 100 100 100 100 100 100 100 100 100
100 100 97 86 71 94 0 0 4 0 4 100 87 100 100 100 99 100 100 100 100 100 100 100 100 100 100 100 100 100 100 100 100 96 52 91 56 78 100 100 97 100 100 100 100 100 100 100 100
100 100 100 31 88 100 27 4 2 0 86 100 100 100 100 100 100 100 100 100 100 100 100 100 100 100 100 100 100 100 100 100 100 64 35 36 67 100 99 100 81 100 93 100 98 100 100 100 100
100 100 92 97 100 100 96 19 5 5 100 100 100 100 100 100 100 100 100 100 100 100 100 100 100 100 100 100 100 100 100 100 100 93 63 40 38 35 92 100 100 100 100 100 100 100 100 100 100

GFSSGP_prec_cloud_099.txt.gz
Cloud_Cover
0 0 0 0 0 0 0 0 0 0 0 0 0 0 0 0 0 0 0 0 0 0 0 4 0 1 0 0 0 0 0 0 0 0 0 0 0 0 0 0 0 0 1 0 0 0 0 0 0
0 0 0 0 0 0 0 0 0 0 0 0 0 0 0 0 0 0 0 0 0 0 0 0 10 0 0 0 0 0 0 0 0 0 0 0 0 0 0 0 0 0 0 0 3 1 0 0 0
0 0 0 0 0 0 0 0 0 0 0 0 0 0 0 0 0 0 0 0 0 0 0 0 0 0 2 0 0 0 0 0 0 11 19 13 0 0 0 0 0 0 0 0 2 1 0 0 0
4 0 0 0 0 0 0 0 0 0 0 0 0 0 0 0 0 0 0 0 0 0 0 22 0 0 3 0 0 0 0 0 0 0 19 47 1 0 0 0 0 0 0 0 0 0 0 0 0
5 5 3 5 0 1 0 0 0 0 0 0 0 5 20 3 0 0 0 0 1 7 1 5 12 19 1 0 0 0 0 0 0 0 0 3 0 0 0 0 0 0 0 0 0 0 0 0 0
5 6 5 19 49 25 89 3 0 0 0 0 0 4 5 42 5 1 5 0 6 27 54 8 31 30 8 0 0 0 0 0 0 0 0 0 0 0 0 2 0 0 0 0 0 0 0 0 0
67 5 5 48 100 100 100 4 0 0 4 5 47 5 41 5 5 30 2 0 6 63 75 59 39 60 39 22 7 1 4 5 66 56 27 0 0 0 38 9 0 0 1 1 0 0 0 0 0
9 5 69 75 92 100 55 5 5 0 5 5 5 5 6 5 5 3 0 0 1 50 91 99 99 100 97 66 15 1 0 0 5 61 100 100 33 5 76 65 3 0 0 68 0 0 0 0 0
36 55 96 96 75 33 25 5 85 9 3 43 34 4 3 4 3 3 4 2 4 39 80 100 100 100 100 100 86 38 12 3 6 3 12 68 79 83 100 16 2 2 0 44 3 3 1 0 17
28 22 99 52 7 5 5 5 21 0 4 18 7 5 5 5 19 4 3 2 2 5 88 100 100 100 100 100 100 82 81 44 55 48 34 30 84 32 94 9 5 2 1 0 4 5 1 36 8
57 100 100 100 98 41 15 58 5 11 22 56 12 54 5 5 6 5 4 58 89 11 5 56 100 100 100 100 100 100 100 100 100 98 100 89 61 23 26 50 31 23 1 2 17 9 0 7 22
96 98 61 9 5 14 5 5 78 12 100 100 13 50 10 5 4 13 7 56 63 5 1 5 45 33 97 100 100 100 100 100 100 100 100 100 100 100 74 67 57 60 42 76 57 78 77 23 22
43 21 40 42 5 5 5 5 5 96 100 91 76 36 11 5 5 9 94 7 5 15 34 32 38 5 18 100 100 100 100 100 100 100 100 100 100 100 82 93 89 58 61 70 76 95 77 59 46
5 18 22 19 100 5 6 2 5 82 100 100 80 98 37 6 25 35 3 10 84 89 73 90 36 39 27 98 30 77 100 100 100 100 100 100 100 100 100 100 100 74 90 95 94 97 98 77 74
17 6 17 58 100 45 4 5 96 100 96 64 47 12 99 92 63 63 38 7 5 98 98 65 14 7 30 29 7 60 80 96 100 100 100 100 100 100 100 100 100 100 98 100 100 100 100 98 98
5 7 79 100 82 31 32 75 93 96 52 92 100 100 100 100 100 50 23 95 100 100 87 81 30 5 27 71 88 98 60 70 100 100 100 100 100 100 100 100 100 100 50 100 100 100 100 100 74
6 18 11 55 100 100 100 88 100 95 20 85 64 59 80 68 78 100 100 100 100 93 6 5 5 25 96 100 83 47 66 69 89 100 100 100 100 100 100 100 100 100 96 100 100 100 99 100 100
53 0 3 100 96 80 99 96 6 62 70 91 12 10 7 94 100 100 100 100 100 40 5 30 95 92 87 5 34 86 95 94 91 77 100 100 94 100 100 100 100 100 100 100 100 100 100 100 100
0 0 1 55 86 52 100 100 100 100 100 95 5 5 8 16 86 100 100 100 92 6 5 58 5 5 35 72 23 49 100 100 85 53 100 100 97 100 100 100 100 100 100 100 100 100 100 100 100
2 5 64 100 83 5 78 100 100 100 100 95 5 15 100 79 9 5 5 5 5 18 80 91 16 0 8 44 0 0 36 100 98 100 100 100 94 100 100 100 100 100 100 100 100 100 100 100 100
5 12 100 96 59 12 5 77 100 100 100 100 95 96 29 5 5 5 5 1 0 4 4 17 33 9 0 0 0 34 93 100 100 100 100 100 100 100 100 100 100 100 100 100 100 100 100 100 100
8 100 88 8 5 85 23 26 18 28 86 13 72 96 11 5 4 5 5 5 5 5 84 100 100 70 24 25 13 76 69 100 100 100 100 100 100 100 100 100 100 100 100 100 100 90 100 100 100
46 100 8 5 5 5 36 57 99 14 100 18 17 4 5 5 5 5 6 33 28 80 95 100 100 100 100 99 0 26 100 100 86 100 100 100 100 100 100 100 100 100 100 100 99 100 100 100 100
100 91 96 27 36 4 60 9 5 5 61 98 98 55 6 6 40 56 87 32 69 100 100 100 100 100 100 100 70 99 100 93 100 99 100 100 98 100 100 100 100 100 100 100 95 76 100 100 100
100 100 99 51 8 5 77 28 5 13 77 44 7 7 89 52 64 97 79 32 100 100 100 100 100 100 100 98 75 100 100 100 92 100 98 59 72 100 100 100 100 100 100 100 100 99 100 100 100
100 94 99 81 79 50 13 5 36 9 5 32 70 100 100 91 41 5 23 98 99 100 100 100 100 100 100 99 100 100 100 100 100 100 100 37 100 100 100 100 100 100 100 100 100 95 100 100 98
91 48 84 91 25 21 51 85 68 6 79 89 100 100 100 60 19 30 36 88 96 100 100 100 100 100 100 100 100 100 100 100 100 100 85 100 100 100 100 100 100 100 100 98 100 100 100 100 100
96 92 100 91 78 100 99 85 100 100 100 100 100 100 87 24 6 15 51 94 100 100 100 100 100 100 100 100 100 100 100 99 100 100 100 100 100 100 100 100 100 100 100 100 100 100 100 100 100
100 100 100 100 100 100 100 90 100 100 100 96 98 100 38 47 66 56 48 85 100 100 100 100 100 100 100 100 100 100 100 100 100 100 100 100 100 100 100 100 100 100 100 100 100 100 100 100 100
100 100 100 100 100 100 100 100 100 100 68 57 6 31 72 66 76 100 100 100 100 100 100 100 100 100 100 100 100 100 100 100 100 100 100 100 100 100 100 100 100 100 100 100 100 100 100 100 100

GFSSGP_prec_cloud_102.txt.gz
Cloud_Cover
0 0 0 0 0 3 0 0 0 0 0 0 0 0 0 0 0 0 0 0 0 0 0 5 0 0 0 0 0 0 0 0 0 0 0 0 0 0 0 0 0 0 5 3 3 0 0 0 0
6 4 0 0 0 0 0 0 0 0 0 0 0 0 0 0 0 0 0 0 0 0 0 0 4 0 0 0 0 0 0 0 0 0 0 0 0 0 0 0 0 0 0 0 2 0 0 0 0
42 7 5 1 0 2 0 0 0 0 0 0 0 0 0 0 0 0 0 0 0 0 0 0 5 0 0 0 0 0 0 0 0 0 0 0 0 0 0 0 0 0 17 0 1 0 0 0 0
34 36 31 59 4 5 0 0 0 0 0 0 0 0 0 0 0 0 0 0 0 0 0 40 7 0 0 0 0 0 0 0 0 0 0 0 0 0 0 0 0 0 0 0 0 0 0 0 0
6 38 8 93 63 5 4 0 0 0 0 0 0 0 0 0 0 0 0 0 0 0 0 1 41 11 0 0 0 0 0 0 0 0 0 0 0 0 0 0 0 0 0 0 0 0 0 0 0
66 5 29 72 100 100 24 1 2 0 0 0 0 0 0 0 0 0 0 0 0 0 3 9 31 35 0 0 0 0 0 0 0 0 0 0 0 0 0 0 0 0 0 5 1 0 0 0 0
6 5 7 5 100 100 100 8 5 5 2 0 4 0 4 0 1 4 5 2 10 16 2 13 36 19 54 0 0 1 0 0 0 0 0 0 0 1 0 5 4 5 4 4 5 0 3 84 52
6 5 21 100 50 99 91 51 29 25 5 5 1 5 2 0 0 2 4 5 8 52 30 37 88 100 23 1 20 1 0 0 0 0 3 1 9 0 4 13 10 62 50 5 0 0 0 0 5
42 5 80 100 100 85 87 74 17 6 24 12 1 0 0 0 0 0 0 2 2 37 36 96 100 100 100 55 18 53 22 1 9 5 2 68 26 47 5 0 1 10 91 53 1 1 1 0 12
13 19 99 100 94 56 16 58 28 9 5 5 5 2 0 0 4 2 0 5 53 23 11 0 53 75 100 100 96 41 26 2 4 2 0 0 11 19 2 1 0 4 4 24 4 5 1 41 99
26 88 100 100 100 90 100 100 100 28 77 6 5 0 0 0 1 5 4 5 6 5 5 0 12 100 44 78 92 100 100 80 56 33 11 18 8 14 35 71 15 8 12 56 20 14 2 6 31
48 71 95 100 100 100 100 88 100 99 87 16 5 5 6 5 5 31 5 5 5 4 1 8 100 89 10 4 23 63 73 100 100 100 96 34 48 5 6 9 90 94 99 100 76 98 63 70 87
66 74 57 70 55 64 36 15 85 27 34 5 5 14 38 5 5 5 7 14 33 44 38 86 19 17 5 4 5 6 46 32 92 98 100 100 100 54 5 8 50 92 100 100 94 69 100 74 75
30 13 29 51 100 98 34 16 40 88 5 26 23 5 13 24 5 25 13 44 15 6 16 32 80 66 7 45 92 21 5 5 43 99 100 100 100 100 100 100 91 12 100 100 100 89 92 84 100
86 28 5 5 28 15 6 96 83 41 70 98 27 5 22 6 68 19 36 43 56 94 100 100 100 32 67 100 98 59 7 24 73 100 100 100 100 90 42 100 100 99 100 100 100 97 79 64 76
11 4 5 11 83 5 47 34 62 26 98 99 83 26 50 6 5 9 9 100 100 100 99 97 80 100 100 100 78 42 20 21 74 100 100 100 100 100 100 100 92 100 99 100 100 100 88 99 78
5 9 6 49 17 5 1 2 5 5 59 100 100 88 100 85 5 5 5 5 51 90 100 100 100 100 100 100 100 85 97 98 86 100 100 100 100 99 100 100 100 100 100 100 100 100 100 100 85
56 5 21 5 2 5 2 0 0 56 9 18 63 87 100 30 5 5 4 5 5 24 59 95 100 100 96 100 100 100 58 100 100 99 100 100 100 85 100 100 100 100 100 100 100 100 100 100 100
86 88 87 5 5 15 4 4 5 85 5 38 100 100 86 5 5 5 5 5 8 6 5 5 5 5 8 32 6 65 12 15 98 100 100 97 100 100 100 100 100 100 100 100 100 100 100 100 100
100 34 82 81 98 4 5 6 12 85 17 58 92 100 83 59 17 6 11 39 41 28 7 6 5 2 4 38 43 23 76 100 100 86 46 75 100 100 100 100 94 100 100 100 100 100 100 100 100
100 92 100 100 86 58 5 10 14 89 74 14 5 21 25 6 39 100 100 84 72 100 94 100 23 37 10 20 4 49 100 100 100 100 77 72 99 100 100 100 92 100 100 100 100 100 100 100 100
100 100 100 100 83 99 6 96 5 100 90 4 2 5 28 5 5 7 5 5 5 5 14 16 61 40 38 83 49 4 4 5 9 2 18 100 99 100 98 95 100 100 100 100 100 100 100 100 100
100 100 100 100 73 100 82 100 100 100 99 5 4 3 12 94 73 5 5 5 4 6 24 41 78 94 70 100 100 86 0 0 0 3 87 100 100 100 100 100 100 100 94 98 100 100 100 90 99
100 100 73 93 100 64 100 100 100 31 5 5 5 5 5 5 3 0 0 0 0 12 54 80 64 98 100 100 100 100 76 5 9 4 100 100 100 100 100 96 100 100 100 100 100 100 100 98 95
100 100 100 100 100 84 100 100 100 44 5 22 6 38 84 22 5 3 4 5 3 38 65 83 80 100 100 100 100 100 100 76 98 61 100 100 100 100 100 100 100 100 100 100 100 100 100 100 91
100 100 100 100 100 100 84 100 100 49 76 100 100 100 90 98 61 5 4 5 35 71 86 85 76 100 100 100 100 100 82 78 82 100 100 100 100 100 100 100 100 100 100 100 100 100 100 100 100
100 100 100 100 100 100 100 100 99 100 99 100 100 100 99 79 63 5 5 25 77 80 80 100 100 100 100 100 100 100 66 94 100 100 100 100 100 100 100 100 100 100 100 100 100 100 100 100 100
100 100 100 100 100 100 100 100 100 92 96 100 100 100 89 100 68 5 7 55 97 82 88 74 98 100 100 100 100 100 100 84 100 100 82 98 78 78 98 100 100 100 100 100 100 100 100 100 100
100 100 100 95 100 100 100 100 99 52 98 100 63 95 100 100 40 15 42 86 99 81 94 68 82 100 100 100 100 100 100 100 100 100 100 100 100 92 100 100 100 100 100 100 100 100 100 100 98
80 14 24 95 100 100 100 97 99 100 100 100 97 100 83 89 76 54 55 49 71 82 80 99 100 100 100 100 100 100 100 100 100 100 100 100 100 100 100 100 100 100 100 100 100 100 45 98 100

GFSSGP_prec_cloud_105.txt.gz
Cloud_Cover
27 32 6 6 1 0 0 0 0 0 0 0 0 0 0 0 0 0 0 0 0 0 0 1 0 0 0 0 0 0 0 0 0 0 0 0 0 0 0 0 0 0 30 1 0 0 2 0 0
100 100 93 94 74 5 0 0 0 0 0 0 0 0 0 0 0 0 0 0 0 0 0 0 0 0 0 0 0 0 0 0 0 0 0 0 0 0 0 0 0 0 11 30 66 12 6 0 0
83 21 5 67 88 100 64 0 0 0 0 0 0 0 0 0 0 0 0 0 0 0 0 0 0 0 0 0 0 0 0 0 0 0 0 0 0 0 0 0 0 0 0 28 7 1 0 0 0
100 100 80 88 57 17 17 1 0 0 0 0 0 0 0 0 0 0 0 0 0 0 0 40 0 0 0 0 0 0 0 0 0 0 0 0 0 0 0 0 0 0 0 0 0 0 0 0 0
98 96 100 100 100 79 5 5 5 0 3 0 0 0 0 0 0 0 0 0 0 0 0 0 0 0 0 0 0 0 0 0 0 0 0 0 0 0 0 0 0 0 0 0 0 0 0 0 0
80 100 85 43 100 100 23 4 5 3 4 2 0 8 4 1 1 0 0 0 0 0 0 0 20 0 0 0 0 0 0 0 0 0 0 0 0 0 0 0 0 0 0 0 2 4 3 5 3
100 43 20 5 99 100 100 5 5 5 12 5 5 26 5 2 43 5 4 2 0 2 20 17 21 7 27 0 0 0 0 0 0 4 0 0 0 0 0 0 4 3 2 0 0 5 5 4 5
98 6 85 91 100 100 46 27 5 10 17 27 5 5 5 0 37 5 5 2 0 4 98 60 93 24 7 2 7 0 4 5 26 4 0 3 7 0 4 1 6 5 28 5 17 2 0 5 5
23 7 49 100 91 100 90 96 88 15 98 50 6 5 4 9 5 5 5 5 0 1 70 100 100 100 26 17 8 53 24 4 12 3 2 68 0 2 0 0 0 0 24 40 5 6 41 4 8
83 60 100 68 96 84 71 86 100 18 94 7 38 6 5 17 5 5 3 4 0 0 46 100 100 100 100 51 94 8 2 14 10 0 0 0 1 2 0 0 0 0 2 0 0 0 1 48 8
29 68 100 100 100 14 42 99 100 100 98 91 89 100 98 19 8 4 2 0 0 0 35 87 99 97 100 92 72 86 81 87 12 13 11 9 5 13 13 10 4 3 12 2 18 14 10 25 9
35 98 100 100 100 100 100 83 98 96 100 100 100 100 100 96 100 48 51 4 5 0 5 93 97 100 100 65 68 93 59 72 10 8 15 8 1 0 0 5 42 25 40 26 81 1 7 100 100
100 100 45 96 81 97 93 19 18 23 58 97 86 67 5 5 5 5 5 44 4 5 5 5 44 16 75 97 56 46 40 36 82 35 40 15 5 3 0 5 48 100 100 91 50 52 70 88 77
100 100 100 100 40 35 33 31 33 100 98 20 71 59 40 17 5 5 5 47 16 9 2 5 5 6 2 8 68 73 100 100 81 8 98 100 100 44 5 6 67 100 100 100 74 45 94 10 22
8 56 100 100 100 100 95 5 35 54 87 97 24 9 33 47 5 5 5 5 5 6 5 89 52 54 28 86 99 100 86 22 34 100 90 99 100 100 99 100 100 28 2 53 22 7 21 68 88
29 7 5 10 5 32 23 81 86 6 64 92 64 5 5 5 5 34 54 17 5 5 4 5 14 98 98 100 96 95 39 92 91 100 100 100 100 100 100 100 100 100 3 4 9 42 10 94 93
79 54 68 28 5 11 27 11 5 5 10 98 75 30 5 5 5 10 99 68 99 73 34 5 5 5 11 87 100 100 100 100 100 100 100 100 100 100 100 100 100 100 5 14 80 68 73 86 68
80 100 94 5 100 6 4 1 5 22 7 16 27 9 1 4 3 5 8 53 73 100 98 5 5 5 5 2 7 100 100 100 100 100 100 97 71 100 91 96 100 100 91 91 75 98 72 100 96
78 100 99 81 100 72 5 5 5 5 3 5 8 5 5 5 4 0 4 69 67 11 65 54 5 1 5 5 7 49 46 81 62 22 57 35 72 100 73 95 100 100 95 100 81 99 100 78 100
98 100 87 100 100 97 53 5 56 18 5 5 9 17 100 100 44 23 25 54 95 59 12 14 8 15 17 87 100 100 100 100 95 100 100 98 84 100 100 100 100 99 93 97 33 100 100 100 96
42 100 100 87 100 100 91 5 16 70 98 42 21 31 6 5 17 5 21 31 62 100 100 69 72 99 99 88 35 16 10 10 51 10 5 8 5 4 90 89 100 100 98 100 18 100 97 100 58
100 100 100 100 100 89 100 57 100 95 11 87 100 99 9 8 8 65 5 54 32 4 5 5 8 8 12 56 67 66 17 1 0 0 1 0 1 15 98 55 100 100 100 100 41 74 96 100 80
100 100 100 100 100 100 97 100 100 99 28 97 100 96 77 7 80 100 35 2 0 0 0 3 40 40 63 89 86 88 98 42 0 0 0 0 0 12 100 100 100 100 100 99 70 100 100 88 87
100 100 100 100 100 100 73 100 100 100 100 100 100 100 94 100 100 100 12 0 0 0 16 73 81 71 100 93 100 100 100 100 21 1 0 0 0 1 96 100 100 96 100 67 99 100 86 90 17
100 100 100 100 100 100 100 100 100 100 100 100 100 86 100 100 100 82 0 0 0 3 35 100 100 95 93 100 100 100 100 100 99 33 0 27 47 76 55 100 100 100 100 81 100 100 100 100 33
100 100 100 100 100 100 100 100 100 100 85 100 100 100 100 89 100 92 18 5 5 6 55 100 100 84 94 100 100 100 100 100 100 77 44 26 55 67 70 100 100 100 100 100 100 100 100 100 100
100 100 100 100 100 100 100 100 100 100 100 100 100 100 100 100 100 97 19 5 15 93 99 100 100 96 85 100 100 100 100 100 99 16 43 99 62 72 97 100 100 100 100 98 84 100 100 100 100
100 100 100 100 100 100 100 100 100 100 100 100 100 100 100 100 100 100 6 9 16 50 87 97 100 100 100 100 100 100 100 100 90 100 100 100 100 81 89 97 93 100 100 100 100 100 100 100 100
100 100 100 100 100 100 100 100 100 100 100 100 100 100 100 100 100 100 8 14 53 70 86 97 100 100 96 100 100 100 100 100 100 100 100 100 92 96 100 100 100 100 100 100 100 100 100 100 100
100 100 100 100 100 100 100 100 100 100 100 100 87 100 45 53 100 95 100 44 84 96 87 100 100 100 100 100 100 100 100 100 100 100 91 100 89 100 100 21 99 100 100 98 100 100 100 100 100

GFSSGP_prec_cloud_108.txt.gz
Cloud_Cover
68 77 100 100 100 100 58 7 0 0 0 0 0 0 0 0 0 0 0 0 0 0 0 0 0 0 0 0 0 0 0 0 0 0 0 0 0 0 0 0 0 0 0 0 8 0 0 0 0
100 100 93 100 100 76 100 10 3 0 0 0 0 0 0 0 0 0 0 0 0 0 0 0 0 0 0 0 0 0 0 0 0 0 0 0 0 0 0 0 0 0 0 0 0 2 2 0 0
30 100 70 74 100 100 100 14 3 0 0 0 0 0 0 0 0 0 0 0 0 0 0 0 0 0 0 0 0 0 0 0 0 0 0 0 0 0 0 0 0 0 0 0 7 0 1 0 0
5 5 16 97 79 100 100 99 54 77 0 0 0 0 0 0 0 0 0 0 0 0 0 29 0 0 0 0 0 0 0 0 0 0 0 0 0 0 0 0 0 0 0 0 0 0 0 0 0
5 5 21 13 100 100 100 100 5 100 17 0 0 5 1 0 0 0 0 0 0 0 0 0 0 0 0 0 0 0 0 0 0 0 0 0 0 0 0 0 0 0 0 0 0 0 0 0 0
5 5 5 5 61 100 100 84 30 5 5 0 0 5 57 8 2 1 0 1 0 0 5 0 6 0 0 0 0 0 0 0 0 0 0 0 0 0 1 0 0 0 0 0 0 0 0 0 1
5 5 5 34 92 100 100 7 5 9 5 5 0 5 94 4 48 100 77 3 5 4 14 1 0 0 0 0 0 3 5 3 0 0 0 0 0 4 2 0 0 0 0 0 0 2 5 4 5
6 5 14 84 100 100 83 16 5 100 5 5 5 4 12 51 94 89 22 15 3 0 0 78 83 0 13 1 5 1 0 1 0 0 0 0 6 5 0 0 0 0 0 0 0 0 0 0 0
5 5 39 13 27 5 47 4 84 99 57 100 17 23 5 5 62 71 77 34 5 12 4 0 100 100 0 2 5 15 1 0 3 2 6 90 19 6 0 0 0 0 0 0 0 0 0 0 2
5 5 23 4 5 5 50 69 5 4 38 27 39 100 92 51 22 43 82 35 8 25 5 5 19 100 89 1 2 5 0 0 0 0 5 8 44 37 5 0 0 0 0 0 0 0 0 24 0
52 68 100 99 51 18 46 97 59 42 16 34 92 11 90 100 99 98 98 98 64 9 14 5 4 25 100 68 99 24 4 0 2 5 35 100 85 5 4 4 0 1 5 5 20 43 0 0 0
100 100 100 100 100 100 100 100 100 100 100 56 29 10 87 94 100 100 100 100 100 100 34 82 13 61 3 92 40 91 13 9 71 95 49 3 0 11 100 58 0 100 6 5 5 0 0 0 4
100 100 100 100 100 100 100 100 100 60 97 100 100 100 45 7 7 39 99 97 31 85 41 5 43 51 88 37 21 84 96 100 100 95 99 89 100 100 100 88 5 5 4 76 5 5 2 5 11
100 100 100 100 100 100 100 100 100 100 100 100 97 75 62 14 5 5 5 8 15 32 22 4 2 1 83 20 3 16 41 100 100 100 100 100 100 68 80 96 5 42 100 99 98 10 5 5 8
44 100 70 100 100 100 99 38 100 99 100 100 100 100 100 100 100 66 5 28 5 5 2 31 11 0 5 5 5 2 30 28 87 100 100 85 27 5 60 100 100 100 8 99 15 8 83 17 3
1 1 5 11 4 12 63 45 31 16 4 3 26 98 86 55 11 34 10 5 16 5 1 7 10 12 3 5 5 4 0 22 6 60 74 47 99 100 100 99 100 100 100 78 5 16 65 1 0
5 9 5 2 5 1 68 4 100 50 8 55 41 51 5 5 5 0 1 8 5 3 5 22 80 100 98 34 6 12 5 2 10 5 7 71 83 100 100 100 100 100 80 46 59 0 0 2 1
1 5 5 4 11 76 69 85 4 5 7 5 6 100 9 5 5 3 2 4 5 2 0 0 6 7 49 98 100 92 21 5 0 3 42 7 6 9 11 43 14 97 70 10 5 5 4 0 5
5 6 25 5 22 100 94 52 100 100 100 98 10 86 93 100 4 0 0 5 4 4 2 1 3 48 73 49 14 30 10 11 5 5 5 64 70 66 69 69 40 80 67 90 100 86 5 4 16
98 95 20 5 3 23 99 70 100 100 100 100 50 100 100 100 5 5 1 0 0 4 12 99 62 86 29 27 22 14 20 87 98 100 100 100 100 83 76 61 61 87 100 100 100 100 100 74 32
5 66 5 53 53 59 97 40 100 78 96 100 100 100 100 88 5 7 11 0 2 4 95 81 98 100 98 68 35 44 54 61 12 5 5 5 5 5 2 4 3 86 100 100 100 100 100 50 87
96 67 98 70 87 82 92 76 39 30 60 100 100 100 100 100 42 52 75 6 5 5 1 5 88 99 75 5 3 18 57 91 4 43 50 5 20 83 0 0 0 9 4 100 100 100 100 65 95
100 58 80 92 99 100 99 100 0 72 100 100 100 100 100 63 50 99 99 100 73 9 5 7 100 91 5 5 67 74 61 71 34 1 0 0 0 94 2 0 2 18 0 0 88 54 100 100 23
57 59 68 100 100 96 93 100 100 100 100 100 100 100 100 100 83 83 100 100 98 20 32 86 63 100 34 50 96 76 100 100 100 96 22 0 0 0 97 78 62 26 10 8 3 93 100 100 37
53 67 100 100 100 77 100 100 100 100 100 100 100 100 100 100 100 100 100 59 100 98 100 100 100 100 99 96 82 100 100 100 100 100 100 23 0 0 100 100 100 59 73 100 67 99 100 100 77
92 45 100 100 100 100 100 100 100 100 100 100 100 100 100 100 100 100 100 98 70 40 70 100 71 100 100 100 82 100 100 100 100 100 100 95 18 13 100 100 100 42 35 100 100 36 100 50 58
33 96 100 100 100 100 100 100 100 100 100 100 100 100 100 100 100 100 100 100 100 99 76 97 95 100 100 100 96 99 100 100 100 100 100 100 56 0 0 77 61 63 24 23 100 81 100 100 100
3 16 100 100 100 100 100 100 100 100 100 100 100 100 100 100 100 99 100 100 74 76 100 98 100 100 100 100 100 100 100 100 100 100 100 100 43 28 5 34 50 100 52 71 100 93 92 40 96
100 74 100 100 100 100 100 100 100 100 100 100 100 100 100 100 100 100 100 95 99 100 100 100 100 100 100 100 100 100 99 100 100 100 100 100 99 100 100 100 72 99 100 100 100 100 95 95 94
14 94 100 100 100 100 100 100 100 100 100 100 100 100 100 100 100 100 100 100 100 100 100 100 100 100 100 100 100 100 100 100 100 100 100 100 100 100 100 98 86 94 100 100 100 100 98 100 100

GFSSGP_prec_cloud_111.txt.gz
Cloud_Cover
99 100 95 64 97 100 100 31 10 0 0 3 4 0 0 0 0 0 0 0 0 0 0 0 0 0 0 0 0 0 0 0 0 0 0 0 0 0 0 0 0 0 0 0 0 0 0 0 0
0 4 98 91 59 99 100 13 0 8 100 79 33 0 0 0 0 0 0 0 0 0 0 0 0 0 0 0 0 0 0 0 0 0 0 0 0 0 0 0 0 0 0 0 0 0 0 0 0
0 2 65 30 5 36 97 5 48 5 21 99 68 34 0 0 0 0 0 0 0 0 0 0 0 0 0 0 0 0 0 0 0 0 0 0 0 0 0 0 0 0 0 0 0 0 0 0 0
0 3 25 2 3 29 63 59 5 10 100 100 100 100 100 10 0 3 2 0 0 0 0 0 0 0 0 0 0 0 0 0 0 0 0 0 0 0 0 0 0 0 0 0 0 0 0 0 0
0 0 0 5 52 95 81 100 0 12 98 62 37 67 67 6 0 76 76 0 0 0 0 0 0 0 0 0 0 0 0 0 0 0 0 0 0 0 0 0 0 0 0 0 0 0 0 0 0
0 0 4 5 5 70 100 64 0 3 80 16 18 5 42 1 5 18 55 64 1 0 0 0 0 0 0 0 0 0 0 0 0 0 3 1 0 0 0 0 0 0 0 0 0 0 0 0 0
0 3 5 5 11 60 48 23 0 4 3 7 4 1 5 6 5 89 100 23 0 10 5 5 4 2 0 0 0 0 0 0 0 0 1 2 0 0 0 0 0 0 0 0 0 0 0 0 0
0 5 6 5 4 54 71 75 3 5 100 0 5 51 43 0 5 12 92 100 100 61 40 5 5 10 19 10 0 0 0 2 1 5 0 4 0 0 0 0 2 5 14 4 0 0 0 0 0
0 4 5 5 5 30 35 86 90 4 0 3 4 5 78 7 5 5 69 97 17 50 5 17 8 5 14 18 10 0 0 0 8 7 6 83 38 13 1 0 1 33 100 8 4 1 0 0 0
4 9 58 5 10 12 6 7 60 1 5 4 5 5 5 6 7 47 53 73 53 11 20 5 6 6 27 9 11 17 6 6 19 44 98 100 42 32 11 2 11 100 66 22 91 5 65 3 13
95 97 100 100 100 92 100 99 100 78 8 70 20 22 6 87 80 10 20 100 100 5 99 100 100 100 100 100 42 11 5 5 6 5 38 53 33 79 37 36 5 6 5 60 100 38 76 20 12
100 100 100 100 100 100 100 100 100 100 100 100 100 100 100 100 76 100 100 98 50 100 100 100 100 98 98 100 100 100 48 50 11 60 52 46 89 100 89 90 30 13 100 100 100 52 18 29 100
100 100 100 100 100 100 100 100 100 100 100 100 100 100 100 77 77 100 100 100 100 56 85 95 100 80 19 36 68 54 97 52 48 14 5 95 100 100 100 100 98 100 67 4 5 5 48 83 72
4 7 44 63 67 100 100 100 100 100 100 100 100 100 100 100 100 100 100 100 100 100 51 92 59 52 8 24 83 32 10 40 54 39 8 98 96 100 98 100 100 43 5 0 4 96 57 5 89
2 0 6 31 56 5 6 50 100 100 100 100 100 100 100 100 100 85 27 6 52 100 100 100 100 100 100 8 55 5 4 47 32 7 88 79 100 100 100 87 9 8 5 39 2 0 3 5 12
5 2 0 5 0 2 4 1 5 87 93 100 84 85 91 50 8 10 98 16 4 5 96 100 81 50 5 6 39 42 2 0 0 1 0 40 32 89 100 26 5 0 4 4 5 14 5 5 34
5 1 0 0 0 4 100 8 3 5 28 35 24 5 5 5 0 3 5 5 12 14 19 71 16 5 5 0 5 81 70 15 5 5 10 48 18 22 78 5 0 0 28 9 0 0 0 17 81
5 5 0 0 28 100 100 98 6 8 6 9 92 27 5 40 24 1 2 8 15 99 5 4 1 0 0 0 0 4 18 52 5 5 0 0 1 4 4 67 54 28 44 53 14 5 5 22 100
1 3 5 0 0 5 5 15 2 1 99 100 46 100 100 100 94 5 0 0 5 40 1 5 5 0 2 0 0 0 5 92 94 100 83 5 2 0 2 7 59 67 13 5 56 32 68 98 83
20 26 2 0 0 17 1 0 0 4 5 69 100 100 100 100 98 86 0 0 0 84 23 2 5 5 2 0 0 16 93 18 28 64 29 84 94 67 60 54 8 5 4 7 13 82 93 100 100
17 100 4 3 3 0 0 0 0 0 0 77 100 99 98 100 22 65 1 0 0 39 97 5 5 5 5 5 2 5 5 98 100 76 99 42 2 4 2 4 0 7 1 20 67 90 100 100 100
1 64 81 5 4 5 7 73 0 0 22 1 75 100 100 100 98 5 0 1 8 99 100 71 78 97 54 37 57 94 5 14 64 83 79 5 4 0 0 3 4 0 0 11 8 34 100 100 100
0 5 31 4 5 14 5 59 0 0 9 96 78 100 100 100 64 2 56 100 100 85 100 100 95 99 100 100 100 25 5 35 100 55 56 14 0 0 0 7 35 66 5 4 89 72 100 100 100
4 0 2 5 40 90 16 39 0 2 2 85 100 100 100 100 83 5 99 100 100 100 97 100 99 100 100 100 100 85 52 45 89 100 100 99 93 26 0 0 0 0 30 2 33 100 100 100 80
5 5 66 63 98 37 3 20 44 38 90 14 100 100 100 78 100 71 99 100 100 100 100 100 95 72 79 64 73 100 96 99 100 100 100 100 100 100 85 14 0 0 17 78 100 100 100 100 100
6 5 72 34 41 65 43 55 23 100 100 100 100 100 100 100 100 100 100 100 100 100 100 93 93 100 81 95 100 100 100 99 99 100 100 100 100 100 100 83 2 0 13 98 100 100 100 100 100
36 74 96 100 6 24 86 43 100 100 100 100 100 100 100 100 100 100 100 100 100 100 100 100 100 100 94 93 100 100 100 100 100 100 100 100 100 100 100 100 38 0 100 97 99 100 100 100 74
88 21 87 99 97 19 89 68 100 100 100 100 100 100 100 100 100 100 100 100 100 100 100 100 100 100 87 94 98 100 100 100 100 100 100 100 100 100 100 100 70 6 100 88 93 100 100 100 100
96 40 95 94 95 100 95 100 100 100 100 100 100 100 100 100 100 100 100 100 100 100 100 100 98 93 68 93 100 92 97 100 100 100 100 100 100 100 100 100 100 100 100 100 100 100 61 43 69
100 50 99 100 95 100 100 100 100 100 100 100 100 100 100 100 100 100 100 100 100 100 100 100 100 67 79 100 100 100 100 100 100 100 100 100 100 100 100 100 100 100 100 100 100 100 53 44 100